[[{"header":{"parameterUnit":"m.s-1","parameterCategory":1,"la1":30.6,"la2":29.2853,"lo1":-89.7004,"lo2":-87.6739,"dy":0.0162,"dx":0.0183,"nx":112,"ny":82,"refTime":"2023-06-13T18:00:00:Z","depth":0,"parameterNumber":2,"parameterNumberName":"U-component_of_WINDS"},"data":[0.0,0.0,0.0,0.0,0.0,0.0,0.0,0.0,0.0,0.0,0.0,0.0,0.0,0.0,0.0,0.0,0.0,0.0,0.0,0.0,0.0,0.0,0.0,0.0,0.0,0.0,0.0,0.0,0.0,0.0,0.0,0.0,0.0,0.0,0.0,0.0,0.0,0.0,0.0,0.0,0.0,0.0,0.0,0.0,0.0,0.0,0.0,0.0,0.0,0.0,0.0,0.0,0.0,0.0,0.0,0.0,0.0,0.0,0.0,0.0,0.0,0.0,0.0,0.0,0.0,0.0,0.0,0.0,0.0,0.0,0.0,0.0,0.0,0.0,0.0,0.0,0.0,0.0,0.0,0.0,0.0,0.0,0.0,0.0,0.0,0.0,0.0,0.0,0.0,0.0,-4.9583,-5.2905,-5.9249,-6.3258,-6.3378,-6.269,-6.0805,-5.7483,0.0,0.0,0.0,0.0,0.0,0.0,0.0,0.0,0.0,0.0,0.0,0.0,0.0,0.0,0.0,0.0,0.0,0.0,0.0,0.0,0.0,0.0,0.0,0.0,0.0,0.0,0.0,0.0,0.0,0.0,0.0,0.0,0.0,0.0,0.0,0.0,0.0,0.0,0.0,0.0,0.0,0.0,0.0,0.0,0.0,0.0,0.0,0.0,0.0,0.0,0.0,0.0,0.0,0.0,0.0,0.0,0.0,0.0,0.0,0.0,0.0,0.0,0.0,0.0,0.0,0.0,0.0,0.0,0.0,0.0,0.0,0.0,0.0,0.0,0.0,0.0,0.0,0.0,0.0,0.0,0.0,0.0,0.0,0.0,0.0,0.0,0.0,0.0,0.0,0.0,0.0,0.0,0.0,0.0,0.0,0.0,0.0,0.0,0.0,0.0,0.0,0.0,0.0,0.0,-5.078,-5.7363,-6.1523,-6.4096,-6.4695,-6.3617,-6.1523,-5.8171,0.0,0.0,0.0,0.0,0.0,0.0,0.0,0.0,0.0,0.0,0.0,0.0,0.0,0.0,0.0,0.0,0.0,0.0,0.0,0.0,0.0,0.0,0.0,0.0,0.0,0.0,0.0,0.0,0.0,0.0,0.0,0.0,0.0,0.0,0.0,0.0,0.0,0.0,0.0,0.0,0.0,0.0,0.0,0.0,0.0,0.0,0.0,0.0,0.0,0.0,0.0,0.0,0.0,0.0,0.0,0.0,0.0,0.0,0.0,0.0,0.0,0.0,0.0,0.0,0.0,0.0,0.0,0.0,0.0,0.0,0.0,0.0,0.0,0.0,0.0,0.0,0.0,0.0,0.0,0.0,0.0,0.0,0.0,0.0,0.0,0.0,0.0,0.0,0.0,0.0,0.0,0.0,0.0,0.0,0.0,0.0,0.0,0.0,0.0,0.0,0.0,0.0,0.0,-5.0002,-5.3443,-5.856,-6.1732,-6.3559,-6.3712,-6.2847,-6.0823,-5.7357,-5.3794,0.0,0.0,0.0,0.0,0.0,0.0,0.0,0.0,0.0,0.0,0.0,0.0,0.0,0.0,0.0,0.0,0.0,0.0,0.0,0.0,0.0,0.0,0.0,0.0,0.0,0.0,0.0,0.0,0.0,0.0,0.0,0.0,0.0,0.0,0.0,0.0,0.0,0.0,0.0,0.0,0.0,0.0,0.0,0.0,0.0,0.0,0.0,0.0,0.0,0.0,0.0,0.0,0.0,0.0,0.0,0.0,0.0,0.0,0.0,0.0,0.0,0.0,0.0,0.0,0.0,0.0,0.0,0.0,0.0,0.0,0.0,0.0,0.0,0.0,0.0,0.0,0.0,0.0,0.0,0.0,0.0,0.0,0.0,0.0,0.0,0.0,0.0,0.0,0.0,0.0,0.0,0.0,0.0,0.0,0.0,0.0,0.0,0.0,0.0,0.0,0.0,0.0,-5.2306,-5.5628,-5.877,-6.1437,-6.2788,-6.2319,-6.1522,-5.9578,-5.5982,-5.2907,0.0,0.0,0.0,0.0,0.0,0.0,0.0,0.0,0.0,0.0,0.0,0.0,0.0,0.0,0.0,0.0,0.0,0.0,0.0,0.0,0.0,0.0,0.0,0.0,0.0,0.0,0.0,0.0,0.0,0.0,0.0,0.0,0.0,0.0,0.0,0.0,0.0,0.0,0.0,0.0,0.0,0.0,0.0,0.0,0.0,0.0,0.0,0.0,0.0,0.0,0.0,0.0,0.0,0.0,0.0,0.0,0.0,0.0,0.0,0.0,0.0,0.0,0.0,0.0,0.0,0.0,0.0,0.0,0.0,0.0,0.0,0.0,0.0,0.0,0.0,0.0,0.0,0.0,0.0,0.0,0.0,0.0,0.0,0.0,0.0,0.0,0.0,0.0,0.0,0.0,0.0,0.0,0.0,0.0,0.0,0.0,0.0,0.0,0.0,0.0,0.0,0.0,-5.2695,-5.6137,-5.883,-6.1211,-6.2231,-6.1377,-6.0179,-5.797,-5.4504,-5.1385,0.0,0.0,0.0,0.0,0.0,0.0,0.0,0.0,0.0,0.0,0.0,0.0,0.0,0.0,0.0,0.0,0.0,0.0,0.0,0.0,0.0,0.0,0.0,0.0,0.0,0.0,0.0,0.0,0.0,0.0,0.0,0.0,0.0,0.0,0.0,0.0,0.0,0.0,0.0,0.0,0.0,0.0,0.0,0.0,0.0,0.0,0.0,0.0,0.0,0.0,0.0,0.0,0.0,0.0,0.0,0.0,0.0,0.0,0.0,0.0,0.0,0.0,0.0,0.0,0.0,0.0,0.0,0.0,0.0,0.0,0.0,0.0,0.0,0.0,0.0,0.0,0.0,0.0,0.0,0.0,0.0,0.0,0.0,0.0,0.0,0.0,0.0,0.0,0.0,0.0,0.0,0.0,0.0,0.0,0.0,0.0,0.0,0.0,0.0,0.0,0.0,0.0,-5.2366,-5.5547,0.0,-6.0304,-6.1028,-5.9538,-5.8434,-5.6194,-5.2431,0.0,0.0,0.0,0.0,0.0,0.0,0.0,0.0,0.0,0.0,0.0,0.0,0.0,0.0,0.0,0.0,0.0,0.0,0.0,0.0,0.0,0.0,0.0,0.0,0.0,0.0,0.0,0.0,0.0,0.0,0.0,0.0,0.0,0.0,0.0,0.0,0.0,0.0,0.0,0.0,0.0,0.0,0.0,0.0,0.0,0.0,0.0,0.0,0.0,0.0,0.0,0.0,0.0,0.0,0.0,0.0,0.0,0.0,0.0,0.0,0.0,0.0,0.0,0.0,0.0,0.0,0.0,0.0,0.0,0.0,0.0,0.0,0.0,0.0,0.0,0.0,0.0,0.0,0.0,0.0,0.0,0.0,0.0,0.0,0.0,0.0,0.0,0.0,0.0,0.0,0.0,0.0,0.0,0.0,0.0,0.0,0.0,0.0,0.0,0.0,0.0,0.0,-4.8746,-5.1834,-5.4717,0.0,-5.8972,-5.9423,-5.7847,-5.6404,-5.4051,-5.049,0.0,0.0,0.0,0.0,0.0,0.0,0.0,0.0,0.0,0.0,0.0,0.0,0.0,0.0,0.0,0.0,0.0,0.0,0.0,0.0,0.0,0.0,0.0,0.0,0.0,0.0,0.0,0.0,0.0,0.0,0.0,0.0,0.0,0.0,0.0,0.0,0.0,0.0,0.0,0.0,0.0,0.0,0.0,0.0,0.0,0.0,0.0,0.0,0.0,0.0,0.0,0.0,0.0,0.0,0.0,0.0,0.0,0.0,0.0,0.0,0.0,0.0,0.0,0.0,0.0,0.0,0.0,0.0,0.0,0.0,0.0,0.0,0.0,0.0,0.0,0.0,0.0,0.0,0.0,0.0,0.0,0.0,0.0,0.0,0.0,0.0,0.0,0.0,0.0,0.0,0.0,0.0,0.0,0.0,0.0,0.0,0.0,0.0,0.0,0.0,0.0,0.0,-4.8371,-5.1101,-5.3778,-5.6464,-5.7393,-5.7395,-5.6426,-5.4157,-5.1638,0.0,0.0,0.0,0.0,0.0,0.0,0.0,0.0,0.0,0.0,0.0,0.0,0.0,0.0,0.0,0.0,0.0,0.0,0.0,0.0,0.0,0.0,0.0,0.0,0.0,0.0,0.0,0.0,0.0,0.0,0.0,0.0,0.0,0.0,0.0,0.0,0.0,0.0,0.0,0.0,0.0,0.0,0.0,0.0,0.0,0.0,0.0,0.0,0.0,0.0,0.0,0.0,0.0,0.0,0.0,0.0,0.0,0.0,0.0,0.0,0.0,0.0,0.0,0.0,0.0,0.0,0.0,0.0,0.0,0.0,0.0,0.0,0.0,0.0,0.0,0.0,0.0,0.0,0.0,0.0,0.0,0.0,0.0,0.0,0.0,0.0,0.0,0.0,0.0,0.0,0.0,0.0,0.0,0.0,0.0,0.0,0.0,0.0,0.0,0.0,0.0,0.0,0.0,-4.7315,-4.9897,-5.2267,-5.4316,-5.5453,-5.5575,-5.4145,-5.2278,-4.9849,-4.6725,0.0,0.0,0.0,0.0,0.0,0.0,0.0,0.0,0.0,0.0,0.0,0.0,0.0,0.0,0.0,0.0,0.0,0.0,0.0,0.0,0.0,0.0,0.0,0.0,0.0,0.0,0.0,0.0,0.0,0.0,0.0,0.0,0.0,0.0,0.0,0.0,0.0,0.0,0.0,0.0,0.0,0.0,0.0,0.0,0.0,0.0,0.0,0.0,0.0,0.0,0.0,0.0,0.0,0.0,0.0,0.0,0.0,0.0,0.0,0.0,0.0,0.0,0.0,0.0,0.0,0.0,0.0,0.0,0.0,0.0,0.0,0.0,0.0,0.0,0.0,0.0,0.0,0.0,0.0,0.0,0.0,0.0,0.0,0.0,0.0,0.0,0.0,0.0,0.0,0.0,0.0,0.0,0.0,0.0,0.0,0.0,0.0,0.0,0.0,0.0,0.0,0.0,-4.6251,-4.8885,-5.1052,-5.235,-5.3575,-5.3695,-5.2276,-5.0548,-4.8328,-4.5417,0.0,0.0,0.0,0.0,0.0,0.0,0.0,0.0,0.0,0.0,0.0,0.0,0.0,0.0,0.0,0.0,0.0,0.0,0.0,0.0,0.0,0.0,0.0,0.0,0.0,0.0,0.0,0.0,0.0,0.0,0.0,0.0,0.0,0.0,0.0,0.0,0.0,0.0,0.0,0.0,0.0,0.0,0.0,0.0,0.0,0.0,0.0,0.0,0.0,0.0,0.0,0.0,0.0,0.0,0.0,0.0,0.0,0.0,0.0,0.0,0.0,0.0,0.0,0.0,0.0,0.0,0.0,0.0,0.0,0.0,0.0,0.0,0.0,0.0,0.0,0.0,0.0,0.0,0.0,0.0,0.0,0.0,0.0,0.0,0.0,0.0,0.0,0.0,0.0,0.0,0.0,0.0,0.0,0.0,0.0,0.0,0.0,0.0,0.0,0.0,0.0,0.0,-4.5194,-4.7871,-4.982,-5.0501,-5.1684,-5.1877,-5.0716,-4.9057,-4.7069,-4.4843,0.0,0.0,0.0,0.0,0.0,0.0,0.0,0.0,0.0,0.0,0.0,0.0,0.0,0.0,0.0,0.0,0.0,0.0,0.0,0.0,0.0,0.0,0.0,0.0,0.0,0.0,0.0,0.0,0.0,0.0,0.0,0.0,0.0,0.0,0.0,0.0,0.0,0.0,0.0,0.0,0.0,0.0,0.0,0.0,0.0,0.0,0.0,0.0,0.0,0.0,0.0,0.0,0.0,0.0,0.0,0.0,0.0,0.0,0.0,0.0,-5.5352,0.0,0.0,0.0,0.0,0.0,0.0,0.0,0.0,0.0,0.0,0.0,0.0,0.0,0.0,0.0,0.0,0.0,0.0,0.0,0.0,0.0,0.0,0.0,0.0,0.0,0.0,0.0,0.0,0.0,0.0,0.0,0.0,0.0,0.0,0.0,0.0,0.0,0.0,0.0,0.0,0.0,-4.4144,-4.6333,-4.8014,-4.8691,-4.9972,-5.039,-4.9358,-4.8339,-4.6806,-4.4717,-4.2494,0.0,0.0,0.0,0.0,0.0,0.0,0.0,0.0,0.0,0.0,0.0,0.0,0.0,0.0,0.0,0.0,0.0,0.0,0.0,0.0,0.0,0.0,0.0,0.0,0.0,0.0,0.0,0.0,0.0,0.0,0.0,0.0,0.0,0.0,0.0,0.0,0.0,0.0,0.0,0.0,0.0,0.0,0.0,0.0,0.0,0.0,0.0,0.0,0.0,0.0,0.0,0.0,0.0,0.0,0.0,0.0,0.0,0.0,0.0,0.0,-5.6062,0.0,0.0,0.0,0.0,0.0,0.0,0.0,0.0,0.0,0.0,0.0,0.0,0.0,0.0,0.0,0.0,0.0,0.0,0.0,0.0,0.0,0.0,0.0,0.0,0.0,0.0,0.0,0.0,0.0,0.0,0.0,0.0,0.0,0.0,0.0,0.0,0.0,0.0,0.0,0.0,-4.3472,-4.5472,-4.7001,-4.7403,-4.8536,-4.8937,-4.8085,-4.7395,-4.6305,-4.4719,-4.2811,0.0,0.0,0.0,0.0,0.0,0.0,0.0,0.0,0.0,0.0,0.0,0.0,0.0,0.0,0.0,0.0,0.0,0.0,0.0,0.0,0.0,0.0,0.0,0.0,0.0,0.0,0.0,0.0,0.0,0.0,0.0,0.0,0.0,0.0,0.0,0.0,0.0,0.0,0.0,0.0,0.0,0.0,0.0,0.0,0.0,0.0,0.0,0.0,0.0,0.0,0.0,0.0,0.0,-6.6883,-6.8101,-6.8544,-6.8732,-6.8498,-6.7695,-6.2774,-5.9753,-5.8146,0.0,0.0,0.0,0.0,0.0,0.0,0.0,0.0,0.0,0.0,0.0,0.0,0.0,0.0,0.0,0.0,0.0,0.0,0.0,0.0,0.0,0.0,0.0,0.0,0.0,-5.3952,-5.3414,0.0,0.0,0.0,0.0,0.0,0.0,0.0,0.0,0.0,0.0,0.0,0.0,-4.3164,-4.497,-4.6324,-4.6569,-4.7452,-4.78,-4.7129,-4.6803,-4.615,-4.5121,-4.3589,-4.2233,0.0,0.0,0.0,0.0,0.0,0.0,0.0,0.0,0.0,0.0,0.0,0.0,0.0,0.0,0.0,0.0,0.0,0.0,0.0,0.0,0.0,0.0,0.0,0.0,0.0,0.0,0.0,0.0,0.0,0.0,0.0,0.0,-4.018,-4.1562,0.0,0.0,0.0,0.0,0.0,0.0,0.0,0.0,0.0,0.0,0.0,0.0,0.0,0.0,-6.4101,-6.6494,-6.8738,-7.0858,-7.2415,-7.3391,-7.3778,-7.3926,-7.3424,-7.2267,-7.0406,0.0,-6.205,-5.9609,0.0,0.0,0.0,0.0,0.0,0.0,0.0,0.0,0.0,0.0,0.0,0.0,0.0,0.0,0.0,0.0,0.0,0.0,0.0,0.0,0.0,0.0,-5.6585,-5.6585,-5.7034,-5.7214,0.0,-5.3575,-5.0816,-4.9326,0.0,0.0,0.0,0.0,0.0,0.0,0.0,0.0,-4.3579,-4.4783,-4.5719,-4.5977,-4.7018,-4.7531,-4.7129,-4.7481,-4.7431,-4.6792,-4.5698,-4.4543,-4.3413,-4.1404,0.0,0.0,0.0,0.0,0.0,0.0,0.0,0.0,0.0,0.0,0.0,0.0,0.0,0.0,0.0,0.0,0.0,0.0,0.0,0.0,0.0,0.0,0.0,0.0,0.0,0.0,0.0,0.0,0.0,-4.0134,-4.1971,-4.4029,-4.4556,-4.4964,0.0,0.0,0.0,0.0,0.0,0.0,0.0,0.0,0.0,-6.0635,-6.34,-6.6338,-6.9556,-7.1836,-7.3873,-7.5695,-7.755,-7.8395,-7.8234,-7.7883,-7.6985,-7.5535,-7.3661,-7.1108,-6.8001,-6.4032,-6.1613,-6.0236,0.0,0.0,0.0,0.0,0.0,-5.7393,-5.7393,-5.7154,0.0,0.0,0.0,0.0,0.0,0.0,0.0,0.0,0.0,0.0,0.0,0.0,0.0,-5.868,-5.9308,-5.9608,-5.8919,-5.7047,-5.4554,0.0,-4.9097,-4.7289,-4.6346,0.0,0.0,0.0,0.0,-4.366,-4.4072,-4.5093,-4.586,-4.6087,-4.6557,-4.6773,-4.6677,-4.7154,-4.723,-4.6702,-4.6225,-4.5296,-4.3865,-4.2585,-4.1078,0.0,0.0,0.0,0.0,0.0,0.0,0.0,0.0,0.0,0.0,0.0,0.0,0.0,0.0,0.0,0.0,0.0,0.0,0.0,0.0,0.0,0.0,0.0,0.0,0.0,0.0,0.0,0.0,-4.2151,-4.396,-4.6869,-4.7069,-4.7362,0.0,0.0,0.0,0.0,0.0,0.0,-5.614,-5.9112,-6.2458,-6.6172,-6.9123,-7.1986,-7.4767,-7.6722,-7.8444,-7.9935,-8.1503,-8.2057,-8.1705,-8.0852,-7.9678,-7.8124,-7.6046,-7.4402,-7.2786,-6.7991,-6.5084,-6.3468,-6.2121,-6.1104,-6.0356,-6.0356,-6.0266,-6.0116,-6.0116,-5.9697,-5.9129,-5.8949,0.0,-5.6286,-5.5628,0.0,0.0,0.0,0.0,-5.6226,-5.7513,0.0,-5.9997,-6.0475,-6.1104,-6.1433,-6.0745,-5.9644,-5.7639,0.0,-5.0652,-4.8432,-4.7362,0.0,0.0,0.0,0.0,-4.4203,-4.4684,-4.54,-4.5969,-4.625,-4.6301,-4.6376,-4.6502,-4.6903,-4.7004,-4.6728,-4.6602,-4.5899,-4.4493,-4.3639,-4.2233,-4.0149,0.0,0.0,0.0,0.0,0.0,0.0,0.0,0.0,0.0,0.0,0.0,0.0,0.0,0.0,0.0,0.0,0.0,0.0,0.0,0.0,0.0,0.0,0.0,0.0,0.0,0.0,0.0,0.0,0.0,-4.9674,-4.9921,0.0,0.0,0.0,0.0,-5.3803,-5.6434,-5.9092,-6.1743,-6.5231,-6.8447,-7.142,-7.4872,-7.7482,-7.9218,-8.0763,-8.2254,-8.3745,-8.3524,-8.3571,-8.3873,-8.2568,-8.1411,-8.0289,-7.8904,-7.7091,-7.4894,-7.0569,-6.8375,-6.7537,-6.6221,-6.4904,-6.3737,-6.3737,-6.3378,-6.2869,-6.2869,-6.245,-6.1792,-6.1164,-5.9189,-5.6944,-5.6316,-5.5628,0.0,0.0,-5.7453,-5.8291,-5.9608,-6.0924,-6.1942,-6.2002,-6.251,-6.281,-6.2121,-6.1011,-5.9173,0.0,-5.3062,-5.0678,-4.9241,0.0,-4.501,-4.5262,-4.46,-4.438,-4.5232,-4.5654,-4.5969,-4.625,-4.6301,-4.6527,-4.6993,-4.7043,-4.733,-4.7807,-4.7355,-4.6828,-4.62,-4.4618,-4.2961,-4.1225,-3.9697,0.0,0.0,0.0,0.0,0.0,0.0,0.0,0.0,0.0,0.0,0.0,0.0,0.0,0.0,0.0,0.0,0.0,0.0,0.0,0.0,0.0,0.0,0.0,0.0,0.0,0.0,0.0,0.0,-5.3198,-5.4075,0.0,-5.6162,-5.6489,-5.7214,-5.856,-6.1322,-6.3995,-6.6363,-6.9858,-7.3231,-7.6256,-7.8771,-8.1083,-8.3148,-8.4606,-8.5798,-8.6792,-8.6897,-8.6573,-8.5854,-8.3961,-8.2199,-8.0444,-7.8832,-7.7448,-7.6085,-7.3769,-7.1637,-6.9782,-6.8914,-6.7747,-6.655,-6.655,-6.6131,-6.5533,-6.5114,-6.4545,-6.3737,-6.2241,-6.0805,-5.9548,-5.889,-5.8231,-5.7902,-5.877,-5.9189,-5.9697,-6.1044,-6.1732,-6.2211,-6.263,-6.2726,-6.273,-6.2491,-6.1407,-6.0005,-5.8234,-5.5168,-5.2435,-5.1064,-4.8677,-4.6969,-4.6813,-4.6363,-4.6219,-4.6781,-4.7005,-4.7101,-4.6853,-4.6828,-4.6778,-4.6627,-4.6928,-4.7054,-4.6878,-4.7029,-4.6552,-4.5271,-4.4644,-4.3564,-4.1907,-4.0601,-3.9396,0.0,0.0,0.0,0.0,0.0,0.0,0.0,0.0,0.0,0.0,0.0,0.0,0.0,0.0,0.0,0.0,0.0,0.0,0.0,0.0,0.0,0.0,0.0,0.0,0.0,0.0,-5.3415,-5.74,-5.8419,-5.9309,-6.0674,-6.1171,-6.2028,-6.3492,-6.6141,-6.8784,-7.1268,-7.4409,-7.7536,-8.0493,-8.26,-8.4473,-8.6163,-8.7389,-8.8217,-8.868,-8.8688,-8.8158,-8.6978,-8.4985,-8.2929,-8.099,-7.939,-7.8127,-7.7083,-7.6215,-7.4689,-7.2774,-7.1487,-7.029,-6.9303,-6.9303,-6.8734,-6.7867,-6.6999,-6.6251,-6.5413,-6.3647,-6.263,-6.1972,-6.1283,-6.0805,-6.0535,-6.0984,-6.1104,-6.1313,-6.2097,-6.2249,-6.2368,-6.267,-6.2585,-6.2439,-6.2292,-6.1557,-6.0585,-5.9537,-5.6663,-5.3965,-5.2339,-5.0196,-4.8536,-4.7983,-4.7547,-4.7383,-4.7637,-4.7831,-4.7782,-4.7431,-4.723,-4.6979,-4.6627,-4.6577,-4.6426,-4.605,-4.62,-4.5799,-4.4669,-4.4443,-4.3664,-4.2238,-4.0701,-3.9421,-3.8291,0.0,0.0,0.0,0.0,0.0,0.0,0.0,0.0,0.0,0.0,0.0,0.0,0.0,0.0,0.0,0.0,0.0,0.0,0.0,0.0,0.0,0.0,0.0,-5.203,-5.467,-5.7992,-6.2259,-6.2821,-6.3474,-6.5024,-6.5802,-6.6851,-6.8482,-7.0771,-7.3385,-7.6428,-7.8831,-8.1381,-8.4096,-8.6264,-8.7687,-8.8415,-8.9144,-8.9542,-8.9481,-8.8864,-8.8141,-8.7308,-8.5528,-8.3788,-8.2025,-8.0921,-7.9449,-7.7861,-7.7861,-7.7442,-7.6604,-7.4031,-7.2595,-7.1966,-7.1966,-7.1128,-6.9842,-6.8525,-6.7627,-6.6879,-6.5533,-6.4665,-6.3977,-6.3348,-6.3169,-6.3139,-6.3139,-6.3139,-6.3081,-6.2732,-6.2674,-6.2527,-6.2204,-6.2116,-6.1969,-6.1673,-6.1344,-6.0892,-5.9858,-5.7627,-5.5237,-5.3021,-5.1162,-4.9637,-4.8655,-4.8038,0.0,-4.7958,-4.8008,-4.8008,-4.7958,-4.7506,-4.7143,-4.7068,-4.6125,-4.5497,-4.5497,-4.492,-4.4593,-4.4568,-4.4041,-4.3237,-4.2187,-4.005,-3.8341,-3.7236,0.0,0.0,0.0,0.0,0.0,0.0,0.0,0.0,0.0,0.0,0.0,0.0,0.0,0.0,0.0,0.0,0.0,0.0,0.0,0.0,0.0,0.0,-5.4488,-5.5337,-5.8841,-6.2558,-6.5763,-6.72,-6.822,-6.9213,-6.9871,-7.0569,-7.1345,-7.4042,-7.6329,-7.7905,-8.1236,-8.3886,-8.5636,-8.775,-8.9409,-9.0668,-9.143,-9.1934,-9.2209,-9.1468,-9.0323,-8.8805,-8.6484,-8.4554,-8.2979,-8.1365,-8.0119,-7.9238,-7.8729,-7.813,-7.7382,-7.5736,-7.4659,-7.4001,-7.3522,-7.2505,-7.1248,-7.038,-6.9692,-6.8944,-6.7597,-6.67,-6.6041,-6.5413,-6.4874,-6.4485,-6.4485,-6.4485,-6.4426,-6.404,-6.3654,-6.3268,-6.2913,-6.2113,-6.1433,-6.1313,-6.0681,-5.9797,-5.8829,-5.7413,-5.5915,-5.4368,-5.2915,-5.1678,-5.067,-5.0373,0.0,-5.0343,-5.0368,-5.0042,-4.9213,-4.9012,-4.8435,-4.7168,-4.6502,-4.5924,-4.5522,-4.4568,-4.384,-4.3438,-4.2911,-4.2082,-4.0978,-3.9973,-3.912,0.0,0.0,0.0,0.0,0.0,0.0,0.0,0.0,0.0,0.0,0.0,0.0,0.0,0.0,0.0,0.0,0.0,0.0,0.0,0.0,0.0,0.0,-5.5485,-5.9426,-6.1013,-6.3671,-6.6414,-6.9049,-7.0401,-7.1338,-7.1697,-7.2325,-7.3064,-7.3894,-7.6126,-7.8347,-8.0391,-8.3448,-8.6065,-8.8027,-9.016,-9.1794,-9.2954,-9.3257,-9.3659,-9.4157,-9.2476,-9.1076,-8.9775,-8.7382,-8.5242,0.0,-8.2154,-8.1093,-8.0195,-7.9806,-7.9238,0.0,0.0,0.0,0.0,0.0,-7.3402,-7.2624,-7.1966,-7.1128,-7.0231,-6.9453,-6.8585,-6.7777,-6.7388,-6.6789,-6.6191,-6.5922,-6.5652,-6.5263,-6.4544,-6.4098,-6.3711,-6.3229,-6.245,-6.1762,-6.1639,-6.0641,-5.9633,-5.8748,0.0,0.0,-5.5011,-5.3659,-5.2363,-5.1456,-5.1272,-5.1272,-5.1272,-5.1272,-5.1021,-5.0368,-4.9866,-4.9113,-4.7933,-4.6677,0.0,0.0,0.0,-4.3212,-4.2715,-4.1936,0.0,0.0,0.0,-3.9421,0.0,0.0,0.0,0.0,-3.7061,-3.7061,0.0,0.0,0.0,0.0,0.0,0.0,0.0,0.0,0.0,0.0,0.0,0.0,0.0,0.0,0.0,0.0,-5.9708,-6.4682,-6.7682,-6.8684,-6.9849,-7.1906,-7.2714,-7.3133,-7.3133,-7.3732,-7.4632,-7.5978,-7.7411,-7.9743,-8.3045,0.0,0.0,0.0,0.0,-9.4349,-9.501,-9.4815,-9.4914,-9.5372,-9.2615,-9.1049,-9.0315,-8.8155,-8.5876,-8.3582,-8.3145,-8.211,-8.0913,-8.0913,-8.0524,-7.9716,-7.7711,-7.6544,-7.5856,-7.4659,-7.424,0.0,0.0,0.0,0.0,-7.1098,-7.0201,-6.9213,-6.9123,-6.8585,-6.7837,-6.7268,-6.664,-6.586,-6.4628,-6.4239,-6.3997,-6.3382,-6.2889,-6.2486,-6.2171,-6.1027,-5.9878,-5.9174,-5.7683,-5.6236,-5.5153,-5.3737,-5.2472,-5.1615,-5.1473,0.0,-5.1473,-5.1473,-5.1448,-5.1373,0.0,0.0,-4.8912,-4.6903,-4.5397,-4.4769,-4.3564,-4.269,-4.2137,-4.1128,-4.0601,-4.0601,-4.0124,-3.9647,-3.9145,-3.9145,-3.8894,-3.8366,-3.8115,-3.8015,0.0,0.0,0.0,0.0,0.0,0.0,0.0,0.0,0.0,0.0,0.0,0.0,0.0,0.0,0.0,-5.906,-6.3529,-6.7568,-7.0992,-7.2261,-7.3006,-7.3462,-7.4091,-7.448,-7.448,-7.5108,-7.5764,-7.6266,-7.8628,-8.1039,-8.3467,-8.6988,0.0,-9.1859,-9.4218,-9.5533,-9.5698,-9.6187,-9.6068,-9.529,0.0,0.0,-9.0576,-8.864,-8.6745,-8.4939,-8.3939,-8.2798,-8.1601,-8.1601,-8.1212,-8.0405,-7.84,-7.7233,-7.6604,-7.6365,-7.6275,-7.6096,-7.4899,-7.433,-7.3851,-7.2206,-7.1158,-7.044,-6.9931,-6.8944,0.0,-6.7807,-6.7298,-6.6637,-6.587,-6.5241,-6.4643,-6.3989,-6.3208,-6.2519,-6.2142,-6.1062,-5.985,-5.8888,-5.7358,-5.5842,-5.4753,-5.4071,-5.3453,-5.2697,-5.2603,-5.2603,-5.2603,-5.2603,-5.2427,-5.2,-5.1348,-5.0544,-4.9515,-4.7832,-4.6401,-4.5372,-4.3495,-4.2057,-4.153,-4.125,-4.1125,-4.1125,-4.1025,-4.0924,-4.0852,-4.0852,-4.0802,-4.0598,-3.8843,-3.8015,0.0,0.0,0.0,0.0,0.0,0.0,0.0,0.0,0.0,0.0,0.0,-4.7876,0.0,0.0,-5.8243,-6.2408,-6.6556,-7.0027,-7.2557,-7.3767,-7.439,-7.439,-7.4689,-7.5018,-7.5347,-7.5707,-7.6445,-7.7825,-7.9657,-8.2038,-8.5003,-8.8233,-9.0863,-9.2857,-9.516,-9.6381,-9.6381,-9.6387,-9.6174,-9.5697,-9.3784,-9.2079,-9.0559,-8.886,-8.7157,-8.5503,-8.4941,-8.4145,-8.3187,-8.2529,-8.1871,-8.1153,-7.9836,-7.8699,-7.7741,-7.7083,-7.6814,-7.6694,-7.5736,-7.5168,-7.4599,-7.2954,-7.1936,-7.1278,-7.062,-6.9542,-6.8495,-6.8495,-6.7777,-6.6876,-6.6195,-6.5772,-6.5231,-6.4222,-6.3659,-6.3192,-6.2686,-6.1196,-5.9912,-5.9421,-5.7574,-5.5842,-5.4887,-5.4309,-5.3725,-5.2998,-5.2929,-5.2929,-5.2929,-5.2929,-5.2829,-5.2553,-5.1774,-5.0946,-5.0067,-4.7983,-4.625,-4.5121,-4.3489,-4.2459,-4.2158,-4.1576,-4.1275,-4.1275,-4.1275,-4.1275,-4.1275,-4.1275,-4.1275,-4.125,-4.0147,-3.9672,0.0,0.0,0.0,0.0,0.0,0.0,0.0,-4.5959,-4.7338,-4.8429,-5.0054,-5.2126,-5.5022,-5.8523,-6.2082,-6.5311,-6.9067,-7.2091,-7.3525,-7.4522,-7.5078,-7.5078,-7.5078,-7.5288,-7.5856,-7.6125,-7.7104,-7.9099,-8.0494,-8.2752,-8.6451,-8.8994,-9.1311,-9.3432,-9.5436,-9.6368,-9.6368,-9.5815,-9.5509,-9.5565,-9.3047,-9.1313,-9.0222,-8.8945,-8.7395,-8.5671,-8.5551,-8.5192,-8.4624,-8.3427,-8.2649,-8.208,-8.1302,-8.0255,-7.9028,-7.7831,-7.7322,-7.7113,-7.6335,-7.5707,-7.5018,-7.3582,-7.2654,-7.1966,-7.1308,-7.0111,-6.9004,-6.9004,-6.7864,-6.6544,-6.5926,-6.565,-6.5257,-6.4106,-6.3798,-6.3579,-6.2965,-6.1349,-6.0023,-5.9828,-5.7879,-5.5908,-5.5153,-5.4443,-5.3725,-5.2998,-5.2929,-5.2929,-5.2929,-5.2929,-5.2929,-5.2929,-5.2026,-5.1122,-5.0318,-4.7933,-4.605,-4.502,-4.3915,-4.3288,-4.3288,-4.2359,-4.1752,-4.1752,-4.1652,-4.1601,-4.1601,-4.1601,-4.1601,-4.1601,-4.1702,-4.1601,-3.7303,-3.9564,-4.2035,-4.4141,-4.571,-4.7029,0.0,-4.9052,-5.0244,-5.1793,-5.3742,-5.6054,-5.892,-6.2138,-6.5411,-6.8569,-7.1115,-7.3113,-7.4522,-7.5347,-7.5796,-7.5796,-7.5796,-7.5826,-7.5886,-7.6933,-7.7921,-7.8801,-8.0965,-8.3456,-8.6389,-8.8805,-9.1111,-9.3289,-9.4255,-9.4631,-9.4631,-9.4585,-9.423,-9.3493,-9.2753,-9.1362,-8.944,-8.8897,-8.7606,-8.5671,-8.5073,-8.4773,-8.4654,-8.3936,-8.3576,-8.3397,-8.214,-8.1212,-8.0494,-7.9746,-7.9088,-7.84,-7.7143,-7.6664,-7.6305,-7.439,-7.3343,-7.2684,-7.1996,-7.047,-6.9004,-6.9004,-6.7411,-6.5585,-6.5217,-6.4496,-6.3778,-6.3349,-6.3005,-6.2629,-6.2285,-6.1112,-5.9934,-5.9321,-5.7738,-5.6236,-5.522,-5.4443,-5.3725,-5.2998,-5.2929,-5.2929,-5.2929,-5.2929,-5.2929,-5.2929,-5.2377,-5.1373,-4.9816,-4.8058,-4.6778,-4.615,-4.507,-4.4443,-4.4443,-4.384,-4.3539,-4.3539,-4.3037,-4.2785,-4.2785,-4.2785,-4.2785,-4.2811,-4.3288,-4.2735,-3.9885,-4.2185,-4.4522,-4.6476,-4.8648,-5.0608,-5.1393,-5.3029,-5.4773,-5.6033,-5.7558,-5.9362,-6.192,-6.4554,-6.7141,0.0,-7.1971,-7.3744,-7.477,-7.5138,-7.5318,-7.5318,-7.5647,-7.6185,-7.6933,-7.7502,-7.84,-7.9836,-8.1601,-8.3899,-8.6836,-8.8894,-9.086,-9.2841,-9.3417,-9.3729,-9.3729,-9.3493,-9.3017,-9.2457,-9.2003,-9.1031,-8.9477,-8.8924,-8.7796,-8.624,-8.597,-8.5641,-8.5222,-8.4564,-8.4085,-8.3636,-8.2709,-8.1721,-8.0734,-8.0075,-7.9148,-7.81,-7.7143,-7.6604,-7.6036,-7.442,-7.3462,-7.2774,-7.2086,-7.053,-6.8914,-6.8525,-6.7023,-6.5346,-6.4685,-6.4024,-6.3395,-6.2709,-6.2418,-6.2154,-6.1594,-6.0617,-5.9723,-5.9431,-5.8099,-5.6693,-5.6013,-5.518,-5.4469,-5.3903,-5.3316,-5.2929,-5.2929,-5.2929,-5.2804,-5.2477,-5.195,-5.1071,-4.9715,-4.8661,-4.7707,-4.6853,-4.605,-4.5472,-4.5146,-4.4593,-4.4141,-4.3815,-4.3564,-4.3288,-4.2986,-4.2986,-4.2986,-4.2986,-4.3539,-4.3438,-4.2326,-4.4646,-4.6873,-4.9157,-5.1782,-5.4031,-5.4828,-5.6764,-5.8641,-5.9584,-6.0561,-6.1793,-6.3894,-6.6033,-6.8177,-7.0221,-7.2378,-7.404,-7.48,-7.5048,-7.5168,-7.5168,-7.5736,-7.6604,-7.7711,-7.7801,-7.8639,-8.0644,-8.202,-8.4059,-8.6982,-8.8715,-9.0285,-9.1972,-9.2326,-9.2457,-9.2457,-9.2165,-9.1922,-9.1566,-9.1217,-9.0549,-8.9382,-8.8514,-8.7586,-8.6689,-8.6689,-8.6299,-8.5641,-8.4983,-8.4325,-8.3666,-8.2828,-8.1811,-8.0734,-8.0075,-7.8968,-7.7711,-7.7053,-7.6425,-7.5707,-7.454,-7.3612,-7.2834,-7.2325,-7.0615,-6.8758,-6.825,-6.6597,-6.4805,-6.4119,-6.3432,-6.2747,-6.2009,-6.178,-6.1576,-6.1089,-6.0291,-5.9598,-5.9598,-5.8502,-5.7367,-5.6952,-5.6105,-5.5405,-5.502,-5.4174,-5.3521,-5.3247,-5.3179,-5.3027,-5.2513,-5.1959,-5.1254,-5.0142,-4.9414,-4.8586,-4.7631,-4.6928,-4.6351,-4.5949,-4.5246,-4.4593,-4.4041,-4.389,-4.3539,-4.2986,-4.2986,-4.2986,-4.2986,-4.3539,-4.389,-4.4184,-4.6786,-4.9531,-5.2615,-5.4942,-5.6938,-5.8533,-5.975,-6.0824,-6.1862,-6.2426,-6.3168,-6.4611,-6.6685,-6.8706,-7.0206,-7.2378,-7.404,-7.48,-7.5437,-7.5886,-7.5886,-7.6425,-7.7053,0.0,-7.7801,-7.8639,-8.0644,-8.202,-8.3982,-8.6618,-8.8026,-8.9374,-9.0608,-9.0638,-9.0721,-9.0721,-9.0638,-9.0638,-9.0638,-9.0638,-8.998,-8.8663,-8.7347,-8.6718,-8.6689,-8.6689,-8.6299,-8.5641,-8.4983,-8.4325,-8.3606,-8.232,-8.1392,-8.0734,-8.0075,-7.8968,-7.7711,-7.7053,-7.6425,-7.5796,-7.5078,-7.3971,-7.2924,-7.2894,-7.0843,-6.85,-6.85,-6.6192,-6.3664,-6.3635,-6.2485,-6.1251,-6.1222,-6.0981,-6.0739,-6.0739,-6.0222,-5.9702,-5.9702,-5.8892,-5.8043,-5.767,-5.7028,-5.6444,-5.6078,-5.5749,-5.518,-5.4106,-5.3997,-5.3861,-5.3521,-5.292,-5.2228,-5.1339,-5.0218,-4.9339,-4.8761,-4.7707,-4.7043,-4.7018,-4.605,-4.5196,-4.4618,-4.4066,-4.3539,-4.2986,-4.2986,-4.2986,-4.2986,-4.3539,-4.4091,-4.6638,-4.9202,-5.1702,-5.5197,-5.7724,-5.9566,-6.0883,-6.2222,-6.3231,-6.3231,-6.3307,-6.3562,-6.4213,-6.5388,-6.6962,-6.8896,-7.1097,-7.2886,-7.4083,-7.4809,-7.5228,-7.5228,-7.5407,0.0,0.0,0.0,0.0,-8.0644,-8.202,-8.3906,-8.6539,-8.7945,-8.9292,-9.0608,-9.0638,-9.0638,-9.0638,-9.0638,-9.0638,-9.0638,-9.019,-8.9531,-8.8663,-8.7766,-8.7107,-8.6659,-8.621,-8.591,-8.5611,-8.4504,-8.3666,-8.3008,-8.211,-8.1123,-8.0135,-7.9896,-7.8699,-7.7113,-7.6904,-7.6125,-7.5108,-7.445,-7.3642,-7.2767,-7.2119,-7.0319,-6.8347,-6.7648,-6.5588,-6.3456,-6.3047,-6.2074,-6.1193,-6.1193,-6.0952,-6.0681,-6.0681,-6.0377,-6.0043,-6.0043,-5.955,-5.9177,-5.9024,-5.8368,-5.7706,-5.7157,-5.6275,-5.5353,-5.4753,-5.4511,-5.4174,-5.3861,-5.308,-5.2253,-5.1389,-5.0569,-4.9741,-4.8837,-4.8435,-4.7883,-4.7093,-4.6778,-4.615,-4.5221,-4.502,-4.4468,-4.3514,-4.3514,-4.3338,-4.2986,-4.3539,-4.389,-4.8964,-5.1681,-5.4304,-5.7672,-6.0283,-6.2142,-6.287,-6.3935,-6.4613,-6.3829,-6.3018,-6.2565,-6.3017,-6.3857,-6.5251,-6.7598,-7.0137,-7.2294,-7.3724,-7.4659,-7.5258,-7.5258,-7.5437,-7.6006,0.0,0.0,0.0,-8.0674,-8.202,-8.3906,-8.6539,-8.7945,-8.9292,-9.0608,-9.0638,-9.0638,-9.0638,-9.0638,-9.0519,-9.0279,-8.9621,-8.8963,-8.8304,-8.7407,-8.6748,-8.6299,-8.5641,-8.5222,-8.4923,-8.3816,-8.3008,-8.232,-8.1422,-8.0554,-7.9746,-7.9267,-7.813,-7.6814,-7.6814,-7.5976,-7.4779,-7.4121,-7.3395,-7.2537,-7.1681,-6.988,-6.7964,-6.7265,-6.545,-6.3622,-6.3214,-6.2477,-6.1803,-6.1571,-6.1392,-6.1123,-6.0921,-6.0681,-6.056,-6.056,-6.0316,-6.0043,-6.0043,-5.9583,-5.8933,-5.827,-5.7441,-5.6536,-5.5683,-5.5353,-5.5046,-5.4469,-5.3731,-5.2791,-5.1589,-5.1012,-5.0243,-4.9138,-4.8887,-4.836,-4.7456,-4.723,-4.6627,-4.5522,-4.5497,-4.502,-4.4091,-4.4091,-4.3915,-4.3589,-4.394,-4.4217,-5.1082,-5.4235,-5.7118,-6.0068,-6.2659,-6.4534,-6.456,-6.4953,-6.4953,-6.3803,-6.1711,-6.0335,-6.1103,0.0,-6.348,-6.624,-6.9438,-7.2176,-7.3724,-7.5048,-7.5916,0.0,0.0,0.0,-7.7801,0.0,0.0,-8.0794,0.0,-8.3995,-8.6599,-8.8005,-8.9322,-9.0608,-9.0638,-9.0638,-9.0638,-9.0638,-9.0309,-8.9651,-8.8993,-8.8334,-8.7646,-8.6299,-8.5701,-8.5671,-8.4953,-8.4295,-8.3636,-8.2978,-8.229,-8.1572,-8.0315,-7.9806,-7.9597,-7.828,-7.7382,-7.6814,-7.6713,-7.5946,-7.4749,-7.4061,-7.3163,-7.2238,-7.1459,-6.9427,-6.7377,-6.7347,-6.5717,-6.3975,-6.3975,-6.3574,-6.2935,-6.2296,-6.2151,-6.1977,-6.1425,-6.1309,-6.1309,-6.1309,-6.101,-6.08,-6.08,-6.0467,-6.001,-5.9329,-5.9267,-5.8641,-5.6888,-5.6628,-5.6236,-5.5232,-5.4738,-5.3778,-5.1971,-5.1497,-5.082,-4.9715,-4.9113,-4.856,-4.7983,-4.7456,-4.6677,-4.5598,-4.5547,-4.5246,-4.4669,-4.4669,-4.4644,-4.4618,-4.4618,-4.492,-5.3582,-5.6331,-5.8978,-6.2162,-6.3699,-6.4639,-6.5083,-6.4613,-6.3672,-6.2104,-6.0274,-5.8892,-5.8722,-5.9451,0.0,-6.4271,-6.7553,0.0,-7.3544,-7.5048,0.0,-7.6544,-7.7173,-7.7831,-7.846,-7.9597,0.0,0.0,-8.3487,-8.5162,-8.7317,-8.8693,-8.9801,-9.0608,-9.0638,-9.0638,-9.0638,-9.0638,-9.0309,-8.9651,-8.8993,-8.8334,-8.7646,-8.6299,-8.5701,-8.5641,-8.4474,-8.3606,-8.2948,-8.229,-8.1362,-8.0285,-7.9956,-7.9507,-7.8938,-7.81,-7.7382,-7.6684,-7.5925,-7.514,-7.4277,-7.3147,-7.2438,-7.1559,-6.97,-6.8327,-6.7224,-6.6497,-6.5205,-6.3975,-6.3975,-6.3574,-6.3051,-6.2877,-6.2848,-6.279,-6.2645,-6.2616,-6.2616,-6.2616,-6.2148,-6.1739,-6.1739,-6.1302,-6.0681,-6.0071,-5.9948,-5.9301,-5.7624,-5.7174,-5.6655,-5.5604,-5.4913,-5.3958,-5.253,-5.1699,-5.0971,-5.0243,-4.969,-4.9138,-4.856,-4.8008,-4.7405,-4.6728,-4.6301,-4.5824,-4.5271,-4.5271,-4.5045,-4.4618,-4.4618,-4.4694,-5.6478,-5.8765,-6.0862,-6.3386,-6.4691,-6.5188,-6.4743,-6.3933,-6.2679,-6.0431,-5.8533,-5.713,-5.6944,-5.7987,-6.0018,0.0,0.0,0.0,-7.3544,-7.5796,-7.7293,-7.7652,-7.8789,-7.9686,-8.0075,-8.1572,-8.2948,0.0,-8.4714,-8.5881,-8.7616,-8.8963,-8.998,-9.0608,-9.0638,-9.0638,-9.0638,-9.0369,-8.989,-8.9232,-8.8574,-8.7915,-8.7197,-8.5881,-8.5252,-8.5162,0.0,-8.2679,-8.226,-8.1302,-8.0315,-7.9327,-7.9058,-7.8519,-7.7831,-7.696,-7.6442,-7.5995,-7.4624,-7.3852,-7.3241,-7.2412,-7.1677,-7.0808,-6.8964,-6.7867,-6.6999,-6.6099,-6.5228,-6.4444,-6.4444,-6.4183,-6.3864,-6.3574,-6.3516,-6.3428,-6.3167,-6.308,-6.308,-6.308,-6.279,-6.2441,-6.2151,-6.1803,-6.1302,-6.0528,-6.0438,-5.9981,-5.8739,-5.8135,-5.7496,-5.6655,-5.571,-5.4678,-5.3417,-5.2444,-5.1472,-5.0469,-5.0117,-4.959,-4.8812,-4.8209,-4.7657,-4.7093,-4.6602,-4.615,-4.5849,-4.5849,-4.5673,-4.5372,-4.5372,-4.5372,-5.9341,-6.1174,-6.2705,-6.4351,-6.5475,-6.5711,-6.3959,-6.294,-6.1555,-5.8758,-5.6678,-5.5379,-5.5441,-5.7193,-5.9639,-6.2836,0.0,-7.1325,-7.3604,-7.6634,-7.8759,-7.9028,-8.0734,-8.1991,-8.217,-8.3876,-8.5252,-8.591,-8.612,-8.6718,-8.7915,-8.9112,-9.007,-9.0608,-9.0638,-9.0638,-9.0638,-9.007,-8.9412,-8.8663,-8.8095,-8.7437,-8.6629,-8.5312,-8.4714,-8.4594,0.0,0.0,-8.1572,-8.0315,-7.9357,-7.8609,-7.7969,-7.7341,-7.6613,-7.5606,-7.5228,-7.495,-7.3329,-7.2453,-7.2039,-7.1738,-7.0945,-6.9971,-6.8598,-6.7582,-6.6738,-6.6012,-6.5402,-6.4996,-6.4996,-6.4996,-6.4851,-6.4299,-6.4091,-6.4009,-6.3457,-6.3341,-6.3341,-6.3341,-6.3283,-6.3022,-6.2441,-6.2209,-6.1797,-6.0944,-6.0739,-6.0499,-5.9858,-5.9177,-5.8578,-5.7816,-5.685,-5.5761,-5.4512,-5.3351,-5.2117,-5.0761,-5.0494,-4.9992,-4.9038,-4.836,-4.7782,-4.7255,-4.6702,-4.6376,-4.6301,-4.6301,-4.6301,-4.6301,-4.6301,-4.6301,-6.1562,-6.3125,-6.4404,-6.5658,-6.5763,-6.5083,-6.3358,-6.1424,-5.9281,-5.685,-5.5181,-5.416,-5.4271,-5.6114,-5.8649,-6.1664,-6.5962,-7.0111,-7.3395,-7.6245,-7.8579,-8.0255,-8.1721,-8.3008,-8.4085,-8.5492,0.0,0.0,0.0,-8.9082,-8.9322,-9.004,-9.0519,-9.0638,-9.0638,-9.0638,-9.0638,-9.0519,-8.986,-8.8693,-8.8574,-8.7885,-8.6629,-8.5312,-8.4714,-8.4594,0.0,0.0,-8.0913,-8.0135,-7.9088,-7.7909,-7.7533,-7.7015,-7.626,-7.5224,-7.4846,-7.4569,-7.2882,-7.1951,-7.1395,-7.0751,-7.0254,-6.9574,-6.7741,-6.7036,-6.6651,-6.5489,-6.5083,-6.4996,-6.4996,-6.4996,-6.4967,-6.4851,-6.4822,-6.4793,-6.4677,-6.4648,-6.4648,-6.4648,-6.4241,-6.3835,-6.3656,-6.2819,-6.1942,-6.1549,-6.1027,-6.056,-6.0194,-5.9735,-5.9177,-5.8198,-5.7377,-5.6482,-5.5485,-5.3915,-5.2782,-5.2269,-5.1053,-5.0343,-5.0142,-4.9163,-4.836,-4.7782,-4.7255,-4.6753,-4.6301,-4.6301,-4.6301,-4.6301,-4.6301,-4.6301,-6.3908,-6.5031,-6.5632,-6.6495,-6.6024,-6.477,-6.2469,-6.0378,-5.8253,-5.5771,-5.4546,-5.3985,-5.4229,-5.6507,-5.9137,-6.1367,-6.586,-7.0022,-7.2947,-7.6245,-7.9058,-8.1063,-8.3068,-8.4684,-8.5641,-8.7257,-8.8364,0.0,0.0,-9.001,-8.9681,-9.0608,-9.1147,-9.1147,-9.1147,-9.0968,-9.0638,-9.0309,-8.983,-8.9172,-8.8514,-8.7826,-8.7137,-8.5462,-8.4534,-8.4085,-8.211,0.0,-8.0225,-7.9208,-7.8047,-7.6979,-7.6438,-7.5762,-7.4928,-7.418,-7.3921,-7.3733,-7.2415,-7.1516,-7.0875,-7.0263,-6.969,-6.8973,-6.7376,-6.6883,-6.6622,-6.5344,-6.4996,-6.4996,-6.4996,-6.4996,-6.4996,-6.4996,-6.5228,-6.5577,-6.5896,-6.5722,-6.5489,-6.5489,-6.4967,-6.4415,-6.4033,-6.3516,-6.2815,-6.1964,-6.1588,-6.1238,-6.08,-6.056,-6.0194,-5.9301,-5.8487,-5.7569,-5.6704,-5.509,-5.3741,-5.2951,-5.1841,-5.1021,-5.0444,-4.964,-4.8937,-4.836,-4.7556,-4.6943,-4.6753,-4.6451,-4.6301,-4.6301,-4.6301,-4.6301,-6.5998,-6.673,-6.6913,-6.72,-6.6392,-6.4769,-6.1682,-5.9529,-5.7492,-5.5103,-5.4323,-5.4134,-5.452,-5.703,-5.9619,-6.1145,-6.5547,-6.9491,-7.1721,-7.5587,-7.9028,-8.1302,-8.3876,-8.591,-8.6988,-8.8663,0.0,0.0,0.0,0.0,-9.01,-9.1177,-9.1835,-9.1835,-9.1835,-9.1506,-9.0848,-9.0339,-8.995,-8.9651,-8.8634,-8.7975,-8.7646,-8.5761,-8.4564,-8.3816,-8.1721,0.0,0.0,-7.8358,-7.7128,-7.6219,-7.5424,-7.4421,-7.348,-7.3128,-7.2944,-7.2686,-7.1905,-7.1097,-7.046,-6.9989,-6.935,-6.8567,-6.7289,-6.6883,-6.6622,-6.5344,-6.4996,-6.4996,-6.4996,-6.4996,-6.5025,-6.5141,-6.5577,-6.6099,-6.6738,-6.6389,-6.5925,-6.5925,-6.5431,-6.4822,-6.4328,-6.4062,-6.369,-6.2674,-6.2267,-6.1919,-6.1454,-6.128,-6.1013,-6.0499,-5.9516,-5.8613,-5.7861,-5.6248,-5.4771,-5.3705,-5.2733,-5.1783,-5.0776,-5.0132,-4.9464,-4.8786,-4.7933,-4.7431,-4.7305,-4.6753,-4.6476,-4.6476,-4.6376,-4.6301,-6.707,-6.822,-6.8507,-6.8037,-6.6893,-6.5053,-6.1627,-5.8928,-5.6625,-5.4789,-5.4179,-5.4221,-5.4821,-5.6849,-5.8811,-6.0144,-6.3713,-6.6997,-6.9064,-7.3283,-7.7352,-8.0524,-8.3217,0.0,-8.8245,-8.9202,0.0,0.0,0.0,0.0,0.0,-9.2105,-9.2524,-9.2524,-9.2524,-9.2194,-9.1536,-9.1476,-9.0848,-8.9681,-8.9561,-8.8873,-8.7646,-8.624,-8.5252,-8.4474,0.0,0.0,0.0,-7.8278,-7.6944,-7.6148,-7.4857,-7.3641,-7.2702,-7.2345,-7.2014,-7.1639,-7.1266,-7.0675,-7.0111,-6.9891,-6.935,-6.8567,-6.7289,-6.6883,-6.6622,-6.5344,-6.4996,-6.4996,-6.4996,-6.4996,-6.5141,-6.5722,-6.5896,-6.6099,-6.6738,-6.6389,-6.5925,-6.5925,-6.5431,-6.4967,-6.4909,-6.4415,-6.3946,-6.3801,-6.2848,-6.2064,-6.2006,-6.1542,-6.1193,-6.1133,-6.0194,-5.9301,-5.8641,-5.7017,-5.5815,-5.5432,-5.3608,-5.2269,-5.1727,-5.0842,-4.9841,-4.8786,-4.8686,-4.836,-4.7832,-4.7305,-4.7054,-4.6993,-4.6552,-4.6301,-6.7525,-6.9079,-6.9715,-6.9383,-6.7826,-6.5518,-6.2179,-5.9322,-5.6966,-5.5798,-5.5172,-5.5119,-5.5991,-5.7655,-5.9087,-5.9776,-6.261,-6.5503,-6.7508,-7.1427,-7.5467,-7.9148,-8.226,-8.5162,0.0,0.0,0.0,0.0,0.0,0.0,0.0,-9.3062,-9.3182,-9.3182,-9.3182,-9.2883,-9.2224,-9.1805,-9.1357,-9.0818,-9.004,-8.9172,-8.8245,-8.6479,-8.5103,-8.3995,0.0,0.0,0.0,-7.7538,-7.6301,-7.5416,-7.3845,-7.2834,-7.2273,-7.1869,-7.1652,-7.1551,-7.1626,-7.102,-7.0169,-7.0286,-6.9408,-6.8073,-6.7173,-6.6622,-6.6128,-6.5228,-6.4996,-6.4996,-6.4996,-6.5257,-6.5722,-6.636,-6.6825,-6.7289,-6.7928,-6.7551,-6.6999,-6.6593,-6.5983,-6.5431,-6.5054,-6.4764,-6.4473,-6.4033,-6.3603,-6.2993,-6.218,-6.189,-6.16,-6.1222,-6.0499,-5.9797,-5.9301,-5.7725,-5.6497,-5.5908,-5.4371,-5.3071,-5.2286,-5.1422,-5.0569,-4.9766,-4.9113,-4.8661,-4.8435,-4.7883,-4.7606,-4.7581,-4.7054,-4.6803,-6.727,-6.9128,-6.9954,-6.9775,-6.83,-6.6002,-6.2794,-6.0049,-5.7889,-5.6926,-5.6342,-5.6165,-5.6964,-5.8188,-5.924,-5.9725,-6.1858,-6.4126,-6.6131,-6.9812,-7.3702,-7.7502,0.0,-8.4474,0.0,-8.9112,0.0,0.0,0.0,0.0,0.0,-9.39,-9.39,-9.39,-9.39,-9.3481,-9.2613,-9.2135,-9.1716,-9.1327,-9.019,-8.9322,-8.8604,-8.6599,-8.5073,-8.3906,0.0,0.0,0.0,-7.6923,-7.5533,-7.4766,-7.3124,-7.2129,-7.1551,-7.1288,-7.1069,-7.1069,-7.1405,-7.0865,-7.0016,-7.0436,-6.9224,-6.7492,-6.7028,-6.6447,-6.5809,-6.517,-6.4996,-6.5025,-6.5228,-6.5606,-6.6128,-6.697,-6.7551,-6.8073,-6.8683,-6.8334,-6.7696,-6.6999,-6.636,-6.5722,-6.5083,-6.4996,-6.4822,-6.4386,-6.4154,-6.3632,-6.2529,-6.2209,-6.1861,-6.1251,-6.0681,-6.0255,-5.9981,-5.855,-5.7275,-5.6628,-5.5087,-5.3849,-5.2842,-5.1993,-5.1172,-5.0444,-4.9665,-4.9188,-4.9012,-4.8435,-4.8159,-4.8159,-4.7606,-4.728,-6.6155,-6.8058,-6.8889,-6.8716,-6.7886,-6.6312,-6.328,-6.1044,-5.9215,-5.803,-5.7541,-5.736,-5.7611,-5.828,-5.9011,-5.9912,-6.1224,0.0,-6.4784,-6.8435,-7.2176,0.0,0.0,-8.3816,-8.6419,0.0,0.0,0.0,0.0,0.0,0.0,-9.4588,-9.4588,-9.4588,-9.4588,-9.396,-9.2613,-9.2583,-9.1925,-9.0638,-8.998,-8.9322,-8.8604,-8.6599,-8.5342,0.0,0.0,0.0,0.0,-7.652,-7.4882,-7.443,-7.2793,-7.1405,-7.0304,-7.0304,-7.0082,-6.9784,-7.0156,-7.0,-6.9663,-6.9987,-6.8633,-6.6883,-6.6883,-6.6447,-6.5809,-6.517,-6.4996,-6.5141,-6.5751,-6.5925,-6.6273,-6.7551,-6.787,-6.8073,-6.8683,-6.8334,-6.7696,-6.6999,-6.636,-6.5722,-6.5083,-6.4996,-6.4996,-6.4967,-6.4444,-6.3806,-6.3167,-6.2499,-6.1861,-6.1251,-6.0892,-6.0681,-6.0681,-5.9454,-5.836,-5.767,-5.5986,-5.4426,-5.3243,-5.2481,-5.1574,-5.0444,-5.0419,-5.0117,-4.959,-4.9038,-4.8761,-4.8736,-4.8159,-4.7631,-6.529,-6.7687,-6.913,-6.8781,-6.8144,-6.696,-6.4405,-6.1981,-6.0068,-5.9246,-5.8488,-5.8029,-5.8335,-5.9075,-5.9737,-6.0057,-6.1583,-6.3288,0.0,0.0,0.0,-7.5497,-8.1572,-8.6329,0.0,0.0,0.0,0.0,0.0,0.0,0.0,-9.4618,-9.4618,-9.4618,-9.4169,-9.3691,-9.3272,-9.2374,-9.1506,-9.0638,-8.998,-8.8843,-8.7287,-8.5943,0.0,0.0,0.0,0.0,0.0,-7.586,-7.4547,-7.399,-7.1744,-7.0452,-6.9858,-6.9259,-6.9033,-6.8958,-6.9634,-6.9562,-6.9309,-6.9917,-6.8633,-6.6883,-6.6883,-6.6128,-6.5257,-6.5025,-6.5315,-6.5693,-6.5867,-6.6593,-6.7376,-6.7783,-6.8218,-6.8596,-6.877,-6.8683,-6.8189,-6.7086,-6.6709,-6.6244,-6.517,-6.4996,-6.4996,-6.4996,-6.4822,-6.4299,-6.3225,-6.2906,-6.2383,-6.1309,-6.1133,-6.0892,-6.0377,-5.9329,-5.8297,-5.7312,-5.5855,-5.4608,-5.3782,-5.2709,-5.1749,-5.1021,-5.0619,-5.0142,-4.959,-4.9414,-4.9138,-4.8825,-4.8184,-4.7631,-6.4105,-6.6328,-6.7749,-6.7618,-6.7307,-6.6423,-6.4474,-6.2645,-6.1115,-6.0234,-5.9634,-5.9203,-5.8947,-5.9737,-6.0475,-6.0475,-6.1942,-6.3707,0.0,0.0,0.0,-7.825,0.0,0.0,0.0,0.0,0.0,0.0,0.0,0.0,0.0,0.0,-9.4499,-9.4229,-9.381,-9.3332,-9.2853,-9.1776,-9.0824,-9.0001,-8.8867,-8.7563,-8.6151,-8.4516,0.0,0.0,0.0,0.0,0.0,-7.4959,-7.3559,-7.2819,-7.0707,-6.9409,-6.8731,-6.8198,-6.8122,-6.8351,-6.9033,-6.9122,-6.9038,-6.9448,-6.819,-6.6476,-6.6244,-6.5606,-6.4996,-6.4996,-6.5257,-6.5693,-6.6157,-6.6883,-6.7638,-6.8131,-6.8538,-6.8828,-6.8828,-6.8828,-6.8509,-6.7463,-6.7057,-6.6564,-6.5519,-6.5141,-6.4996,-6.4996,-6.4793,-6.4241,-6.3225,-6.2877,-6.2325,-6.1309,-6.1193,-6.0952,-6.0255,-5.964,-5.8739,-5.7597,-5.634,-5.5153,-5.4241,-5.3191,-5.2287,-5.1599,-5.1021,-5.0469,-4.9916,-4.969,-4.9414,-4.9063,-4.851,-4.7933,0.0,-6.4108,-6.5174,-6.5592,-6.5571,-6.5095,-6.384,-6.309,0.0,-6.0951,-6.0909,-6.0745,-5.9488,-6.0296,-6.1194,-6.1253,-6.2391,-6.4186,0.0,-7.0171,0.0,0.0,-8.5581,0.0,0.0,0.0,0.0,0.0,0.0,0.0,0.0,0.0,-9.4229,-9.3541,-9.3421,-9.2793,-9.1566,-9.0824,-8.9941,-8.8753,-8.6942,-8.5721,-8.5023,-8.2635,0.0,0.0,0.0,0.0,0.0,-7.3927,-7.215,-7.1221,-6.9523,-6.8198,-6.7121,-6.7121,-6.7326,-6.7761,-6.8192,-6.8596,-6.8825,-6.8539,-6.7324,-6.5809,-6.517,-6.4996,-6.4996,-6.4996,-6.5054,-6.5402,-6.6564,-6.6941,-6.7318,-6.8538,-6.8828,-6.8828,-6.8828,-6.8828,-6.8625,-6.8015,-6.7347,-6.668,-6.6041,-6.5402,-6.4996,-6.4996,-6.4444,-6.3806,-6.3167,-6.2499,-6.1861,-6.1251,-6.1193,-6.0952,-6.0316,-6.0194,-5.955,-5.8262,-5.7184,-5.592,-5.4578,-5.3861,-5.3063,-5.2051,-5.1448,-5.0896,-5.0368,-4.9841,-4.959,-4.959,-4.9038,-4.846,-6.1312,0.0,-6.4341,-6.471,-6.5099,-6.5223,0.0,-6.3414,-6.2724,-6.1918,-6.1407,-6.1014,-6.0715,-6.1313,-6.2032,-6.254,-6.4126,-6.6071,-6.8226,0.0,0.0,-8.3906,0.0,0.0,0.0,0.0,0.0,0.0,0.0,0.0,0.0,0.0,-9.3511,-9.2853,-9.1498,-9.0842,-9.0878,-8.9888,-8.8479,-8.6763,-8.5936,-8.4504,-8.2506,-8.1469,0.0,0.0,0.0,0.0,-7.4848,-7.2696,-7.1061,-6.9692,-6.7878,-6.6601,-6.5739,-6.545,-6.5477,-6.5885,-6.655,-6.7266,-6.782,-6.74,-6.6693,-6.5809,-6.517,-6.4996,-6.4996,-6.4996,-6.5693,-6.6506,-6.6796,-6.7609,-6.845,-6.8741,-6.8828,-6.8828,-6.8828,-6.8828,-6.8625,-6.8015,-6.7347,-6.668,-6.6041,-6.5402,-6.4996,-6.4996,-6.4444,-6.3806,-6.3167,-6.2499,-6.1861,-6.1251,-6.1193,-6.1013,-6.0621,-6.0104,-5.9239,-5.788,-5.6823,-5.571,-5.4578,-5.3861,-5.2886,-5.1498,-5.0494,-4.9916,-4.9791,-4.9665,-4.959,-4.959,-4.9038,-4.846,-6.0835,-6.2074,-6.3268,-6.3742,-6.4159,-6.4249,-6.3679,-6.3318,-6.2899,-6.2241,-6.2271,-6.2271,-6.1672,-6.2839,-6.3917,-6.3947,-6.5892,0.0,0.0,0.0,-8.1991,0.0,0.0,0.0,0.0,0.0,0.0,0.0,0.0,0.0,0.0,0.0,-9.2695,-9.1571,-9.0307,-8.9739,-8.9858,-8.8166,-8.6713,-8.5516,-8.4331,-8.277,-8.0971,-7.9968,0.0,0.0,0.0,0.0,-7.2857,-7.0837,-6.9316,-6.808,-6.6131,-6.4953,-6.4321,-6.4062,-6.4404,-6.5093,-6.5609,-6.6174,-6.6725,-6.6487,-6.6012,-6.5431,-6.5083,-6.4996,-6.4996,-6.4996,-6.5693,-6.6506,-6.6796,-6.7638,-6.8392,-6.8392,-6.8392,-6.8305,-6.7986,-6.7928,-6.7841,-6.7492,-6.6883,-6.6331,-6.5983,-6.5402,-6.4996,-6.4996,-6.4183,-6.3486,-6.3138,-6.2267,-6.1542,-6.1222,-6.1193,-6.1073,-6.0742,-6.0255,-5.9488,-5.8451,-5.7211,-5.6105,-5.502,-5.4174,-5.2945,-5.1297,-5.0419,-4.9841,-4.959,-4.959,-4.959,-4.959,-4.9289,-4.8711,-6.0745,-6.1583,-6.2271,-6.3019,-6.3288,-6.3378,-6.3378,-6.3378,-6.3228,-6.266,-6.3408,-6.3887,-6.3019,-6.4665,0.0,0.0,0.0,0.0,0.0,0.0,0.0,0.0,0.0,0.0,0.0,0.0,0.0,0.0,0.0,0.0,0.0,0.0,0.0,-9.0238,-8.9301,-8.8733,-8.838,-8.6313,-8.4957,-8.417,-8.2422,-8.0959,-7.9751,-7.8175,-7.6838,0.0,0.0,0.0,-7.0914,-6.8845,-6.7374,-6.616,-6.4401,-6.346,-6.3015,-6.3025,-6.3644,-6.4674,-6.4988,-6.539,-6.566,-6.5839,-6.5489,-6.4996,-6.4996,-6.4996,-6.4996,-6.5112,-6.5577,-6.6215,-6.6883,-6.7463,-6.787,-6.787,-6.7812,-6.758,-6.6999,-6.6883,-6.6883,-6.6883,-6.636,-6.5925,-6.5925,-6.5402,-6.4967,-6.4851,-6.3835,-6.3051,-6.2964,-6.1919,-6.1193,-6.1193,-6.1193,-6.1073,-6.0802,-6.0438,-5.9948,-5.9392,-5.798,-5.6639,-5.5353,-5.4237,-5.2851,-5.1172,-5.0594,-5.0067,-4.959,-4.959,-4.959,-4.959,-4.959,-4.9038,-6.0745,-6.1583,-6.2391,-6.3558,-6.4306,-6.4725,-6.4725,-6.4725,-6.4695,0.0,-6.4725,0.0,0.0,-6.6783,-6.7998,0.0,0.0,0.0,0.0,0.0,0.0,0.0,0.0,0.0,0.0,0.0,0.0,0.0,0.0,0.0,0.0,0.0,0.0,-8.9445,-8.793,-8.6589,-8.5498,-8.5094,-8.3753,-8.1449,-8.0871,-7.9383,-7.7289,-7.6569,-7.5364,0.0,0.0,-7.0809,-6.9074,-6.7665,-6.5817,-6.3769,-6.3086,-6.2491,-6.2084,-6.2375,-6.2815,-6.3439,-6.4791,-6.5199,-6.5154,-6.5694,-6.5489,-6.4996,-6.4996,-6.4996,-6.5112,-6.5635,-6.6244,-6.6883,-6.7551,-6.7812,-6.787,-6.787,-6.7463,-6.6999,-6.6912,-6.6883,-6.6883,-6.6883,-6.636,-6.5925,-6.5925,-6.5402,-6.4793,-6.427,-6.3574,-6.2877,-6.2325,-6.1629,-6.1193,-6.1193,-6.1193,-6.1193,-6.1133,-6.056,-6.0194,-6.0071,-5.8487,-5.6542,-5.4051,-5.2818,-5.1661,-5.0569,-5.0017,-4.9665,-4.959,-4.959,-4.959,-4.959,-4.959,-4.9264,-6.0745,-6.1583,-6.2423,-6.3891,-6.4487,-6.4815,-6.5172,-6.5408,-6.5524,-6.5524,-6.6293,0.0,0.0,0.0,-7.0933,-7.4387,0.0,0.0,0.0,0.0,0.0,0.0,0.0,0.0,0.0,0.0,0.0,0.0,0.0,0.0,0.0,0.0,0.0,0.0,-8.6055,-8.4698,-8.3521,-8.2559,-8.1426,-8.0236,-7.9681,-7.8228,-7.6114,-7.5044,-7.3606,-7.1805,0.0,-6.8371,-6.6817,-6.5502,-6.4108,-6.2799,-6.1793,-6.1132,-6.0965,-6.1773,-6.2565,-6.3301,-6.4635,-6.4907,-6.4785,-6.5238,-6.5228,-6.4996,-6.4996,-6.4996,-6.5112,-6.5751,-6.6389,-6.7028,-6.7696,-6.787,-6.7783,-6.7434,-6.6854,-6.6273,-6.5925,-6.5867,-6.5867,-6.5867,-6.5606,-6.5431,-6.5431,-6.488,-6.4386,-6.4033,-6.3196,-6.2441,-6.2122,-6.1571,-6.1193,-6.1193,-6.1193,-6.1193,-6.1193,-6.0742,-6.001,-5.8927,-5.7487,-5.5751,-5.3789,-5.2174,-5.1023,-5.0419,-4.9866,-4.959,-4.959,-4.959,-4.959,-4.959,-4.959,-4.9289,-6.0454,-6.135,-6.2308,-6.3595,-6.4455,-6.5199,-6.5907,-6.6428,-6.6858,-6.7005,-6.836,0.0,0.0,-7.1629,0.0,0.0,0.0,0.0,0.0,0.0,0.0,0.0,0.0,0.0,0.0,0.0,0.0,0.0,0.0,0.0,0.0,0.0,0.0,0.0,-8.4391,-8.3159,-8.2051,-8.0277,-7.9249,-7.8933,-7.8301,-7.6807,-7.4698,-7.327,-7.1599,-6.9514,-6.7744,-6.6134,-6.4714,-6.3586,-6.2647,-6.1767,-6.0698,-6.0327,-6.05,-6.1585,-6.2452,-6.3225,-6.415,-6.4246,-6.4115,-6.4434,-6.4648,-6.4764,-6.4764,-6.488,-6.5112,-6.5751,-6.6273,-6.6825,-6.7463,-6.7551,-6.7289,-6.6767,-6.6186,-6.5577,-6.5083,-6.4996,-6.4996,-6.4996,-6.4996,-6.4996,-6.4996,-6.4444,-6.3917,-6.3835,-6.2848,-6.2035,-6.189,-6.1483,-6.1193,-6.1193,-6.1193,-6.1193,-6.1073,-6.0892,-5.9948,-5.8135,-5.6832,-5.5377,-5.3778,-5.2102,-5.089,-5.0218,-4.9816,-4.959,-4.959,-4.959,-4.959,-4.959,-4.959,-4.9364,-5.9636,-6.0711,-6.1725,-6.2175,-6.4304,-6.6622,-6.7516,-6.869,-6.9685,-7.0333,-7.1011,-7.1865,-7.3072,-7.6473,0.0,0.0,0.0,0.0,0.0,0.0,0.0,0.0,0.0,0.0,0.0,0.0,0.0,0.0,0.0,0.0,0.0,0.0,0.0,0.0,0.0,-8.1964,-8.0726,-7.9282,-7.7912,-7.6748,-7.6073,-7.4485,-7.2027,-7.1029,-6.9463,-6.7638,-6.6108,-6.4688,-6.3379,-6.285,-6.1461,-5.9736,-5.997,-6.0547,-6.1308,-6.1895,-6.2369,-6.2858,-6.3106,-6.2956,-6.2818,-6.3101,-6.3632,-6.4033,-6.4033,-6.4532,-6.5112,-6.5751,-6.5889,-6.6157,-6.6796,-6.6506,-6.607,-6.6012,-6.5519,-6.5025,-6.4996,-6.4996,-6.4996,-6.4996,-6.4996,-6.4996,-6.4996,-6.4444,-6.3835,-6.3254,-6.2558,-6.189,-6.1338,-6.1222,-6.1193,-6.1193,-6.1193,-6.1073,-6.0742,-6.0681,-6.0255,-5.9142,-5.7904,-5.6169,-5.3979,-5.2606,-5.1203,-4.9665,-4.9615,-4.959,-4.959,-4.959,-4.959,-4.959,-4.959,-4.9565,-5.9299,-6.0016,-6.1023,-6.2115,-6.4141,-6.6172,-6.7337,-6.9337,-7.1188,-7.1761,-7.3045,-7.4182,-7.4707,0.0,0.0,0.0,0.0,0.0,0.0,0.0,0.0,0.0,0.0,0.0,0.0,0.0,0.0,0.0,0.0,0.0,0.0,0.0,0.0,0.0,0.0,-7.9324,-7.7876,-7.6026,-7.4191,-7.2638,-7.3141,-7.2351,-7.023,-6.8545,-6.7137,-6.5834,-6.426,-6.3188,-6.24,-6.118,-6.0216,-5.9485,-5.9359,-5.9757,-6.0602,-6.1084,-6.1779,-6.2445,-6.2663,-6.2812,-6.2923,-6.3047,-6.3516,-6.3975,-6.3975,-6.4473,-6.5025,-6.5286,-6.5344,-6.5577,-6.6622,-6.6418,-6.6041,-6.6418,-6.6041,-6.5693,-6.607,-6.6157,-6.6041,-6.5635,-6.5577,-6.546,-6.5054,-6.4125,-6.337,-6.3138,-6.2209,-6.1454,-6.1222,-6.1193,-6.1193,-6.1193,-6.1193,-6.1133,-6.1013,-6.1013,-6.0681,-5.9887,-5.8215,-5.633,-5.431,-5.2964,-5.1588,-4.9937,-4.9912,-4.9783,-4.959,-4.959,-4.959,-4.959,-4.959,-4.959,-5.8588,-5.9209,-6.015,-6.1255,-6.3553,-6.5886,-6.7371,-7.0058,-7.2631,-7.3879,-7.5504,-7.6637,-7.6462,-7.7827,0.0,0.0,0.0,0.0,0.0,0.0,0.0,0.0,0.0,0.0,0.0,0.0,0.0,0.0,0.0,0.0,0.0,0.0,0.0,0.0,0.0,0.0,-7.5017,-7.3076,-7.1285,-6.9497,-6.9562,-6.9107,-6.8088,-6.639,-6.5146,-6.4133,-6.2763,-6.1756,-6.1115,-5.996,-5.9311,-5.9007,-5.8854,-5.9289,-6.005,-6.0673,-6.1321,-6.1982,-6.2169,-6.2365,-6.2499,-6.2499,-6.2906,-6.3457,-6.3661,-6.4183,-6.4735,-6.4938,-6.4996,-6.5199,-6.6041,-6.5954,-6.5751,-6.6186,-6.6099,-6.6041,-6.6476,-6.6738,-6.6738,-6.6302,-6.607,-6.5809,-6.5373,-6.4067,-6.308,-6.308,-6.2006,-6.1193,-6.1193,-6.1193,-6.1193,-6.1193,-6.1193,-6.1193,-6.1193,-6.1193,-6.0952,-6.0377,-5.8833,-5.6955,-5.479,-5.3472,-5.2007,-5.0295,-5.0168,-4.9937,-4.959,-4.959,-4.959,-4.959,-4.959,-4.959,-5.7472,-5.8204,-5.9159,-5.9228,-6.236,-6.6017,-6.792,-7.1043,-7.4343,-7.6898,-7.8436,-7.9133,-7.8524,-7.9452,0.0,0.0,0.0,0.0,0.0,0.0,0.0,0.0,0.0,0.0,0.0,0.0,0.0,0.0,0.0,0.0,0.0,0.0,0.0,0.0,0.0,0.0,-7.2315,-7.085,-6.9471,-6.8044,-6.5401,-6.4643,-6.5537,-6.4592,-6.3626,-6.256,-6.1551,-6.0537,-5.9483,-5.9483,-5.8855,-5.7921,-5.8471,-5.9224,-6.0004,-6.0681,-6.1273,-6.1603,-6.1632,-6.1412,-6.1193,-6.1193,-6.16,-6.2209,-6.2877,-6.3516,-6.4154,-6.4793,-6.4967,-6.4967,-6.4996,-6.4996,-6.4996,-6.4996,-6.5489,-6.5925,-6.5954,-6.6447,-6.6883,-6.6883,-6.636,-6.5925,-6.5925,-6.4357,-6.3109,-6.308,-6.2006,-6.1222,-6.1193,-6.1193,-6.1193,-6.1193,-6.1193,-6.1193,-6.1193,-6.1193,-6.1073,-6.0681,-5.9747,-5.8034,-5.5516,-5.4199,-5.2612,-5.0677,-5.0295,-4.9912,-4.959,-4.959,-4.959,-4.959,-4.959,-4.959,-5.7107,-5.806,-5.9403,-6.0279,0.0,0.0,0.0,-7.2663,0.0,0.0,-7.9423,-7.9685,-7.8611,-7.9046,0.0,0.0,0.0,0.0,0.0,0.0,0.0,0.0,0.0,0.0,0.0,0.0,0.0,0.0,0.0,0.0,0.0,0.0,0.0,0.0,0.0,0.0,-6.87,-6.7645,-6.6361,-6.4837,-6.3702,-6.3549,-6.4082,-6.2738,-6.1886,-6.1525,-6.049,-5.9809,-5.946,-5.8399,-5.8002,-5.807,-5.8343,-5.8934,-5.9718,-6.0449,-6.0836,-6.103,-6.1212,-6.1278,-6.1193,-6.1193,-6.16,-6.2122,-6.2325,-6.2848,-6.3516,-6.4125,-6.4328,-6.4415,-6.488,-6.4996,-6.5112,-6.5548,-6.5809,-6.6041,-6.6506,-6.6738,-6.6738,-6.6302,-6.607,-6.5809,-6.5344,-6.4415,-6.3603,-6.3167,-6.2383,-6.1687,-6.1251,-6.1193,-6.1193,-6.1193,-6.1193,-6.1193,-6.1193,-6.1193,-6.087,-6.0019,-5.9757,-5.8608,-5.6532,-5.5435,-5.3855,-5.1685,-5.1372,-5.0741,-4.9912,-4.9719,-4.959,-4.959,-4.959,-4.959,-5.6939,-5.767,0.0,-6.0604,-6.3631,-6.7386,-7.1696,0.0,0.0,0.0,-8.0207,-8.0265,-7.8988,-7.9046,0.0,0.0,0.0,0.0,0.0,0.0,0.0,0.0,0.0,0.0,0.0,0.0,0.0,0.0,0.0,0.0,0.0,0.0,0.0,0.0,0.0,0.0,-6.5663,-6.5175,-6.4149,-6.2573,-6.1878,-6.1651,-6.189,-6.0972,-6.0387,-6.0136,-5.9006,-5.8479,-5.8378,-5.7661,-5.7564,-5.7902,-5.856,-5.9155,-5.9836,-6.0455,-6.0782,-6.0952,-6.1133,-6.1193,-6.1193,-6.1193,-6.1454,-6.1774,-6.2035,-6.2383,-6.2819,-6.3486,-6.3661,-6.3806,-6.4444,-6.4619,-6.4764,-6.5402,-6.5751,-6.6041,-6.6418,-6.6709,-6.6767,-6.6389,-6.6099,-6.5809,-6.5431,-6.4619,-6.3922,-6.3516,-6.2674,-6.189,-6.128,-6.1193,-6.1193,-6.1193,-6.1193,-6.1193,-6.1193,-6.0961,-6.0553,-5.991,-5.9419,-5.8604,-5.7316,-5.6205,-5.4622,-5.2553,-5.2032,-5.1179,-4.9964,-4.9647,-4.9291,-4.8912,-4.8912,-4.8912,-5.6785,-5.7225,0.0,-6.0425,-6.3709,0.0,-7.3757,-7.7058,-7.918,-7.9905,0.0,-8.065,-7.9432,0.0,0.0,0.0,0.0,0.0,0.0,0.0,0.0,0.0,0.0,0.0,0.0,0.0,0.0,0.0,0.0,0.0,0.0,0.0,0.0,0.0,0.0,0.0,-6.3346,-6.327,-6.2472,0.0,-5.9935,-5.9332,-5.9207,-5.9307,-5.9031,-5.8428,-5.7349,-5.6791,-5.6815,-5.7266,-5.7482,-5.7659,-5.8971,-5.978,-6.0316,-6.056,-6.0892,-6.1193,-6.1193,-6.1193,-6.1193,-6.1193,-6.1193,-6.1309,-6.1832,-6.2006,-6.2151,-6.2819,-6.2993,-6.3138,-6.3777,-6.3888,-6.4096,-6.4677,-6.5344,-6.5838,-6.5838,-6.6302,-6.6709,-6.6709,-6.6244,-6.5838,-6.5838,-6.488,-6.4033,-6.3975,-6.2935,-6.189,-6.1338,-6.1222,-6.1193,-6.1193,-6.1193,-6.1193,-6.1193,-6.0584,-6.0177,-6.0119,-5.8958,-5.8089,-5.7744,-5.6578,-5.5109,-5.3322,-5.2562,-5.1407,-4.9893,-4.9404,-4.8749,-4.7908,-4.7908,-4.7908,-5.6497,-5.7244,0.0,0.0,-6.528,-7.004,-7.3472,-7.5392,-7.6828,-7.8287,-7.9083,-7.9255,0.0,0.0,0.0,0.0,0.0,0.0,0.0,0.0,0.0,0.0,0.0,0.0,0.0,0.0,0.0,0.0,0.0,0.0,0.0,0.0,0.0,0.0,0.0,-6.2088,-6.1702,-6.1248,-6.0591,0.0,-5.9207,-5.8202,-5.6947,-5.7851,-5.77,-5.6721,-5.6043,-5.5989,-5.6346,-5.6578,-5.7437,-5.8676,-5.9129,-5.9815,-6.0621,-6.0681,-6.0892,-6.1193,-6.1193,-6.1193,-6.1193,-6.1193,-6.1193,-6.1222,-6.1338,-6.1396,-6.1513,-6.2122,-6.2296,-6.247,-6.3109,-6.3283,-6.3341,-6.3457,-6.4357,-6.5199,-6.5199,-6.5286,-6.5402,-6.5402,-6.5286,-6.5199,-6.5199,-6.4967,-6.4619,-6.4125,-6.2935,-6.2035,-6.1919,-6.1483,-6.1193,-6.1193,-6.1193,-6.1193,-6.1193,-6.0584,-6.0003,-5.951,-5.8755,-5.7973,-5.711,-5.6852,-5.5988,-5.4616,-5.3256,-5.1903,-5.0549,-4.9245,-4.8345,-4.7908,-4.7908,-4.7908,0.0,0.0,0.0,-6.1619,0.0,-6.9466,-7.156,-7.3107,-7.4338,-7.5407,0.0,0.0,0.0,0.0,0.0,0.0,0.0,0.0,0.0,0.0,0.0,0.0,0.0,0.0,0.0,0.0,0.0,0.0,0.0,0.0,0.0,0.0,0.0,0.0,0.0,-6.0638,-6.0387,-5.9834,-5.9131,-5.8303,-5.7775,-5.6796,-5.544,-5.6043,-5.5993,-5.5415,-5.5329,-5.544,-5.5848,-5.6528,-5.7628,-5.8876,-5.9442,-6.0194,-6.0952,-6.0952,-6.1073,-6.1193,-6.1193,-6.1193,-6.1193,-6.1193,-6.1193,-6.1193,-6.1193,-6.1193,-6.128,-6.1571,-6.1658,-6.1803,-6.2441,-6.2616,-6.2703,-6.3022,-6.3603,-6.4154,-6.4473,-6.4532,-6.4619,-6.4938,-6.4996,-6.4996,-6.4996,-6.4996,-6.4764,-6.4062,-6.3196,-6.2441,-6.2122,-6.1571,-6.1193,-6.1193,-6.1193,-6.1193,-6.1193,-6.0584,-5.9945,-5.9335,-5.8668,-5.7943,-5.7135,-5.7078,-5.6509,-5.5233,-5.4134,-5.2685,-5.0827,-4.9541,-4.8396,-4.7399,-4.7216,-4.7129,0.0,0.0,0.0,-6.242,-6.545,0.0,-6.9107,-7.0556,0.0,0.0,0.0,0.0,0.0,0.0,0.0,0.0,0.0,0.0,0.0,0.0,0.0,0.0,0.0,0.0,0.0,0.0,0.0,0.0,0.0,0.0,0.0,0.0,0.0,0.0,0.0,-5.9633,-5.9081,-5.8554,-5.7775,-5.6746,-5.6093,-5.529,-5.4411,-5.4235,-5.4235,-5.4482,-5.4632,-5.4901,-5.5299,-5.6571,-5.7733,-5.8703,-5.9749,-6.0595,-6.1193,-6.1193,-6.1193,-6.1193,-6.1193,-6.1193,-6.1193,-6.1193,-6.1193,-6.1193,-6.1193,-6.1193,-6.1193,-6.1193,-6.1193,-6.1309,-6.1803,-6.1948,-6.2064,-6.2645,-6.2761,-6.2964,-6.3719,-6.3888,-6.4183,-6.4735,-6.4909,-6.4996,-6.4996,-6.4996,-6.4793,-6.427,-6.3574,-6.2906,-6.2325,-6.1629,-6.1251,-6.1338,-6.1367,-6.1367,-6.1367,-6.0758,-6.0119,-5.948,-5.8726,-5.8058,-5.7507,-5.7361,-5.6794,-5.5787,-5.4946,-5.3394,-5.1035,-5.0033,-4.8618,-4.684,-4.6541,-4.6386,0.0,0.0,0.0,0.0,0.0,0.0,0.0,0.0,0.0,0.0,0.0,0.0,0.0,0.0,0.0,0.0,0.0,0.0,0.0,0.0,0.0,0.0,0.0,0.0,0.0,0.0,0.0,0.0,0.0,0.0,0.0,0.0,-5.9508,-5.9056,-5.8504,0.0,-5.7374,-5.6821,-5.6219,-5.5591,-5.4536,-5.3959,-5.3783,-5.2854,-5.2929,-5.3828,-5.3513,-5.3901,-5.4773,-5.5618,-5.7113,-5.8852,-5.9517,-6.0372,-6.1193,-6.1193,-6.1193,-6.1193,-6.1193,-6.1193,-6.1193,-6.1193,-6.1193,-6.1193,-6.1193,-6.1193,-6.1193,-6.1193,-6.1193,-6.1222,-6.1309,-6.1309,-6.1338,-6.1425,-6.1454,-6.1774,-6.2964,-6.3661,-6.4004,-6.4154,-6.4619,-6.4996,-6.4996,-6.4996,-6.4967,-6.488,-6.3864,-6.3051,-6.2964,-6.1919,-6.1396,-6.1919,-6.1977,-6.1977,-6.1977,-6.1425,-6.0787,-6.0119,-5.8958,-5.8261,-5.8174,-5.7623,-5.7078,-5.6709,-5.528,-5.3597,-5.1688,-5.0179,-4.8681,-4.7146,-4.684,-4.6566,-5.2917,0.0,0.0,0.0,0.0,0.0,0.0,0.0,0.0,0.0,0.0,0.0,0.0,0.0,0.0,0.0,0.0,0.0,0.0,0.0,0.0,0.0,0.0,0.0,0.0,0.0,0.0,0.0,0.0,0.0,0.0,-5.8905,-5.8504,-5.8278,-5.7399,0.0,-5.657,-5.5717,-5.5013,-5.4436,-5.3632,-5.3105,-5.2804,-5.2327,-5.2488,-5.3096,-5.2956,-5.3492,-5.4501,-5.5624,-5.6915,-5.8317,-5.9319,-6.0054,-6.07,-6.1048,-6.1193,-6.1193,-6.1193,-6.1193,-6.1193,-6.1193,-6.1193,-6.1193,-6.1193,-6.1193,-6.1193,-6.1193,-6.1193,-6.1193,-6.1193,-6.1193,-6.1193,-6.1193,-6.1193,-6.1338,-6.1919,-6.2499,-6.3167,-6.383,-6.427,-6.4561,-6.4938,-6.4996,-6.4851,-6.4502,-6.369,-6.2964,-6.2587,-6.1745,-6.1309,-6.1571,-6.189,-6.2093,-6.2093,-6.1861,-6.1425,-6.0787,-5.9887,-5.9045,-5.8348,-5.8029,-5.7596,-5.688,-5.5908,-5.4481,-5.2559,-5.1035,-4.939,-4.7677,-4.7078,-4.6626,0.0,0.0,0.0,0.0,0.0,0.0,0.0,0.0,0.0,0.0,0.0,0.0,0.0,0.0,0.0,0.0,0.0,0.0,0.0,0.0,0.0,0.0,0.0,0.0,0.0,0.0,0.0,0.0,0.0,0.0,-5.8127,-5.77,-5.7349,-5.7047,-5.6244,-5.5717,-5.5566,-5.4637,-5.3858,-5.3281,-5.2904,-5.2427,-5.1875,-5.1666,-5.1782,-5.2195,-5.2479,-5.3275,-5.4521,-5.5524,-5.6697,-5.7931,-5.9123,-5.9825,-6.0264,-6.0961,-6.1193,-6.1193,-6.1193,-6.1193,-6.1193,-6.1193,-6.1193,-6.1193,-6.1193,-6.1193,-6.1193,-6.1193,-6.1193,-6.1193,-6.1193,-6.1193,-6.1193,-6.1193,-6.1193,-6.1251,-6.1396,-6.1774,-6.2441,-6.3574,-6.3859,-6.4183,-6.4677,-6.4764,-6.459,-6.4125,-6.3341,-6.2674,-6.2151,-6.1571,-6.1251,-6.1396,-6.1977,-6.2354,-6.2354,-6.2499,-6.2267,-6.1483,-6.0816,-5.9887,-5.861,-5.8406,-5.7886,-5.6993,-5.6423,-5.5166,-5.333,-5.1859,-5.0126,-4.8204,-4.729,-4.6661,0.0,0.0,0.0,0.0,0.0,0.0,0.0,0.0,0.0,0.0,0.0,0.0,0.0,0.0,0.0,0.0,0.0,0.0,0.0,0.0,0.0,0.0,0.0,0.0,0.0,0.0,0.0,0.0,0.0,0.0,-5.6394,-5.6319,-5.5817,-5.4762,-5.4687,-5.4386,-5.3833,-5.3281,-5.2729,-5.2176,-5.2151,-5.185,-5.1297,-5.0543,-5.0551,-5.1134,-5.1737,-5.3085,-5.478,-5.4984,-5.6136,-5.7887,-5.89,-5.9684,-6.0264,-6.0961,-6.1193,-6.1193,-6.1193,-6.1193,-6.1193,-6.1193,-6.1193,-6.1193,-6.1193,-6.1193,-6.1193,-6.1193,-6.1193,-6.1193,-6.1193,-6.1193,-6.1193,-6.1193,-6.1193,-6.1367,-6.1919,-6.2064,-6.2296,-6.2993,-6.3632,-6.3975,-6.4033,-6.4033,-6.4004,-6.3975,-6.2964,-6.2122,-6.2093,-6.1571,-6.1425,-6.1977,-6.2645,-6.3051,-6.3051,-6.3603,-6.3399,-6.2122,-6.1483,-6.0584,-5.9306,-5.8639,-5.8,-5.7303,-5.668,-5.551,-5.3669,-5.2468,-5.0712,-4.8526,-4.7593,-4.6874,0.0,0.0,0.0,0.0,0.0,0.0,0.0,0.0,0.0,0.0,0.0,0.0,0.0,0.0,0.0,0.0,0.0,0.0,0.0,0.0,0.0,0.0,0.0,0.0,0.0,0.0,0.0,0.0,0.0,0.0,-5.5189,-5.5164,-5.4988,-5.4587,-5.421,-5.3582,-5.2678,-5.2151,-5.1774,-5.1574,-5.1197,-5.0745,-5.0167,-4.999,-5.0095,-5.0594,-5.1195,-5.2212,-5.3523,-5.454,-5.5623,-5.6764,-5.861,-5.9422,-5.9742,-6.0816,-6.1193,-6.1193,-6.1193,-6.1193,-6.1193,-6.1193,-6.1193,-6.1193,-6.1193,-6.1193,-6.1193,-6.1193,-6.1193,-6.1193,-6.1193,-6.1193,-6.1193,-6.1193,-6.1193,-6.1251,-6.1483,-6.1513,-6.1716,-6.2325,-6.2645,-6.2935,-6.337,-6.3428,-6.3283,-6.2848,-6.2383,-6.1948,-6.1571,-6.1338,-6.128,-6.1483,-6.2064,-6.2616,-6.3051,-6.3312,-6.3225,-6.2761,-6.2122,-6.1193,-5.9916,-5.9277,-5.8639,-5.7942,-5.7138,-5.6108,-5.4856,-5.301,-5.1367,-4.9805,-4.827,-4.7172,-4.7741,0.0,0.0,0.0,0.0,0.0,0.0,0.0,0.0,0.0,0.0,0.0,0.0,0.0,0.0,0.0,0.0,0.0,0.0,0.0,0.0,0.0,0.0,0.0,0.0,0.0,0.0,0.0,0.0,0.0,-5.431,-5.4285,-5.411,-5.3758,-5.3181,-5.2553,-5.1825,-5.1272,-5.0896,-5.0695,-5.0142,-4.9629,-4.9203,-4.9274,-4.9585,-5.0214,-5.0824,-5.1871,-5.3244,-5.4233,-5.5192,-5.627,-5.8233,-5.9103,-5.9451,-6.0729,-6.1193,-6.1193,-6.1193,-6.1193,-6.1193,-6.1193,-6.1193,-6.1193,-6.1193,-6.1193,-6.1193,-6.1193,-6.1193,-6.1193,-6.1193,-6.1193,-6.1193,-6.1193,-6.1193,-6.1193,-6.1193,-6.1193,-6.1309,-6.1716,-6.1948,-6.2238,-6.2674,-6.2761,-6.2616,-6.2151,-6.1919,-6.1658,-6.1251,-6.1193,-6.1193,-6.1193,-6.1745,-6.2267,-6.2732,-6.2964,-6.2993,-6.2761,-6.2325,-6.1513,-6.0264,-5.9626,-5.8987,-5.8319,-5.7397,-5.6565,-5.5794,-5.3549,-5.1823,-5.0416,-4.8551,-4.729,0.0,0.0,0.0,0.0,0.0,0.0,0.0,0.0,0.0,0.0,0.0,0.0,0.0,0.0,0.0,0.0,0.0,0.0,0.0,0.0,0.0,0.0,0.0,0.0,0.0,0.0,0.0,0.0,0.0,-5.426,-5.3708,-5.3658,-5.3181,-5.2126,-5.1523,-5.1222,-5.1222,-5.0645,-5.0067,-4.954,-4.8987,-4.8624,-4.8379,-4.8463,-4.9042,-4.9929,-5.065,-5.2128,-5.409,-5.4041,-5.4941,-5.652,-5.7768,-5.8697,-5.9451,-6.07,-6.1164,-6.1193,-6.1193,-6.1193,-6.1193,-6.1193,-6.1193,-6.1193,-6.1193,-6.1193,-6.1193,-6.1193,-6.1193,-6.1193,-6.1193,-6.1193,-6.1193,-6.1193,-6.1193,-6.1193,-6.1193,-6.1193,-6.1193,-6.1193,-6.1658,-6.2064,-6.2064,-6.2064,-6.2064,-6.2064,-6.1571,-6.1193,-6.1193,-6.1193,-6.1193,-6.1193,-6.1716,-6.2064,-6.2093,-6.2703,-6.279,-6.2122,-6.2093,-6.1542,-6.0264,-5.9626,-5.8987,-5.8348,-5.7397,-5.6766,-5.6394,-5.3974,-5.2054,-5.0501,-4.8609,-4.7172,-4.7436,0.0,0.0,0.0,0.0,0.0,0.0,0.0,0.0,0.0,0.0,0.0,0.0,0.0,0.0,0.0,0.0,0.0,0.0,0.0,0.0,0.0,0.0,0.0,0.0,0.0,0.0,0.0,0.0,-5.3306,-5.3155,-5.2754,-5.2226,-5.1523,-5.0569,-5.0067,-5.0067,-4.9088,-4.8535,-4.836,-4.7832,-4.7814,-4.816,-4.8465,-4.9169,-5.0313,-5.1404,-5.242,-5.3439,-5.3888,-5.4681,-5.5823,-5.7071,-5.829,-5.9393,-6.0177,-6.0787,-6.1193,-6.1193,-6.1193,-6.1193,-6.1193,-6.1193,-6.1193,-6.1193,-6.1193,-6.1193,-6.1193,-6.1193,-6.1193,-6.1193,-6.1193,-6.1193,-6.1193,-6.1193,-6.1193,-6.1193,-6.1193,-6.1193,-6.1193,-6.1338,-6.1454,-6.1454,-6.1454,-6.1454,-6.1454,-6.1309,-6.1193,-6.1193,-6.1193,-6.1193,-6.1193,-6.1338,-6.1629,-6.2064,-6.2267,-6.2296,-6.2093,-6.2093,-6.1745,-6.0961,-5.9887,-5.9219,-5.9016,-5.7856,-5.6908,-5.6394,-5.4431,-5.2875,-5.1734,-4.8969,-4.7349,-4.7854,-4.7496,-4.7434,-4.746,0.0,0.0,0.0,-4.9314,0.0,0.0,0.0,0.0,0.0,0.0,0.0,0.0,0.0,0.0,0.0,0.0,0.0,0.0,0.0,0.0,0.0,0.0,0.0,0.0,-5.2703,-5.2477,-5.2251,-5.1699,-5.1147,-5.0594,-4.9715,-4.9138,-4.8887,-4.7782,-4.723,-4.723,-4.6572,-4.6671,-4.7412,-4.8121,-4.9126,-5.0464,-5.1674,-5.2573,-5.3136,-5.3617,-5.4442,-5.5503,-5.6549,-5.7913,-5.9364,-5.9974,-6.0613,-6.1193,-6.1193,-6.1193,-6.1193,-6.1193,-6.1193,-6.1193,-6.1193,-6.1193,-6.1193,-6.1193,-6.1193,-6.1193,-6.1193,-6.1193,-6.1193,-6.1193,-6.1193,-6.1193,-6.1193,-6.1193,-6.1193,-6.1193,-6.1193,-6.1193,-6.1193,-6.1193,-6.1193,-6.1193,-6.1193,-6.1193,-6.1193,-6.1193,-6.1193,-6.1193,-6.1193,-6.1338,-6.1687,-6.1716,-6.1716,-6.1716,-6.1716,-6.1425,-6.0816,-5.9829,-5.9161,-5.89,-5.7741,-5.6736,-5.5823,-5.4516,-5.2852,-5.0898,-4.8694,-4.7349,-4.8495,-4.7736,-4.7146,-4.684,-4.6566,0.0,-4.6225,-4.7004,0.0,0.0,0.0,0.0,0.0,0.0,0.0,0.0,0.0,0.0,0.0,0.0,0.0,0.0,0.0,0.0,0.0,0.0,0.0,-5.2754,-5.2302,-5.1749,-5.1122,-5.0594,-5.0042,-4.9414,-4.8812,-4.8259,-4.7732,-4.6652,-4.6125,-4.6185,-4.5505,-4.5654,-4.6559,-4.7761,-4.9088,-5.0565,-5.172,-5.2541,-5.316,-5.3424,-5.4255,-5.5474,-5.6055,-5.7477,-5.9277,-5.9858,-6.0526,-6.1106,-6.1164,-6.1193,-6.1193,-6.1193,-6.1193,-6.1193,-6.1193,-6.1193,-6.1193,-6.1193,-6.1193,-6.1193,-6.1193,-6.1193,-6.1193,-6.1193,-6.1193,-6.1193,-6.1193,-6.1193,-6.1193,-6.1193,-6.1193,-6.1193,-6.1193,-6.1193,-6.1164,-6.1106,-6.1077,-6.1048,-6.099,-6.099,-6.099,-6.099,-6.099,-6.099,-6.099,-6.099,-6.099,-6.099,-6.099,-6.0729,-6.0119,-5.951,-5.89,-5.8319,-5.7311,-5.6222,-5.4998,-5.4262,-5.2321,-4.9293,-4.8257,-4.7434,-4.9244,-4.8262,-4.7468,-4.69,-4.6566,0.0,-4.5748,-4.615,0.0,0.0,0.0,0.0,0.0,0.0,0.0,0.0,0.0,0.0,0.0,0.0,0.0,0.0,0.0,0.0,0.0,0.0,-5.2076,-5.1624,-5.1498,-5.0996,-4.9967,-4.9816,-4.9289,-4.8259,-4.7305,-4.6728,-4.6627,-4.5497,-4.5062,-4.5378,-4.5642,-4.6252,-4.7174,-4.83,-4.9659,-5.1155,-5.1852,-5.2617,-5.3424,-5.3477,-5.4255,-5.5416,-5.5562,-5.6781,-5.8581,-5.9248,-5.9858,-6.0467,-6.1019,-6.1193,-6.1193,-6.1193,-6.1193,-6.1193,-6.1193,-6.1193,-6.1193,-6.1193,-6.1193,-6.1193,-6.1193,-6.1193,-6.1193,-6.1193,-6.1193,-6.1193,-6.1193,-6.1193,-6.1193,-6.1193,-6.1193,-6.1193,-6.1193,-6.1193,-6.1019,-6.0467,-6.0409,-6.0206,-5.9742,-5.9684,-5.9684,-5.9684,-5.9684,-5.9684,-5.9684,-5.9684,-5.9684,-5.9684,-5.9684,-5.9626,-5.948,-5.8842,-5.8435,-5.829,-5.7139,-5.5966,-5.4998,-5.3723,-5.2171,-5.0543,-4.8848,-4.8021,-5.0044,-4.879,-4.7586,-4.6959,-4.6339,0.0,0.0,-4.5271,-4.5397,0.0,0.0,0.0,0.0,0.0,0.0,0.0,0.0,0.0,0.0,0.0,0.0,0.0,0.0,0.0,0.0,0.0,-5.1348,-5.0494,-5.0489,-4.996,-4.8812,-4.8761,-4.8259,-4.7154,-4.6577,-4.605,-4.5472,-4.4817,-4.4618,-4.4903,-4.5326,-4.6053,-4.7082,-4.8236,-4.9518,-5.0823,-5.1713,-5.2486,-5.3065,-5.3384,-5.4255,-5.5416,-5.5416,-5.6607,-5.8377,-5.9045,-5.9684,-6.0293,-6.0961,-6.1193,-6.1135,-6.0816,-6.07,-6.0642,-6.0351,-6.0264,-6.0264,-6.0264,-6.0264,-6.0264,-6.0264,-6.0264,-6.0264,-6.0264,-6.0264,-6.0264,-6.0264,-6.0496,-6.07,-6.07,-6.0961,-6.1193,-6.1193,-6.1193,-6.0961,-6.0293,-6.0206,-5.9974,-5.9393,-5.9306,-5.9306,-5.9306,-5.9306,-5.9306,-5.9306,-5.9306,-5.9306,-5.9306,-5.9306,-5.9161,-5.8813,-5.8493,-5.7973,-5.734,-5.6566,-5.5734,-5.4758,-5.3416,-5.2287,-5.1339,-4.9758,-4.8833,-5.0559,-4.9001,-4.7468,-4.69,-4.6137,-4.5321,0.0,0.0,0.0,0.0,0.0,0.0,0.0,0.0,0.0,0.0,0.0,0.0,0.0,0.0,0.0,0.0,0.0,0.0,0.0,0.0,-5.0218,-4.9188,-4.9141,-4.8611,-4.7481,-4.7431,-4.7004,-4.6024,-4.5874,-4.5397,-4.4468,-4.4339,-4.4372,-4.4682,-4.5202,-4.598,-4.7026,-4.8224,-4.9303,-5.0364,-5.1517,-5.222,-5.2681,-5.3384,-5.4371,-5.5416,-5.5416,-5.652,-5.8203,-5.9016,-5.9597,-6.0148,-6.0932,-6.1106,-6.0932,-6.038,-6.0119,-5.9945,-5.9451,-5.9306,-5.9306,-5.9306,-5.9306,-5.9306,-5.9306,-5.9306,-5.9306,-5.9306,-5.9306,-5.9306,-5.9306,-5.9771,-6.0206,-6.0206,-6.0729,-6.1193,-6.1193,-6.1077,-6.0787,-6.0119,-5.9916,-5.9597,-5.8987,-5.89,-5.89,-5.89,-5.89,-5.89,-5.89,-5.89,-5.89,-5.89,-5.89,-5.8668,-5.8145,-5.8116,-5.757,-5.6423,-5.6193,-5.5613,-5.4556,-5.3522,-5.2501,-5.1642,-5.0405,-4.9524,-5.0269,-4.8708,-4.7146,-4.684,-4.6137,-4.5321,0.0,0.0,-4.3865,-4.3815,0.0,0.0,0.0,0.0,0.0,0.0,0.0,0.0,0.0,0.0,0.0,0.0,0.0,0.0,0.0,0.0,0.0,-4.7456,-4.738,-4.6878,-4.5824,-4.5773,-4.5472,-4.4844,-4.4342,-4.4016,-4.389,-4.3924,-4.4197,-4.4718,-4.6007,-4.6947,-4.762,-4.8717,-4.9609,-5.0335,-5.1259,-5.1998,-5.271,-5.3907,-5.4807,-5.5416,-5.5416,-5.6229,-5.7565,-5.8842,-5.9335,-5.9568,-6.0787,-6.0816,-6.0293,-6.0206,-5.9829,-5.9393,-5.9335,-5.9306,-5.9306,-5.9306,-5.9306,-5.9306,-5.9306,-5.9306,-5.9306,-5.9306,-5.9306,-5.9306,-5.9306,-5.9771,-6.0206,-6.0206,-6.0729,-6.1193,-6.1193,-6.07,-6.0119,-5.948,-5.89,-5.829,-5.7623,-5.7536,-5.7536,-5.7536,-5.7536,-5.7536,-5.7536,-5.7536,-5.7536,-5.7536,-5.7536,-5.7507,-5.7419,-5.7419,-5.7108,-5.6394,-5.6337,-5.5875,-5.4967,-5.4231,-5.3037,-5.1213,-5.0011,-4.9364,0.0,0.0,0.0,0.0,0.0,0.0,-4.4342,0.0,-4.3714,0.0,0.0,0.0,0.0,0.0,0.0,0.0,0.0,0.0,0.0,0.0,0.0,0.0,0.0,0.0,0.0,0.0,0.0,0.0,0.0,-4.5279,-4.4995,-4.4995,-4.4719,-4.4166,-4.3915,-4.3753,-4.3594,-4.4087,-4.4639,-4.5207,-4.6662,-4.7592,-4.8179,-4.8959,-4.9548,-4.9985,-5.1128,-5.1759,-5.2107,-5.3413,-5.4517,-5.5416,-5.5416,-5.62,-5.7419,-5.8377,-5.8958,-5.9393,-5.9916,-6.0148,-6.009,-5.9335,-5.8668,-5.8145,-5.8145,-5.8145,-5.8145,-5.8145,-5.8145,-5.8145,-5.8145,-5.8145,-5.8145,-5.8145,-5.8145,-5.8145,-5.8145,-5.8958,-5.9684,-5.9684,-6.0496,-6.1077,-6.07,-6.038,-6.0003,-5.9393,-5.8726,-5.8058,-5.739,-5.7303,-5.7303,-5.7303,-5.7303,-5.7303,-5.7303,-5.7303,-5.7303,-5.7303,-5.7303,-5.7303,-5.7303,-5.7303,-5.7021,-5.6394,-5.625,-5.5496,-5.4194,-5.3531,-5.2394,-5.0857,-5.0499,-5.015,-5.1743,0.0,0.0,0.0,0.0,0.0,0.0,0.0,0.0,0.0,0.0,0.0,0.0,0.0,-4.3338,-4.374,0.0,0.0,0.0,0.0,0.0,0.0,0.0,0.0,0.0,0.0,0.0,0.0,-4.4159,0.0,-4.3847,-4.374,-4.3539,-4.3137,-4.3319,-4.3442,-4.3288,-4.4372,-4.5261,-4.5954,-4.7284,-4.8179,-4.8731,-4.9207,-4.9551,-4.9756,-5.1062,-5.1614,-5.173,-5.3181,-5.4342,-5.5184,-5.5358,-5.6084,-5.7158,-5.8,-5.861,-5.9045,-5.9248,-5.948,-5.951,-5.8406,-5.771,-5.7303,-5.7303,-5.7303,-5.7303,-5.7303,-5.7303,-5.7303,-5.7303,-5.7303,-5.7303,-5.7303,-5.7303,-5.7303,-5.7303,-5.8203,-5.9016,-5.9016,-5.9916,-6.0526,-6.0032,-5.9945,-5.9742,-5.9132,-5.8464,-5.7855,-5.7361,-5.7303,-5.7303,-5.7303,-5.7303,-5.7303,-5.7303,-5.7303,-5.7303,-5.7303,-5.7303,-5.7303,-5.7303,-5.7247,-5.6908,-5.6394,-5.6019,-5.5144,-5.3713,-5.2956,-5.197,-5.0741,-5.0804,-5.0487,0.0,0.0,0.0,-4.7703,0.0,0.0,0.0,0.0,-4.379,0.0,0.0,0.0,-4.4568,-4.4141,-4.379,-4.379,-4.3363,0.0,0.0,0.0,0.0,0.0,0.0,0.0,0.0,0.0,0.0,0.0,-4.2987,0.0,-4.1976,-4.1638,-4.1376,-4.1351,-4.2204,-4.2754,-4.2974,-4.4729,-4.6007,-4.6791,-4.7897,-4.876,-4.9256,-4.9522,-4.9669,-4.9756,-5.1062,-5.1614,-5.1759,-5.3704,-5.4517,-5.4604,-5.5184,-5.5823,-5.6578,-5.7855,-5.8319,-5.8435,-5.9074,-5.89,-5.8261,-5.7565,-5.7332,-5.7303,-5.7303,-5.7303,-5.7303,-5.7303,-5.7303,-5.7303,-5.7303,-5.7303,-5.7303,-5.7303,-5.7303,-5.7303,-5.7303,-5.7855,-5.8348,-5.8348,-5.89,-5.9364,-5.9335,-5.9335,-5.9103,-5.8435,-5.7768,-5.7332,-5.7303,-5.7303,-5.7303,-5.7303,-5.7303,-5.7303,-5.7303,-5.7303,-5.7303,-5.7303,-5.7303,-5.7303,-5.7303,-5.705,-5.6766,-5.6394,-5.5845,-5.5026,-5.4074,-5.3105,-5.2094,-5.1057,-5.0423,-4.9912,0.0,0.0,-4.9086,-4.8716,0.0,0.0,0.0,0.0,0.0,0.0,0.0,0.0,0.0,-4.4166,-4.379,-4.379,-4.3037,-4.2414,0.0,0.0,0.0,0.0,0.0,0.0,0.0,0.0,0.0,-4.2806,-4.2091,-4.1555,0.0,-4.1379,-4.1383,-4.1544,-4.2017,-4.2598,-4.3232,-4.4537,-4.5489,-4.6145,-4.7263,-4.8075,-4.8643,-4.8914,-4.9262,-4.9756,-5.1062,-5.1614,-5.173,-5.3239,-5.411,-5.4546,-5.4749,-5.5184,-5.5852,-5.6723,-5.7594,-5.8348,-5.8552,-5.8203,-5.7594,-5.739,-5.7303,-5.7303,-5.7303,-5.7303,-5.7303,-5.7303,-5.7303,-5.7303,-5.7303,-5.7303,-5.7303,-5.7303,-5.7303,-5.7303,-5.7303,-5.7826,-5.829,-5.829,-5.8842,-5.9161,-5.8726,-5.8639,-5.8552,-5.8348,-5.7739,-5.7303,-5.7303,-5.7303,-5.7303,-5.7303,-5.7303,-5.7303,-5.7303,-5.7303,-5.7303,-5.7303,-5.7303,-5.7303,-5.7303,-5.705,-5.6766,-5.6394,-5.5787,-5.4908,-5.3773,-5.2773,-5.1783,-5.0715,-5.0104,-4.9719,-5.2769,-5.153,0.0,-4.9694,-4.8126,0.0,-4.5902,0.0,0.0,0.0,0.0,0.0,0.0,-4.4468,-4.3966,-4.3564,-4.2816,-4.2062,0.0,-4.1103,0.0,0.0,0.0,0.0,0.0,0.0,-4.1333,-4.1333,-4.0679,-4.0352,0.0,0.0,-4.102,-4.1254,-4.1904,-4.2605,-4.3378,-4.4629,-4.5536,-4.6105,-4.6976,-4.775,-4.8471,-4.8615,-4.9059,-4.9727,-5.083,-5.141,-5.1701,-5.2746,-5.3559,-5.4168,-5.4168,-5.4546,-5.5184,-5.5823,-5.6578,-5.7274,-5.7274,-5.6984,-5.6665,-5.6897,-5.6984,-5.7013,-5.7245,-5.7303,-5.7303,-5.7303,-5.7303,-5.7303,-5.7303,-5.7303,-5.7303,-5.7303,-5.7303,-5.7303,-5.7303,-5.7652,-5.7942,-5.7942,-5.829,-5.8464,-5.8029,-5.7942,-5.7942,-5.7942,-5.7594,-5.7303,-5.7303,-5.7303,-5.7303,-5.7303,-5.7303,-5.7303,-5.7303,-5.7303,-5.7303,-5.7303,-5.7303,-5.7303,-5.7303,-5.6936,-5.6595,-5.625,-5.5437,-5.4493,-5.341,-5.228,-5.1346,-5.0588,-4.9709,-4.9314]},{"header":{"parameterUnit":"m.s-1","parameterCategory":1,"la1":30.6,"la2":29.2853,"lo1":-89.7004,"lo2":-87.6739,"dy":0.0162,"dx":0.0183,"nx":112,"ny":82,"refTime":"2023-06-13T18:00:00:Z","depth":0,"parameterNumber":3,"parameterNumberName":"V-component_of_WINDS"},"data":[0.0,0.0,0.0,0.0,0.0,0.0,0.0,0.0,0.0,0.0,0.0,0.0,0.0,0.0,0.0,0.0,0.0,0.0,0.0,0.0,0.0,0.0,0.0,0.0,0.0,0.0,0.0,0.0,0.0,0.0,0.0,0.0,0.0,0.0,0.0,0.0,0.0,0.0,0.0,0.0,0.0,0.0,0.0,0.0,0.0,0.0,0.0,0.0,0.0,0.0,0.0,0.0,0.0,0.0,0.0,0.0,0.0,0.0,0.0,0.0,0.0,0.0,0.0,0.0,0.0,0.0,0.0,0.0,0.0,0.0,0.0,0.0,0.0,0.0,0.0,0.0,0.0,0.0,0.0,0.0,0.0,0.0,0.0,0.0,0.0,0.0,0.0,0.0,0.0,0.0,-4.1605,-4.4392,-4.9715,-5.308,-5.3181,-5.2603,-5.1021,-4.8234,0.0,0.0,0.0,0.0,0.0,0.0,0.0,0.0,0.0,0.0,0.0,0.0,0.0,0.0,0.0,0.0,0.0,0.0,0.0,0.0,0.0,0.0,0.0,0.0,0.0,0.0,0.0,0.0,0.0,0.0,0.0,0.0,0.0,0.0,0.0,0.0,0.0,0.0,0.0,0.0,0.0,0.0,0.0,0.0,0.0,0.0,0.0,0.0,0.0,0.0,0.0,0.0,0.0,0.0,0.0,0.0,0.0,0.0,0.0,0.0,0.0,0.0,0.0,0.0,0.0,0.0,0.0,0.0,0.0,0.0,0.0,0.0,0.0,0.0,0.0,0.0,0.0,0.0,0.0,0.0,0.0,0.0,0.0,0.0,0.0,0.0,0.0,0.0,0.0,0.0,0.0,0.0,0.0,0.0,0.0,0.0,0.0,0.0,0.0,0.0,0.0,0.0,0.0,0.0,-4.261,-4.8134,-5.1624,-5.3783,-5.4285,-5.3381,-5.1624,-4.8812,0.0,0.0,0.0,0.0,0.0,0.0,0.0,0.0,0.0,0.0,0.0,0.0,0.0,0.0,0.0,0.0,0.0,0.0,0.0,0.0,0.0,0.0,0.0,0.0,0.0,0.0,0.0,0.0,0.0,0.0,0.0,0.0,0.0,0.0,0.0,0.0,0.0,0.0,0.0,0.0,0.0,0.0,0.0,0.0,0.0,0.0,0.0,0.0,0.0,0.0,0.0,0.0,0.0,0.0,0.0,0.0,0.0,0.0,0.0,0.0,0.0,0.0,0.0,0.0,0.0,0.0,0.0,0.0,0.0,0.0,0.0,0.0,0.0,0.0,0.0,0.0,0.0,0.0,0.0,0.0,0.0,0.0,0.0,0.0,0.0,0.0,0.0,0.0,0.0,0.0,0.0,0.0,0.0,0.0,0.0,0.0,0.0,0.0,0.0,0.0,0.0,0.0,0.0,-4.1957,-4.4844,-4.9138,-5.18,-5.3451,-5.3936,-5.3204,-5.1605,-4.8988,-4.666,0.0,0.0,0.0,0.0,0.0,0.0,0.0,0.0,0.0,0.0,0.0,0.0,0.0,0.0,0.0,0.0,0.0,0.0,0.0,0.0,0.0,0.0,0.0,0.0,0.0,0.0,0.0,0.0,0.0,0.0,0.0,0.0,0.0,0.0,0.0,0.0,0.0,0.0,0.0,0.0,0.0,0.0,0.0,0.0,0.0,0.0,0.0,0.0,0.0,0.0,0.0,0.0,0.0,0.0,0.0,0.0,0.0,0.0,0.0,0.0,0.0,0.0,0.0,0.0,0.0,0.0,0.0,0.0,0.0,0.0,0.0,0.0,0.0,0.0,0.0,0.0,0.0,0.0,0.0,0.0,0.0,0.0,0.0,0.0,0.0,0.0,0.0,0.0,0.0,0.0,0.0,0.0,0.0,0.0,0.0,0.0,0.0,0.0,0.0,0.0,0.0,0.0,-4.389,-4.6677,-4.9314,-5.1666,-5.3154,-5.3343,-5.3011,-5.1676,-4.9203,-4.7429,0.0,0.0,0.0,0.0,0.0,0.0,0.0,0.0,0.0,0.0,0.0,0.0,0.0,0.0,0.0,0.0,0.0,0.0,0.0,0.0,0.0,0.0,0.0,0.0,0.0,0.0,0.0,0.0,0.0,0.0,0.0,0.0,0.0,0.0,0.0,0.0,0.0,0.0,0.0,0.0,0.0,0.0,0.0,0.0,0.0,0.0,0.0,0.0,0.0,0.0,0.0,0.0,0.0,0.0,0.0,0.0,0.0,0.0,0.0,0.0,0.0,0.0,0.0,0.0,0.0,0.0,0.0,0.0,0.0,0.0,0.0,0.0,0.0,0.0,0.0,0.0,0.0,0.0,0.0,0.0,0.0,0.0,0.0,0.0,0.0,0.0,0.0,0.0,0.0,0.0,0.0,0.0,0.0,0.0,0.0,0.0,0.0,0.0,0.0,0.0,0.0,0.0,-4.4217,-4.7104,-4.9364,-5.1933,-5.3385,-5.312,-5.3125,-5.2082,-4.9508,-4.7708,0.0,0.0,0.0,0.0,0.0,0.0,0.0,0.0,0.0,0.0,0.0,0.0,0.0,0.0,0.0,0.0,0.0,0.0,0.0,0.0,0.0,0.0,0.0,0.0,0.0,0.0,0.0,0.0,0.0,0.0,0.0,0.0,0.0,0.0,0.0,0.0,0.0,0.0,0.0,0.0,0.0,0.0,0.0,0.0,0.0,0.0,0.0,0.0,0.0,0.0,0.0,0.0,0.0,0.0,0.0,0.0,0.0,0.0,0.0,0.0,0.0,0.0,0.0,0.0,0.0,0.0,0.0,0.0,0.0,0.0,0.0,0.0,0.0,0.0,0.0,0.0,0.0,0.0,0.0,0.0,0.0,0.0,0.0,0.0,0.0,0.0,0.0,0.0,0.0,0.0,0.0,0.0,0.0,0.0,0.0,0.0,0.0,0.0,0.0,0.0,0.0,0.0,-4.394,-4.6713,0.0,-5.1732,-5.3402,-5.3726,-5.3662,-5.2631,-5.0411,0.0,0.0,0.0,0.0,0.0,0.0,0.0,0.0,0.0,0.0,0.0,0.0,0.0,0.0,0.0,0.0,0.0,0.0,0.0,0.0,0.0,0.0,0.0,0.0,0.0,0.0,0.0,0.0,0.0,0.0,0.0,0.0,0.0,0.0,0.0,0.0,0.0,0.0,0.0,0.0,0.0,0.0,0.0,0.0,0.0,0.0,0.0,0.0,0.0,0.0,0.0,0.0,0.0,0.0,0.0,0.0,0.0,0.0,0.0,0.0,0.0,0.0,0.0,0.0,0.0,0.0,0.0,0.0,0.0,0.0,0.0,0.0,0.0,0.0,0.0,0.0,0.0,0.0,0.0,0.0,0.0,0.0,0.0,0.0,0.0,0.0,0.0,0.0,0.0,0.0,0.0,0.0,0.0,0.0,0.0,0.0,0.0,0.0,0.0,0.0,0.0,0.0,-4.1084,-4.3784,-4.6424,0.0,-5.1717,-5.3387,-5.418,-5.4113,-5.3116,-5.1044,0.0,0.0,0.0,0.0,0.0,0.0,0.0,0.0,0.0,0.0,0.0,0.0,0.0,0.0,0.0,0.0,0.0,0.0,0.0,0.0,0.0,0.0,0.0,0.0,0.0,0.0,0.0,0.0,0.0,0.0,0.0,0.0,0.0,0.0,0.0,0.0,0.0,0.0,0.0,0.0,0.0,0.0,0.0,0.0,0.0,0.0,0.0,0.0,0.0,0.0,0.0,0.0,0.0,0.0,0.0,0.0,0.0,0.0,0.0,0.0,0.0,0.0,0.0,0.0,0.0,0.0,0.0,0.0,0.0,0.0,0.0,0.0,0.0,0.0,0.0,0.0,0.0,0.0,0.0,0.0,0.0,0.0,0.0,0.0,0.0,0.0,0.0,0.0,0.0,0.0,0.0,0.0,0.0,0.0,0.0,0.0,0.0,0.0,0.0,0.0,0.0,0.0,-4.1404,-4.3741,-4.644,-4.9955,-5.1904,-5.3405,-5.4371,-5.4394,-5.3473,0.0,0.0,0.0,0.0,0.0,0.0,0.0,0.0,0.0,0.0,0.0,0.0,0.0,0.0,0.0,0.0,0.0,0.0,0.0,0.0,0.0,0.0,0.0,0.0,0.0,0.0,0.0,0.0,0.0,0.0,0.0,0.0,0.0,0.0,0.0,0.0,0.0,0.0,0.0,0.0,0.0,0.0,0.0,0.0,0.0,0.0,0.0,0.0,0.0,0.0,0.0,0.0,0.0,0.0,0.0,0.0,0.0,0.0,0.0,0.0,0.0,0.0,0.0,0.0,0.0,0.0,0.0,0.0,0.0,0.0,0.0,0.0,0.0,0.0,0.0,0.0,0.0,0.0,0.0,0.0,0.0,0.0,0.0,0.0,0.0,0.0,0.0,0.0,0.0,0.0,0.0,0.0,0.0,0.0,0.0,0.0,0.0,0.0,0.0,0.0,0.0,0.0,0.0,-4.1312,-4.3759,-4.6446,-4.9772,-5.2051,-5.3903,-5.5339,-5.4969,-5.3927,-5.2122,0.0,0.0,0.0,0.0,0.0,0.0,0.0,0.0,0.0,0.0,0.0,0.0,0.0,0.0,0.0,0.0,0.0,0.0,0.0,0.0,0.0,0.0,0.0,0.0,0.0,0.0,0.0,0.0,0.0,0.0,0.0,0.0,0.0,0.0,0.0,0.0,0.0,0.0,0.0,0.0,0.0,0.0,0.0,0.0,0.0,0.0,0.0,0.0,0.0,0.0,0.0,0.0,0.0,0.0,0.0,0.0,0.0,0.0,0.0,0.0,0.0,0.0,0.0,0.0,0.0,0.0,0.0,0.0,0.0,0.0,0.0,0.0,0.0,0.0,0.0,0.0,0.0,0.0,0.0,0.0,0.0,0.0,0.0,0.0,0.0,0.0,0.0,0.0,0.0,0.0,0.0,0.0,0.0,0.0,0.0,0.0,0.0,0.0,0.0,0.0,0.0,0.0,-4.192,-4.4307,-4.7089,-5.0664,-5.2763,-5.4522,-5.5937,-5.5406,-5.4147,-5.2131,0.0,0.0,0.0,0.0,0.0,0.0,0.0,0.0,0.0,0.0,0.0,0.0,0.0,0.0,0.0,0.0,0.0,0.0,0.0,0.0,0.0,0.0,0.0,0.0,0.0,0.0,0.0,0.0,0.0,0.0,0.0,0.0,0.0,0.0,0.0,0.0,0.0,0.0,0.0,0.0,0.0,0.0,0.0,0.0,0.0,0.0,0.0,0.0,0.0,0.0,0.0,0.0,0.0,0.0,0.0,0.0,0.0,0.0,0.0,0.0,0.0,0.0,0.0,0.0,0.0,0.0,0.0,0.0,0.0,0.0,0.0,0.0,0.0,0.0,0.0,0.0,0.0,0.0,0.0,0.0,0.0,0.0,0.0,0.0,0.0,0.0,0.0,0.0,0.0,0.0,0.0,0.0,0.0,0.0,0.0,0.0,0.0,0.0,0.0,0.0,0.0,0.0,-4.2888,-4.523,-4.811,-5.2181,-5.3754,-5.5026,-5.6203,-5.5694,-5.4267,-5.1699,0.0,0.0,0.0,0.0,0.0,0.0,0.0,0.0,0.0,0.0,0.0,0.0,0.0,0.0,0.0,0.0,0.0,0.0,0.0,0.0,0.0,0.0,0.0,0.0,0.0,0.0,0.0,0.0,0.0,0.0,0.0,0.0,0.0,0.0,0.0,0.0,0.0,0.0,0.0,0.0,0.0,0.0,0.0,0.0,0.0,0.0,0.0,0.0,0.0,0.0,0.0,0.0,0.0,0.0,0.0,0.0,0.0,0.0,0.0,0.0,-3.9848,0.0,0.0,0.0,0.0,0.0,0.0,0.0,0.0,0.0,0.0,0.0,0.0,0.0,0.0,0.0,0.0,0.0,0.0,0.0,0.0,0.0,0.0,0.0,0.0,0.0,0.0,0.0,0.0,0.0,0.0,0.0,0.0,0.0,0.0,0.0,0.0,0.0,0.0,0.0,0.0,0.0,-4.2909,-4.5532,-4.8329,-5.1534,-5.3706,-5.5233,-5.6158,-5.5854,-5.4803,-5.2938,-5.0418,0.0,0.0,0.0,0.0,0.0,0.0,0.0,0.0,0.0,0.0,0.0,0.0,0.0,0.0,0.0,0.0,0.0,0.0,0.0,0.0,0.0,0.0,0.0,0.0,0.0,0.0,0.0,0.0,0.0,0.0,0.0,0.0,0.0,0.0,0.0,0.0,0.0,0.0,0.0,0.0,0.0,0.0,0.0,0.0,0.0,0.0,0.0,0.0,0.0,0.0,0.0,0.0,0.0,0.0,0.0,0.0,0.0,0.0,0.0,0.0,-4.2824,0.0,0.0,0.0,0.0,0.0,0.0,0.0,0.0,0.0,0.0,0.0,0.0,0.0,0.0,0.0,0.0,0.0,0.0,0.0,0.0,0.0,0.0,0.0,0.0,0.0,0.0,0.0,0.0,0.0,0.0,0.0,0.0,0.0,0.0,0.0,0.0,0.0,0.0,0.0,0.0,-4.4141,-4.6883,-4.9745,-5.2878,-5.438,-5.5435,-5.6176,-5.5738,-5.4818,-5.3294,-5.102,0.0,0.0,0.0,0.0,0.0,0.0,0.0,0.0,0.0,0.0,0.0,0.0,0.0,0.0,0.0,0.0,0.0,0.0,0.0,0.0,0.0,0.0,0.0,0.0,0.0,0.0,0.0,0.0,0.0,0.0,0.0,0.0,0.0,0.0,0.0,0.0,0.0,0.0,0.0,0.0,0.0,0.0,0.0,0.0,0.0,0.0,0.0,0.0,0.0,0.0,0.0,0.0,0.0,-4.1793,-4.2865,-4.3772,-4.5063,-4.6748,-4.8509,-4.6769,-4.6162,-4.6563,0.0,0.0,0.0,0.0,0.0,0.0,0.0,0.0,0.0,0.0,0.0,0.0,0.0,0.0,0.0,0.0,0.0,0.0,0.0,0.0,0.0,0.0,0.0,0.0,0.0,-4.5271,-4.4819,0.0,0.0,0.0,0.0,0.0,0.0,0.0,0.0,0.0,0.0,0.0,0.0,-4.5685,-4.8436,-5.1222,-5.4285,-5.5071,-5.5597,-5.6166,-5.5777,-5.4999,-5.3773,-5.1947,-5.0331,0.0,0.0,0.0,0.0,0.0,0.0,0.0,0.0,0.0,0.0,0.0,0.0,0.0,0.0,0.0,0.0,0.0,0.0,0.0,0.0,0.0,0.0,0.0,0.0,0.0,0.0,0.0,0.0,0.0,0.0,0.0,0.0,-4.3182,-4.2018,0.0,0.0,0.0,0.0,0.0,0.0,0.0,0.0,0.0,0.0,0.0,0.0,0.0,0.0,-4.064,-4.1752,-4.2952,-4.4277,-4.525,-4.6194,-4.7115,-4.8468,-4.9993,-5.1786,-5.2935,0.0,-5.0247,-4.9466,0.0,0.0,0.0,0.0,0.0,0.0,0.0,0.0,0.0,0.0,0.0,0.0,0.0,0.0,0.0,0.0,0.0,0.0,0.0,0.0,0.0,0.0,-4.7481,-4.7481,-4.7857,-4.8008,0.0,-4.5355,-4.3593,-4.269,0.0,0.0,0.0,0.0,0.0,0.0,0.0,0.0,-4.6529,-4.9086,-5.1449,-5.3713,-5.493,-5.5775,-5.6166,-5.6585,-5.6526,-5.5888,-5.4461,-5.3084,-5.1738,-4.9344,0.0,0.0,0.0,0.0,0.0,0.0,0.0,0.0,0.0,0.0,0.0,0.0,0.0,0.0,0.0,0.0,0.0,0.0,0.0,0.0,0.0,0.0,0.0,0.0,0.0,0.0,0.0,0.0,0.0,-4.3703,-4.3367,-4.3362,-4.1914,-4.0664,0.0,0.0,0.0,0.0,0.0,0.0,0.0,0.0,0.0,-4.0803,-4.1369,-4.2364,-4.378,-4.4997,-4.6161,-4.7299,-4.8459,-4.9463,-5.0442,-5.155,-5.3158,-5.5132,-5.6013,-5.6183,-5.5683,-5.3373,-5.1699,-5.0544,0.0,0.0,0.0,0.0,0.0,-4.8159,-4.8159,-4.7958,0.0,0.0,0.0,0.0,0.0,0.0,0.0,0.0,0.0,0.0,0.0,0.0,0.0,-4.9238,-4.9766,-5.0017,-4.9439,-4.8508,-4.7215,0.0,-4.4014,-4.3333,-4.303,0.0,0.0,0.0,0.0,-4.5807,-4.8307,-5.0856,-5.2989,-5.444,-5.5117,-5.5496,-5.5628,-5.6196,-5.6286,-5.5658,-5.5089,-5.3982,-5.2276,-5.075,-4.8955,0.0,0.0,0.0,0.0,0.0,0.0,0.0,0.0,0.0,0.0,0.0,0.0,0.0,0.0,0.0,0.0,0.0,0.0,0.0,0.0,0.0,0.0,0.0,0.0,0.0,0.0,0.0,0.0,-4.4224,-4.4152,-4.4867,-4.3226,-4.2087,0.0,0.0,0.0,0.0,0.0,0.0,-4.2786,-4.3046,-4.3329,-4.3695,-4.4461,-4.542,-4.672,-4.7941,-4.9017,-4.9949,-5.1052,-5.215,-5.306,-5.4279,-5.5921,-5.7941,-5.8617,-5.9447,-6.0134,-5.6799,-5.4612,-5.3256,-5.2126,-5.1272,-5.0645,-5.0645,-5.0569,-5.0444,-5.0444,-5.0092,-4.9615,-4.9464,0.0,-4.723,-4.6677,0.0,0.0,0.0,0.0,-4.7179,-4.8259,0.0,-5.0343,-5.0745,-5.1272,-5.1548,-5.0971,-5.0941,-5.0215,0.0,-4.6312,-4.566,-4.5538,0.0,0.0,0.0,0.0,-4.8028,-5.0174,-5.2457,-5.4181,-5.5119,-5.5179,-5.5269,-5.5418,-5.5897,-5.6017,-5.5688,-5.5538,-5.47,-5.3025,-5.2007,-5.0331,-4.7848,0.0,0.0,0.0,0.0,0.0,0.0,0.0,0.0,0.0,0.0,0.0,0.0,0.0,0.0,0.0,0.0,0.0,0.0,0.0,0.0,0.0,0.0,0.0,0.0,0.0,0.0,0.0,0.0,0.0,-4.5818,-4.485,0.0,0.0,0.0,0.0,-4.5146,-4.5699,-4.6376,-4.7163,-4.6851,-4.6823,-4.716,-4.8159,-4.9006,-4.9621,-5.0466,-5.1398,-5.2329,-5.2827,-5.3626,-5.4598,-5.6483,-5.807,-5.9547,-6.137,-6.2149,-6.1876,-5.8952,-5.7374,-5.6671,-5.5566,-5.4461,-5.3482,-5.3482,-5.3181,-5.2754,-5.2754,-5.2402,-5.185,-5.1322,-4.9665,-4.7782,-4.7255,-4.6677,0.0,0.0,-4.8209,-4.8912,-5.0017,-5.1122,-5.1975,-5.2026,-5.2452,-5.2703,-5.2126,-5.2108,-5.1666,0.0,-4.8943,-4.8514,-4.8813,0.0,-4.6406,-4.8431,-4.8565,-4.9398,-5.2034,-5.3218,-5.4181,-5.5119,-5.5179,-5.5448,-5.6128,-5.6188,-5.6406,-5.6974,-5.6436,-5.5807,-5.5059,-5.3174,-5.1199,-4.9239,-4.7309,0.0,0.0,0.0,0.0,0.0,0.0,0.0,0.0,0.0,0.0,0.0,0.0,0.0,0.0,0.0,0.0,0.0,0.0,0.0,0.0,0.0,0.0,0.0,0.0,0.0,0.0,0.0,0.0,-4.8216,-4.7527,0.0,-4.7861,-4.7716,-4.8008,-4.9138,-4.9657,-4.9998,-5.0122,-4.9714,-4.9512,-4.9758,-5.0183,-5.0913,-5.1957,-5.2868,-5.3613,-5.4234,-5.5094,-5.5819,-5.6422,-5.811,-5.9584,-6.1033,-6.2285,-6.3137,-6.356,-6.1763,-6.0111,-5.8554,-5.7826,-5.6846,-5.5842,-5.5842,-5.5491,-5.4988,-5.4637,-5.416,-5.3482,-5.2226,-5.1021,-4.9967,-4.9414,-4.8862,-4.8586,-4.9314,-4.9665,-5.0092,-5.1222,-5.18,-5.2201,-5.2553,-5.2984,-5.3222,-5.302,-5.3145,-5.3204,-5.3245,-5.1783,-5.0857,-5.185,-5.0738,-5.0258,-5.1991,-5.2288,-5.2935,-5.4412,-5.5402,-5.5884,-5.5837,-5.5807,-5.5748,-5.5568,-5.5927,-5.6077,-5.5867,-5.6047,-5.5478,-5.3952,-5.3204,-5.1917,-4.9942,-4.8386,-4.695,0.0,0.0,0.0,0.0,0.0,0.0,0.0,0.0,0.0,0.0,0.0,0.0,0.0,0.0,0.0,0.0,0.0,0.0,0.0,0.0,0.0,0.0,0.0,0.0,0.0,0.0,-4.8732,-5.0783,-5.0449,-5.0431,-5.1478,-5.1556,-5.1933,-5.2923,-5.3202,-5.3258,-5.3218,-5.2344,-5.193,-5.2272,-5.2242,-5.2785,-5.384,-5.4606,-5.5124,-5.5414,-5.65,-5.7251,-5.7979,-5.9784,-6.1364,-6.2568,-6.3717,-6.4403,-6.468,-6.3952,-6.2672,-6.1065,-5.9985,-5.8981,-5.8152,-5.8152,-5.7675,-5.6947,-5.6219,-5.5591,-5.4888,-5.3406,-5.2553,-5.2,-5.1423,-5.1021,-5.0795,-5.1172,-5.1272,-5.1448,-5.2337,-5.2581,-5.2682,-5.3172,-5.3452,-5.3682,-5.3793,-5.3984,-5.4431,-5.5519,-5.4125,-5.3147,-5.4317,-5.3711,-5.3434,-5.4714,-5.4938,-5.5234,-5.6147,-5.6751,-5.6944,-5.6526,-5.6286,-5.5987,-5.5568,-5.5508,-5.5329,-5.488,-5.5059,-5.4581,-5.3234,-5.2965,-5.2037,-5.0226,-4.8506,-4.698,-4.5633,0.0,0.0,0.0,0.0,0.0,0.0,0.0,0.0,0.0,0.0,0.0,0.0,0.0,0.0,0.0,0.0,0.0,0.0,0.0,0.0,0.0,0.0,0.0,-4.97,-5.0426,-5.1647,-5.3292,-5.3536,-5.3854,-5.4683,-5.5214,-5.5847,-5.6452,-5.6294,-5.631,-5.6425,-5.4814,-5.4121,-5.4613,-5.456,-5.4793,-5.5248,-5.5703,-5.5952,-5.605,-5.7022,-5.8063,-5.9168,-6.1713,-6.3282,-6.4229,-6.5675,-6.593,-6.5333,-6.5333,-6.4982,-6.4279,-6.2119,-6.0914,-6.0387,-6.0387,-5.9684,-5.8604,-5.7499,-5.6746,-5.6118,-5.4988,-5.426,-5.3683,-5.3155,-5.3005,-5.298,-5.298,-5.298,-5.3048,-5.346,-5.3529,-5.364,-5.3954,-5.3997,-5.4106,-5.4443,-5.4872,-5.5432,-5.6432,-5.5771,-5.5358,-5.6363,-5.5956,-5.5859,-5.6716,-5.637,0.0,-5.7154,-5.7214,-5.7214,-5.7154,-5.6615,-5.6308,-5.6218,-5.497,-5.4221,-5.4221,-5.3533,-5.3144,-5.3114,-5.2486,-5.1528,-5.0166,-4.7625,-4.5693,-4.4377,0.0,0.0,0.0,0.0,0.0,0.0,0.0,0.0,0.0,0.0,0.0,0.0,0.0,0.0,0.0,0.0,0.0,0.0,0.0,0.0,0.0,0.0,-5.2047,-5.1603,-5.2749,-5.4262,-5.6167,-5.6889,-5.7498,-5.8077,-5.8629,-5.8952,-5.8812,-5.8896,-5.8569,-5.7647,-5.6487,-5.5786,-5.5613,-5.55,-5.5869,-5.6656,-5.7132,-5.7726,-5.8461,-5.9542,-6.0637,-6.175,-6.3849,-6.5175,-6.5857,-6.6923,-6.7079,-6.6488,-6.6061,-6.5559,-6.4931,-6.355,-6.2647,-6.2094,-6.1692,-6.0839,-5.9784,-5.9056,-5.8478,-5.7851,-5.6721,-5.5968,-5.5415,-5.4888,-5.4436,-5.411,-5.411,-5.411,-5.418,-5.4575,-5.4366,-5.4156,-5.4569,-5.4712,-5.4831,-5.4965,-5.5604,-5.6497,-5.756,-5.8043,-5.841,-5.8686,-5.8639,-5.8798,-5.9721,-5.9767,0.0,-5.9997,-6.0027,-5.9638,-5.865,-5.8411,-5.7723,-5.6338,-5.5418,-5.473,-5.4251,-5.3114,-5.2247,-5.1768,-5.1139,-5.0152,-4.8835,-4.7638,-4.6621,0.0,0.0,0.0,0.0,0.0,0.0,0.0,0.0,0.0,0.0,0.0,0.0,0.0,0.0,0.0,0.0,0.0,0.0,0.0,0.0,0.0,0.0,-5.4051,-5.5294,-5.5299,-5.5838,-5.6848,-5.8454,-5.9335,-5.9859,-6.0161,-6.0688,-6.0901,-6.0509,-6.0418,-5.9982,-5.908,-5.789,-5.7236,-5.7166,-5.7024,-5.7359,-5.8084,-5.8557,-5.9237,-5.9984,-6.1209,-6.2449,-6.4036,-6.5847,-6.6899,0.0,-6.8175,-6.8045,-6.7292,-6.6965,-6.6488,0.0,0.0,0.0,0.0,0.0,-6.1592,-6.0939,-6.0387,-5.9684,-5.893,-5.8278,-5.7549,-5.6872,-5.6545,-5.6043,-5.5541,-5.5315,-5.5089,-5.5005,-5.5248,-5.5109,-5.5019,-5.5572,-5.5862,-5.61,-5.6235,-5.6797,-5.7461,-5.8365,0.0,0.0,-6.0165,-6.0385,-6.0637,-6.1052,-6.1104,-6.1104,-6.1104,-6.1104,-6.0805,-6.0027,-5.9428,-5.853,-5.7124,-5.5628,0.0,0.0,0.0,-5.1498,-5.0794,-4.9867,0.0,0.0,0.0,-4.698,0.0,0.0,0.0,0.0,-4.4167,-4.4167,0.0,0.0,0.0,0.0,0.0,0.0,0.0,0.0,0.0,0.0,0.0,0.0,0.0,0.0,0.0,0.0,-5.7158,-5.8753,-5.9618,-5.9182,-5.9262,-6.0337,-6.1014,-6.1366,-6.1366,-6.1868,-6.207,-6.1663,-6.1437,-6.1051,-6.0613,0.0,0.0,0.0,0.0,-5.9242,-5.9658,-6.0113,-6.0758,-6.1346,-6.2617,-6.4198,-6.6222,-6.7797,-6.8615,-6.89,-6.9305,-6.8899,-6.7894,-6.7894,-6.7568,-6.689,-6.5208,-6.4228,-6.3651,-6.2647,-6.2295,0.0,0.0,0.0,0.0,-5.9659,-5.8905,-5.8077,-5.8001,-5.7549,-5.6922,-5.6445,-5.5917,-5.5509,-5.581,-5.5842,-5.6,-5.6695,-5.7125,-5.7509,-5.7849,-5.8039,-5.8331,-5.9045,-5.9473,-6.0043,-6.0986,-6.141,-6.1573,-6.1377,-6.1343,0.0,-6.1343,-6.1343,-6.1313,-6.1224,0.0,0.0,-5.8291,-5.5897,-5.4102,-5.3354,-5.1917,-5.0764,-5.0106,-4.9015,-4.8386,-4.8386,-4.7818,-4.7249,-4.6651,-4.6651,-4.6352,-4.5723,-4.5424,-4.5304,0.0,0.0,0.0,0.0,0.0,0.0,0.0,0.0,0.0,0.0,0.0,0.0,0.0,0.0,0.0,-5.7659,-5.8854,-6.0042,-6.1171,-6.1309,-6.1395,-6.1642,-6.2169,-6.2496,-6.2496,-6.3023,-6.3152,-6.2729,-6.3106,-6.2888,-6.1622,-6.1619,0.0,-6.0656,-6.1332,-6.1744,-6.185,-6.2316,-6.3285,-6.4728,0.0,0.0,-6.8876,-7.0035,-7.0401,-7.0018,-7.0122,-6.9476,-6.8472,-6.8472,-6.8145,-6.7467,-6.5785,-6.4806,-6.4279,-6.4078,-6.4002,-6.3852,-6.2847,-6.237,-6.1969,-6.0588,-5.9709,-5.9106,-5.8679,-5.7851,0.0,-5.6897,-5.647,-5.6163,-5.6882,-5.6713,-5.6566,-5.7364,-5.7414,-5.7414,-5.7822,-5.7945,-5.8304,-5.9275,-5.9786,-6.0409,-6.1346,-6.1792,-6.2173,-6.2662,-6.269,-6.269,-6.269,-6.269,-6.248,-6.1972,-6.1194,-6.0236,-5.9009,-5.7004,-5.5299,-5.4072,-5.172,-5.0122,-4.9494,-4.9269,-4.912,-4.912,-4.9,-4.888,-4.8686,-4.8686,-4.8626,-4.8491,-4.6292,-4.5304,0.0,0.0,0.0,0.0,0.0,0.0,0.0,0.0,0.0,0.0,0.0,-5.5686,0.0,0.0,-5.9527,-6.0267,-6.0988,-6.1683,-6.2106,-6.2311,-6.2421,-6.2421,-6.2672,-6.2948,-6.3224,-6.3525,-6.3861,-6.4154,-6.4505,-6.4528,-6.42,-6.4105,-6.3919,-6.3373,-6.3734,-6.3944,-6.3944,-6.4709,-6.579,-6.7163,-6.8294,-6.9544,-7.0753,-7.1637,-7.1687,-7.1112,-7.1116,-7.0606,-6.9803,-6.925,-6.8698,-6.8095,-6.699,-6.6036,-6.5233,-6.468,-6.4454,-6.4354,-6.355,-6.3073,-6.2596,-6.1215,-6.0362,-5.9809,-5.9257,-5.8353,-5.7474,-5.7474,-5.6872,-5.6365,-5.7163,-5.7174,-5.7081,-5.7572,-5.8078,-5.8414,-5.8328,-5.871,-5.9133,-5.9681,-6.0012,-6.0409,-6.1226,-6.1791,-6.2351,-6.3021,-6.3079,-6.3079,-6.3079,-6.3079,-6.2959,-6.263,-6.1702,-6.0715,-5.9668,-5.7184,-5.5119,-5.3773,-5.1828,-5.0601,-5.0242,-4.9659,-4.9299,-4.9299,-4.9299,-4.9299,-4.9299,-4.9299,-4.9299,-4.9269,-4.7951,-4.7279,0.0,0.0,0.0,0.0,0.0,0.0,0.0,-5.465,-5.6042,-5.6704,-5.8347,-5.9964,-6.0841,-6.1806,-6.249,-6.2658,-6.2873,-6.2944,-6.2657,-6.2809,-6.2998,-6.2998,-6.2998,-6.3174,-6.3651,-6.3877,-6.4412,-6.5495,-6.5767,-6.6267,-6.6937,-6.6758,-6.6647,-6.6645,-6.6515,-6.6542,-6.6542,-6.7403,-6.8441,-6.9432,-7.0595,-7.1502,-7.2249,-7.2833,-7.2686,-7.1887,-7.1786,-7.1485,-7.1008,-7.0003,-6.9351,-6.8874,-6.8221,-6.7342,-6.6312,-6.5308,-6.4881,-6.4705,-6.4053,-6.3525,-6.2948,-6.1743,-6.0964,-6.0387,-5.9834,-5.883,-5.7901,-5.7901,-5.7071,-5.6334,-5.7056,-5.7195,-5.7229,-5.7468,-5.8332,-5.903,-5.8716,-5.9115,-5.9632,-5.9828,-5.9935,-6.0348,-6.0986,-6.1673,-6.2351,-6.3021,-6.3079,-6.3079,-6.3079,-6.3079,-6.3079,-6.3079,-6.2002,-6.0924,-5.9967,-5.7124,-5.488,-5.3653,-5.2336,-5.1588,-5.1588,-5.0481,-4.9868,-4.9868,-4.9748,-4.9689,-4.9689,-4.9689,-4.9689,-4.9689,-4.9808,-4.9689,-5.5174,-5.4206,-5.3561,-5.4026,-5.496,-5.6047,0.0,-5.7815,-5.8698,-6.0509,-6.2233,-6.3637,-6.4583,-6.5052,-6.5127,-6.4503,-6.3752,-6.3137,-6.2809,-6.3224,-6.3601,-6.3601,-6.3601,-6.3626,-6.3676,-6.4555,-6.5383,-6.5975,-6.7039,-6.7883,-6.841,-6.9382,-6.9912,-6.982,-7.0224,-7.0504,-7.0504,-7.063,-7.1169,-7.239,-7.2957,-7.3326,-7.3401,-7.3935,-7.3348,-7.1887,-7.1384,-7.1133,-7.1033,-7.043,-7.0129,-6.9978,-6.8924,-6.8145,-6.7543,-6.6915,-6.6363,-6.5785,-6.4731,-6.4329,-6.4028,-6.2421,-6.1542,-6.0989,-6.0412,-5.9131,-5.7901,-5.7901,-5.6942,-5.6015,-5.6443,-5.6438,-5.6426,-5.679,-5.723,-5.7641,-5.7955,-5.812,-5.8385,-5.9063,-5.9529,-6.0043,-6.0926,-6.1673,-6.2351,-6.3021,-6.3079,-6.3079,-6.3079,-6.3079,-6.3079,-6.3079,-6.2421,-6.1224,-5.9368,-5.7274,-5.5748,-5.4999,-5.3713,-5.2965,-5.2965,-5.2247,-5.1887,-5.1887,-5.1289,-5.099,-5.099,-5.099,-5.099,-5.102,-5.1588,-5.093,-5.5277,-5.4977,-5.5226,-5.6506,-5.8105,-5.9517,-6.044,-6.1816,-6.3149,-6.4175,-6.5488,-6.6656,-6.7132,-6.6848,-6.6267,0.0,-6.4378,-6.3542,-6.2879,-6.3048,-6.3199,-6.3199,-6.3475,-6.3927,-6.4555,-6.5032,-6.5785,-6.699,-6.8168,-6.9315,-7.0475,-7.1345,-7.195,-7.221,-7.2168,-7.2083,-7.2083,-7.239,-7.3,-7.3708,-7.4336,-7.4541,-7.4582,-7.4451,-7.3669,-7.2364,-7.2138,-7.1861,-7.151,-7.0958,-7.0556,-7.0179,-6.9401,-6.8572,-6.7744,-6.7191,-6.6413,-6.5534,-6.4731,-6.4279,-6.3802,-6.2446,-6.1642,-6.1065,-6.0487,-5.9182,-5.7826,-5.7499,-5.6614,-5.5934,-5.5983,-5.6147,-5.6211,-5.6217,-5.6946,-5.758,-5.7437,-5.7902,-5.8434,-5.8786,-5.9122,-5.9611,-6.0198,-6.1015,-6.1702,-6.2145,-6.2701,-6.3079,-6.3079,-6.3079,-6.2929,-6.254,-6.1912,-6.0864,-5.9249,-5.7992,-5.6855,-5.5837,-5.488,-5.4192,-5.3803,-5.3144,-5.2606,-5.2217,-5.1917,-5.1588,-5.1229,-5.1229,-5.1229,-5.1229,-5.1887,-5.1768,-5.541,-5.5877,-5.6988,-5.9105,-6.1032,-6.2706,-6.3772,-6.53,-6.672,-6.7347,-6.8152,-6.8779,-6.8818,-6.8081,-6.6997,-6.5769,-6.4742,-6.3797,-6.2904,-6.2973,-6.3073,-6.3073,-6.355,-6.4279,-6.5208,-6.5283,-6.5986,-6.7668,-6.8823,-7.0222,-7.2022,-7.2806,-7.3602,-7.4312,-7.3934,-7.3708,-7.3708,-7.4135,-7.4437,-7.4812,-7.536,-7.5309,-7.5,-7.4272,-7.3494,-7.274,-7.274,-7.2414,-7.1861,-7.1309,-7.0757,-7.0204,-6.9501,-6.8648,-6.7744,-6.7191,-6.6262,-6.5208,-6.4655,-6.4128,-6.3525,-6.2546,-6.1768,-6.1115,-6.0688,-5.9384,-5.7951,-5.7523,-5.6754,-5.5963,-5.586,-5.5874,-5.5881,-5.5711,-5.6487,-5.717,-5.6718,-5.7339,-5.8058,-5.8058,-5.8502,-5.9017,-5.9363,-6.0165,-6.0863,-6.1106,-6.191,-6.2526,-6.2759,-6.2817,-6.2639,-6.2306,-6.1649,-6.0813,-5.9757,-5.889,-5.7902,-5.6765,-5.5927,-5.5239,-5.476,-5.3922,-5.3144,-5.2486,-5.2306,-5.1887,-5.1229,-5.1229,-5.1229,-5.1229,-5.1887,-5.2306,-5.5796,-5.7009,-5.8638,-6.1605,-6.3623,-6.5356,-6.7334,-6.7982,-6.8598,-6.9922,-6.9943,-6.9696,-6.9591,-6.8754,-6.7517,-6.5899,-6.4742,-6.3797,-6.2904,-6.3299,-6.3676,-6.3676,-6.4128,-6.4655,0.0,-6.5283,-6.5986,-6.7668,-6.8823,-7.0314,-7.252,-7.3699,-7.4827,-7.603,-7.6055,-7.5956,-7.5956,-7.6055,-7.6055,-7.6055,-7.6055,-7.5502,-7.4397,-7.3293,-7.2765,-7.274,-7.274,-7.2414,-7.1861,-7.1309,-7.0757,-7.0154,-6.9074,-6.8296,-6.7744,-6.7191,-6.6262,-6.5208,-6.4655,-6.4128,-6.3601,-6.2998,-6.2069,-6.119,-6.1165,-5.9841,-5.8375,-5.8375,-5.7286,-5.6201,-5.6176,-5.5647,-5.5151,-5.5125,-5.5391,-5.5657,-5.5657,-5.6158,-5.6655,-5.6655,-5.7496,-5.8297,-5.8557,-5.9183,-5.974,-6.0137,-6.0442,-6.1015,-6.1969,-6.2116,-6.2234,-6.2526,-6.1961,-6.1422,-6.1048,-5.9847,-5.88,-5.8112,-5.6855,-5.6188,-5.6158,-5.488,-5.3862,-5.3174,-5.2516,-5.1887,-5.1229,-5.1229,-5.1229,-5.1229,-5.1887,-5.2546,-5.6828,-5.8507,-6.0535,-6.3918,-6.5966,-6.7624,-6.9119,-7.002,-7.0534,-7.0534,-7.0464,-7.013,-6.9162,-6.7563,-6.5947,-6.4669,-6.3596,-6.2802,-6.2301,-6.2772,-6.3124,-6.3124,-6.3274,0.0,0.0,0.0,0.0,-6.7668,-6.8823,-7.0405,-7.2615,-7.3795,-7.4925,-7.603,-7.6055,-7.6055,-7.6055,-7.6055,-7.6055,-7.6055,-7.5678,-7.5126,-7.4397,-7.3644,-7.3092,-7.2715,-7.2339,-7.2087,-7.1836,-7.0907,-7.0204,-6.9652,-6.8899,-6.807,-6.7241,-6.7041,-6.6036,-6.4705,-6.453,-6.3877,-6.3023,-6.2471,-6.1793,-6.1194,-6.1054,-5.9794,-5.8374,-5.8289,-5.7266,-5.6141,-5.5779,-5.5403,-5.5099,-5.5099,-5.5365,-5.5604,-5.5604,-5.5934,-5.6236,-5.6236,-5.6758,-5.7146,-5.7248,-5.7861,-5.8467,-5.9058,-5.9953,-6.0805,-6.1346,-6.1613,-6.191,-6.2234,-6.1875,-6.1451,-6.1108,-6.0266,-5.9279,-5.8201,-5.7723,-5.7064,-5.6248,-5.5748,-5.4999,-5.3892,-5.3653,-5.2995,-5.1858,-5.1858,-5.1648,-5.1229,-5.1887,-5.2306,-5.8095,-6.0244,-6.247,-6.5908,-6.8137,-6.9777,-7.0594,-7.1476,-7.176,-7.0889,-6.9989,-6.903,-6.7873,-6.5838,-6.4122,-6.3312,-6.2737,-6.2293,-6.1999,-6.2647,-6.3149,-6.3149,-6.3299,-6.3776,0.0,0.0,0.0,-6.7693,-6.8823,-7.0405,-7.2615,-7.3795,-7.4925,-7.603,-7.6055,-7.6055,-7.6055,-7.6055,-7.5954,-7.5753,-7.5201,-7.4649,-7.4096,-7.3343,-7.2791,-7.2414,-7.1861,-7.151,-7.1259,-7.033,-6.9652,-6.9074,-6.8321,-6.7593,-6.6915,-6.6513,-6.5559,-6.4454,-6.4454,-6.3751,-6.2747,-6.2195,-6.1722,-6.1407,-6.1087,-5.9947,-5.882,-5.8731,-5.7778,-5.666,-5.6297,-5.6008,-5.5647,-5.5438,-5.552,-5.5642,-5.5458,-5.5604,-5.5736,-5.5736,-5.6,-5.6236,-5.6236,-5.6666,-5.7285,-5.8016,-5.8836,-5.9707,-6.0502,-6.0805,-6.1135,-6.1702,-6.1674,-6.1402,-6.0939,-6.0659,-5.9877,-5.856,-5.8261,-5.7633,-5.6555,-5.6286,-5.5568,-5.4251,-5.4221,-5.3653,-5.2546,-5.2546,-5.2336,-5.1947,-5.2366,-5.2695,-5.9678,-6.2116,-6.4418,-6.7597,-7.0049,-7.1673,-7.1702,-7.2137,-7.2137,-7.086,-6.8538,-6.657,-6.5812,0.0,-6.2246,-6.1905,-6.2112,-6.2191,-6.1999,-6.2973,-6.3701,0.0,0.0,0.0,-6.5283,0.0,0.0,-6.7794,0.0,-7.048,-7.2665,-7.3845,-7.495,-7.603,-7.6055,-7.6055,-7.6055,-7.6055,-7.5778,-7.5226,-7.4674,-7.4121,-7.3544,-7.2414,-7.1912,-7.1887,-7.1284,-7.0732,-7.0179,-6.9627,-6.9049,-6.8447,-6.7392,-6.6965,-6.6789,-6.5685,-6.4931,-6.4454,-6.4513,-6.3726,-6.2722,-6.2144,-6.1937,-6.1697,-6.1167,-6.0352,-5.961,-5.9584,-5.8655,-5.773,-5.773,-5.7242,-5.6667,-5.6092,-5.5961,-5.5804,-5.5308,-5.5203,-5.5203,-5.5203,-5.5418,-5.5591,-5.5591,-5.5895,-5.6328,-5.7044,-5.7109,-5.7752,-5.9426,-5.9673,-6.0043,-6.1073,-6.1464,-6.1322,-6.0716,-6.0966,-6.0565,-5.9249,-5.853,-5.7872,-5.7184,-5.6555,-5.5628,-5.4341,-5.4281,-5.3922,-5.3234,-5.3234,-5.3204,-5.3174,-5.3174,-5.3533,-6.1233,-6.381,-6.637,-6.9341,-7.09,-7.1789,-7.2282,-7.176,-7.0715,-6.8973,-6.6941,-6.4978,-6.3386,-6.1295,0.0,-6.0065,-6.0293,0.0,-6.1848,-6.2973,0.0,-6.4228,-6.4756,-6.5308,-6.5835,-6.6789,0.0,0.0,-7.0054,-7.146,-7.3268,-7.4423,-7.5352,-7.603,-7.6055,-7.6055,-7.6055,-7.6055,-7.5778,-7.5226,-7.4674,-7.4121,-7.3544,-7.2414,-7.1912,-7.1861,-7.0882,-7.0154,-6.9602,-6.9049,-6.8271,-6.7367,-6.7091,-6.6714,-6.6237,-6.5534,-6.4931,-6.4488,-6.4417,-6.3893,-6.3159,-6.2198,-6.2005,-6.2068,-6.0991,-6.0186,-5.9605,-5.9482,-5.8582,-5.773,-5.773,-5.7242,-5.6771,-5.6615,-5.6588,-5.6536,-5.6405,-5.6379,-5.6379,-5.6379,-5.6081,-5.5835,-5.5835,-5.5561,-5.5604,-5.6263,-5.6394,-5.7017,-5.8767,-5.9205,-5.9702,-6.0681,-6.1255,-6.1527,-6.1369,-6.1204,-6.0745,-5.9877,-5.9219,-5.856,-5.7872,-5.7214,-5.6496,-5.5688,-5.5179,-5.461,-5.3952,-5.3952,-5.3683,-5.3174,-5.3174,-5.3264,-6.3837,-6.5985,-6.804,-7.0552,-7.1847,-7.2398,-7.1905,-7.1005,-6.9612,-6.7115,-6.4723,-6.262,-6.0932,-5.9395,-5.8467,0.0,0.0,0.0,-6.1848,-6.3601,-6.4856,-6.5157,-6.6112,-6.6865,-6.7191,-6.8447,-6.9602,0.0,-7.1083,-7.2062,-7.3519,-7.4649,-7.5502,-7.603,-7.6055,-7.6055,-7.6055,-7.5829,-7.5427,-7.4875,-7.4322,-7.377,-7.3167,-7.2062,-7.1535,-7.146,0.0,-6.9376,-6.9024,-6.8221,-6.7392,-6.6564,-6.6338,-6.5886,-6.5308,-6.5008,-6.4713,-6.4335,-6.4017,-6.3776,-6.3527,-6.2395,-6.217,-6.2097,-6.0881,-6.0176,-5.9799,-5.9516,-5.8732,-5.8026,-5.8026,-5.7791,-5.7503,-5.7242,-5.719,-5.7111,-5.6876,-5.6798,-5.6798,-5.6798,-5.6536,-5.6223,-5.5961,-5.5647,-5.5561,-5.5829,-5.5868,-5.6301,-5.7597,-5.8262,-5.8892,-5.9702,-6.0531,-6.0993,-6.0911,-6.1134,-6.0936,-6.0146,-5.9727,-5.9099,-5.8171,-5.7453,-5.6795,-5.6248,-5.5538,-5.4999,-5.464,-5.464,-5.4431,-5.4072,-5.4072,-5.4072,-6.6779,-6.839,-6.9641,-7.1469,-7.2718,-7.2979,-7.1034,-6.9902,-6.8363,-6.5257,-6.2398,-6.004,-5.8807,-5.782,-5.7342,-5.7705,0.0,-6.1322,-6.1898,-6.4304,-6.6086,-6.6312,-6.7744,-6.8798,-6.8949,-7.038,-7.1535,-7.2087,-7.2263,-7.2765,-7.377,-7.4774,-7.5578,-7.603,-7.6055,-7.6055,-7.6055,-7.5578,-7.5025,-7.4397,-7.392,-7.3368,-7.269,-7.1585,-7.1083,-7.0983,0.0,0.0,-6.8447,-6.7392,-6.6589,-6.5961,-6.5569,-6.5041,-6.4571,-6.4431,-6.4393,-6.4297,-6.3604,-6.3539,-6.3595,-6.2636,-6.2355,-6.2042,-6.0824,-6.0319,-6.0091,-5.9437,-5.8889,-5.8523,-5.8523,-5.8523,-5.8392,-5.7895,-5.7835,-5.7634,-5.7137,-5.7033,-5.7033,-5.7033,-5.6981,-5.6745,-5.6223,-5.6013,-5.5887,-5.5722,-5.5657,-5.5802,-5.6432,-5.7146,-5.7816,-5.8578,-5.9516,-6.0058,-6.0144,-6.0969,-6.1157,-6.036,-6.0176,-5.9578,-5.8441,-5.7633,-5.6944,-5.6316,-5.5658,-5.5269,-5.5179,-5.5179,-5.5179,-5.5179,-5.5179,-5.5179,-6.8672,-7.0261,-7.1528,-7.2921,-7.3037,-7.2282,-7.0366,-6.8218,-6.5838,-6.3138,-6.075,-5.8719,-5.744,-5.636,-5.5778,-5.6381,-5.7847,-5.9617,-6.1722,-6.3977,-6.5936,-6.7342,-6.8572,-6.9652,-7.0556,-7.1736,0.0,0.0,0.0,-7.4749,-7.495,-7.5552,-7.5954,-7.6055,-7.6055,-7.6055,-7.6055,-7.5954,-7.5402,-7.4423,-7.4322,-7.3745,-7.269,-7.1585,-7.1083,-7.0983,0.0,0.0,-6.7894,-6.7241,-6.6363,-6.5519,-6.5782,-6.5487,-6.4988,-6.4817,-6.4776,-6.4679,-6.4057,-6.3517,-6.3026,-6.2457,-6.2429,-6.237,-6.0727,-6.0227,-6.0013,-5.8967,-5.8601,-5.8523,-5.8523,-5.8523,-5.8497,-5.8392,-5.8366,-5.834,-5.8235,-5.8209,-5.8209,-5.8209,-5.7843,-5.7477,-5.7442,-5.6562,-5.6018,-5.6276,-5.5921,-5.5736,-5.6132,-5.6563,-5.7146,-5.8198,-5.8899,-5.965,-6.0419,-6.094,-6.1256,-6.1335,-6.0574,-5.9997,-5.9757,-5.859,-5.7633,-5.6944,-5.6316,-5.5718,-5.5179,-5.5179,-5.5179,-5.5179,-5.5179,-5.5179,-7.1133,-7.2224,-7.2892,-7.385,-7.3327,-7.1934,-6.9379,-6.7057,-6.4555,-6.1534,-5.9266,-5.7388,-5.5912,-5.5409,-5.5146,-5.5255,-5.7251,-5.9541,-6.1345,-6.3977,-6.6338,-6.802,-6.9702,-7.1058,-7.1861,-7.3217,-7.4146,0.0,0.0,-7.5527,-7.5251,-7.603,-7.6482,-7.6482,-7.6482,-7.6331,-7.6055,-7.5778,-7.5377,-7.4824,-7.4272,-7.3694,-7.3117,-7.1711,-7.0932,-7.0556,-6.8899,0.0,-6.7317,-6.6463,-6.578,-6.5168,-6.514,-6.485,-6.4562,-6.4768,-6.4827,-6.4804,-6.4349,-6.3831,-6.3259,-6.2712,-6.2474,-6.2104,-6.0666,-6.0222,-5.9986,-5.8836,-5.8523,-5.8523,-5.8523,-5.8523,-5.8523,-5.8523,-5.8732,-5.9045,-5.9333,-5.9176,-5.8967,-5.8967,-5.8497,-5.8,-5.7782,-5.719,-5.6683,-5.6284,-5.5943,-5.5747,-5.5591,-5.5736,-5.6132,-5.7017,-5.7852,-5.8711,-5.9493,-6.0516,-6.1146,-6.1317,-6.1237,-6.0805,-6.0116,-5.9159,-5.8321,-5.7633,-5.6675,-5.6068,-5.5718,-5.5359,-5.5179,-5.5179,-5.5179,-5.5179,-7.3298,-7.4111,-7.4314,-7.4634,-7.3574,-7.1619,-6.8354,-6.5824,-6.3294,-6.0134,-5.7874,-5.6058,-5.4639,-5.4475,-5.4392,-5.3978,-5.6479,-5.8959,-6.0314,-6.3425,-6.6312,-6.8221,-7.038,-7.2087,-7.2991,-7.4397,0.0,0.0,0.0,0.0,-7.5603,-7.6507,-7.7059,-7.7059,-7.7059,-7.6783,-7.623,-7.5804,-7.5477,-7.5226,-7.4372,-7.382,-7.3544,-7.1962,-7.0958,-7.033,-6.8572,0.0,0.0,-6.5896,-6.5294,-6.5097,-6.4703,-6.4551,-6.4441,-6.484,-6.5105,-6.516,-6.4743,-6.4298,-6.3721,-6.3018,-6.2443,-6.1738,-6.0588,-6.0222,-5.9986,-5.8836,-5.8523,-5.8523,-5.8523,-5.8523,-5.8549,-5.8653,-5.9045,-5.9516,-6.0091,-5.9777,-5.9359,-5.9359,-5.8915,-5.8366,-5.7921,-5.7808,-5.7346,-5.6432,-5.6066,-5.5752,-5.5334,-5.5177,-5.5299,-5.5802,-5.685,-5.7725,-5.8368,-5.9924,-6.0963,-6.097,-6.1607,-6.144,-6.0245,-5.9613,-5.8949,-5.8141,-5.7124,-5.6526,-5.6376,-5.5718,-5.5388,-5.5388,-5.5269,-5.5179,-7.4488,-7.5766,-7.6085,-7.5563,-7.3806,-7.1149,-6.7401,-6.3887,-6.0855,-5.8882,-5.6719,-5.4936,-5.4226,-5.3245,-5.2606,-5.2513,-5.4296,-5.6342,-5.7951,-6.1492,-6.4906,-6.7568,-6.9828,0.0,-7.4046,-7.4849,0.0,0.0,0.0,0.0,0.0,-7.7285,-7.7637,-7.7637,-7.7637,-7.736,-7.6808,-7.6758,-7.623,-7.5251,-7.5151,-7.4573,-7.3544,-7.2364,-7.1535,-7.0882,0.0,0.0,0.0,-6.6414,-6.5571,-6.518,-6.5359,-6.5439,-6.5318,-6.5713,-6.6133,-6.6367,-6.5446,-6.4762,-6.4104,-6.3069,-6.2443,-6.1738,-6.0588,-6.0222,-5.9986,-5.8836,-5.8523,-5.8523,-5.8523,-5.8523,-5.8653,-5.9176,-5.9333,-5.9516,-6.0091,-5.9777,-5.9359,-5.9359,-5.8915,-5.8497,-5.8444,-5.8,-5.7704,-5.7573,-5.6588,-5.5883,-5.583,-5.5412,-5.5099,-5.5165,-5.6132,-5.7017,-5.7752,-5.9301,-6.0381,-6.0627,-6.1263,-6.1335,-6.0565,-6.019,-5.9398,-5.8141,-5.8022,-5.7633,-5.7004,-5.6376,-5.6077,-5.6128,-5.5478,-5.5179,-7.434,-7.5884,-7.6414,-7.5553,-7.3535,-7.0722,-6.6679,-6.32,-6.016,-5.7655,-5.5534,-5.3812,-5.3017,-5.2256,-5.1704,-5.1507,-5.3121,-5.4963,-5.6646,-5.9935,-6.3324,-6.6413,-6.9024,-7.146,0.0,0.0,0.0,0.0,0.0,0.0,0.0,-7.8088,-7.8189,-7.8189,-7.8189,-7.7938,-7.7385,-7.7034,-7.6657,-7.6205,-7.5552,-7.4824,-7.4046,-7.2565,-7.141,-7.048,0.0,0.0,0.0,-6.6078,-6.5601,-6.5847,-6.5621,-6.558,-6.5792,-6.629,-6.6525,-6.6577,-6.5921,-6.5078,-6.4157,-6.3564,-6.2496,-6.1293,-6.0483,-5.9986,-5.9542,-5.8732,-5.8523,-5.8523,-5.8523,-5.8758,-5.9176,-5.9751,-6.0169,-6.0588,-6.1163,-6.0823,-6.0326,-5.996,-5.9411,-5.8915,-5.8575,-5.8314,-5.8052,-5.7782,-5.7268,-5.6719,-5.5987,-5.5726,-5.5465,-5.5125,-5.5802,-5.6497,-5.7017,-5.8613,-5.9797,-6.0348,-6.132,-6.1728,-6.1218,-6.0876,-6.0266,-5.9308,-5.853,-5.7992,-5.7723,-5.7064,-5.6735,-5.6705,-5.6077,-5.5777,-7.2932,-7.4619,-7.5345,-7.4336,-7.213,-6.9248,-6.5452,-6.1912,-5.878,-5.6431,-5.429,-5.2719,-5.197,-5.1367,-5.0932,-5.0785,-5.2135,-5.3808,-5.5491,-5.8579,-6.1843,-6.5032,0.0,-7.0882,0.0,-7.4774,0.0,0.0,0.0,0.0,0.0,-7.8792,-7.8792,-7.8792,-7.8792,-7.844,-7.7712,-7.731,-7.6959,-7.6632,-7.5678,-7.495,-7.4347,-7.2665,-7.1384,-7.0405,0.0,0.0,0.0,-6.6135,-6.595,-6.6585,-6.5841,-6.595,-6.6577,-6.6915,-6.7148,-6.7148,-6.6732,-6.565,-6.4439,-6.398,-6.2467,-6.0771,-6.0352,-5.983,-5.9255,-5.8679,-5.8523,-5.8549,-5.8732,-5.9072,-5.9542,-6.03,-6.0823,-6.1293,-6.1842,-6.1529,-6.0953,-6.0326,-5.9751,-5.9176,-5.8601,-5.8523,-5.8366,-5.7974,-5.7765,-5.7294,-5.6301,-5.6013,-5.57,-5.5151,-5.5604,-5.6066,-5.6301,-5.7788,-5.9052,-5.9673,-6.1046,-6.1674,-6.1462,-6.1416,-6.0984,-6.0116,-5.9189,-5.862,-5.8411,-5.7723,-5.7393,-5.7393,-5.6735,-5.6346,-7.0018,-7.1875,-7.2594,-7.1625,-6.9384,-6.6602,-6.3557,-5.9597,-5.6316,-5.5068,-5.3075,-5.1534,-5.1194,-5.055,-5.0178,-5.0383,-5.1373,0.0,-5.4361,-5.7424,-6.0563,0.0,0.0,-7.033,-7.2514,0.0,0.0,0.0,0.0,0.0,0.0,-7.9369,-7.9369,-7.9369,-7.9369,-7.8842,-7.7712,-7.7687,-7.7134,-7.6055,-7.5502,-7.495,-7.4347,-7.2665,-7.161,0.0,0.0,0.0,0.0,-6.6958,-6.6688,-6.7017,-6.6265,-6.6732,-6.7892,-6.7892,-6.8122,-6.8427,-6.8045,-6.6572,-6.482,-6.4413,-6.2479,-6.0222,-6.0222,-5.983,-5.9255,-5.8679,-5.8523,-5.8653,-5.9202,-5.9359,-5.9673,-6.0823,-6.111,-6.1293,-6.1842,-6.1529,-6.0953,-6.0326,-5.9751,-5.9176,-5.8601,-5.8523,-5.8523,-5.8497,-5.8026,-5.7451,-5.6876,-5.6275,-5.57,-5.5151,-5.5432,-5.5604,-5.5604,-5.6915,-5.798,-5.8557,-6.0169,-6.1114,-6.1115,-6.1719,-6.1463,-6.0116,-6.0086,-5.9727,-5.9099,-5.8441,-5.8112,-5.8082,-5.7393,-5.6765,-6.6294,-6.8429,-6.9584,-6.7886,-6.6528,-6.4663,-6.1118,-5.8052,-5.5405,-5.3815,-5.2088,-5.0778,-5.0487,-5.0344,-5.0348,-5.0393,-5.1674,-5.3105,0.0,0.0,0.0,-6.335,-6.8447,-7.2439,0.0,0.0,0.0,0.0,0.0,0.0,0.0,-7.9394,-7.9394,-7.9394,-7.9018,-7.8616,-7.8264,-7.7511,-7.6783,-7.6055,-7.5502,-7.4548,-7.3242,-7.2595,0.0,0.0,0.0,0.0,0.0,-6.7411,-6.7122,-6.7503,-6.7343,-6.7738,-6.8351,-6.8958,-6.9184,-6.9259,-6.8579,-6.7029,-6.5199,-6.4489,-6.2479,-6.0222,-6.0222,-5.9542,-5.8758,-5.8549,-5.881,-5.915,-5.9307,-5.996,-6.0666,-6.1032,-6.1424,-6.1764,-6.1921,-6.1842,-6.1398,-6.0405,-6.0065,-5.9647,-5.8679,-5.8523,-5.8523,-5.8523,-5.8366,-5.7895,-5.6928,-5.6641,-5.617,-5.5203,-5.5165,-5.5432,-5.5934,-5.7044,-5.8043,-5.8961,-6.0291,-6.1318,-6.1733,-6.1987,-6.1672,-6.0805,-6.0326,-5.9757,-5.9099,-5.889,-5.856,-5.8058,-5.7423,-5.6765,-6.1771,-6.3912,-6.5139,-6.3747,-6.2765,-6.1536,-5.8692,-5.6405,-5.4308,-5.2708,-5.1611,-5.0676,-5.0013,-5.0348,-5.0745,-5.0745,-5.1975,-5.3457,0.0,0.0,0.0,-6.566,0.0,0.0,0.0,0.0,0.0,0.0,0.0,0.0,0.0,0.0,-7.9294,-7.9068,-7.8716,-7.8314,-7.7913,-7.7009,-7.638,-7.6023,-7.5065,-7.4127,-7.3255,-7.2343,0.0,0.0,0.0,0.0,0.0,-6.8238,-6.8146,-6.8651,-6.843,-6.8806,-6.9484,-7.0007,-7.0082,-6.9858,-6.9184,-6.7483,-6.5372,-6.4478,-6.2211,-5.9856,-5.9647,-5.9072,-5.8523,-5.8523,-5.8758,-5.915,-5.9568,-6.0222,-6.0901,-6.1346,-6.1711,-6.1973,-6.1973,-6.1973,-6.1685,-6.0744,-6.0378,-5.9934,-5.8993,-5.8653,-5.8523,-5.8523,-5.834,-5.7843,-5.6928,-5.6615,-5.6118,-5.5203,-5.5099,-5.5365,-5.6066,-5.672,-5.7597,-5.8739,-5.9891,-6.0986,-6.185,-6.2141,-6.2037,-6.1493,-6.0805,-6.0146,-5.9488,-5.9219,-5.889,-5.8471,-5.7812,-5.7124,0.0,-5.8745,-5.9721,-5.9319,-5.8525,-5.7591,-5.6357,-5.4722,0.0,-5.2057,-5.1564,-5.0971,-4.9916,-5.0594,-5.1348,-5.1398,-5.2352,-5.3858,0.0,-5.888,0.0,0.0,-7.1811,0.0,0.0,0.0,0.0,0.0,0.0,0.0,0.0,0.0,-7.9068,-7.849,-7.839,-7.7862,-7.6833,-7.638,-7.5973,-7.5803,-7.4255,-7.3699,-7.3909,-7.1833,0.0,0.0,0.0,0.0,0.0,-6.924,-6.9523,-7.0141,-6.9523,-7.0007,-7.104,-7.104,-7.0792,-7.0322,-6.9849,-6.7851,-6.5313,-6.4193,-6.1827,-5.9255,-5.8679,-5.8523,-5.8523,-5.8523,-5.8575,-5.8889,-5.9934,-6.0274,-6.0614,-6.1711,-6.1973,-6.1973,-6.1973,-6.1973,-6.179,-6.1241,-6.064,-6.0039,-5.9464,-5.8889,-5.8523,-5.8523,-5.8026,-5.7451,-5.6876,-5.6275,-5.57,-5.5151,-5.5099,-5.5365,-5.6,-5.6132,-5.6758,-5.8135,-5.9086,-6.023,-6.1554,-6.2234,-6.2404,-6.2032,-6.1313,-6.0655,-6.0027,-5.9398,-5.9099,-5.9099,-5.8441,-5.7752,-5.2597,0.0,-5.6674,-5.6252,-5.6341,-5.6076,0.0,-5.3684,-5.2866,-5.2186,-5.1641,-5.1197,-5.0946,-5.1448,-5.2051,-5.2477,-5.3808,-5.544,-5.7248,0.0,0.0,-7.0405,0.0,0.0,0.0,0.0,0.0,0.0,0.0,0.0,0.0,0.0,-7.8465,-7.7913,-7.7459,-7.6904,-7.6256,-7.6096,-7.5402,-7.4103,-7.4047,-7.3135,-7.1564,-7.1446,0.0,0.0,0.0,0.0,-6.934,-6.9744,-7.0136,-7.0456,-7.0751,-7.1421,-7.2215,-7.253,-7.1926,-7.0807,-7.0129,-6.7856,-6.4782,-6.2032,-6.0315,-5.9255,-5.8679,-5.8523,-5.8523,-5.8523,-5.915,-5.9882,-6.0143,-6.0875,-6.1633,-6.1894,-6.1973,-6.1973,-6.1973,-6.1973,-6.179,-6.1241,-6.064,-6.0039,-5.9464,-5.8889,-5.8523,-5.8523,-5.8026,-5.7451,-5.6876,-5.6275,-5.57,-5.5151,-5.5099,-5.5299,-5.567,-5.617,-5.7082,-5.8515,-5.9488,-6.0531,-6.1554,-6.2234,-6.2195,-6.1373,-6.0176,-5.9488,-5.9338,-5.9189,-5.9099,-5.9099,-5.8441,-5.7752,-5.1046,-5.2666,-5.4036,-5.4081,-5.4315,-5.439,-5.3551,-5.313,-5.2779,-5.2226,-5.2251,-5.2251,-5.1749,-5.2729,-5.3632,-5.3658,-5.529,0.0,0.0,0.0,-6.8798,0.0,0.0,0.0,0.0,0.0,0.0,0.0,0.0,0.0,0.0,0.0,-7.8645,-7.8037,-7.7471,-7.6814,-7.6071,-7.5468,-7.4881,-7.4175,-7.3632,-7.2747,-7.148,-7.1374,0.0,0.0,0.0,0.0,-6.9745,-7.0529,-7.1154,-7.1585,-7.1697,-7.2137,-7.2701,-7.2409,-7.1528,-7.0263,-6.9137,-6.6463,-6.3043,-6.0658,-5.9437,-5.8915,-5.8601,-5.8523,-5.8523,-5.8523,-5.915,-5.9882,-6.0143,-6.0901,-6.1581,-6.1581,-6.1581,-6.1502,-6.1215,-6.1163,-6.1084,-6.0771,-6.0222,-5.9725,-5.9411,-5.8889,-5.8523,-5.8523,-5.7791,-5.7163,-5.685,-5.6066,-5.5412,-5.5125,-5.5099,-5.5232,-5.5538,-5.6066,-5.6823,-5.7944,-5.9114,-6.0165,-6.1106,-6.191,-6.1991,-6.1134,-6.0086,-5.9398,-5.9099,-5.9099,-5.9099,-5.9099,-5.874,-5.8052,-5.0971,-5.1674,-5.2251,-5.2879,-5.3105,-5.3181,-5.3181,-5.3181,-5.3055,-5.2578,-5.3206,-5.3607,-5.2879,-5.4381,0.0,0.0,0.0,0.0,0.0,0.0,0.0,0.0,0.0,0.0,0.0,0.0,0.0,0.0,0.0,0.0,0.0,0.0,0.0,-7.827,-7.7799,-7.6964,-7.5818,-7.4866,-7.4341,-7.4467,-7.3082,-7.2258,-7.1966,-7.1321,-7.0409,0.0,0.0,0.0,-7.0451,-7.1447,-7.225,-7.2836,-7.2473,-7.2522,-7.265,-7.1708,-7.0529,-6.9052,-6.7297,-6.4259,-6.1095,-5.9804,-5.8967,-5.8523,-5.8523,-5.8523,-5.8523,-5.8627,-5.9045,-5.962,-6.0222,-6.0744,-6.111,-6.111,-6.1058,-6.0849,-6.0326,-6.0222,-6.0222,-6.0222,-5.9751,-5.9359,-5.9359,-5.8889,-5.8497,-5.8392,-5.7477,-5.6771,-5.6693,-5.5752,-5.5099,-5.5099,-5.5099,-5.5232,-5.5472,-5.5868,-5.6394,-5.6979,-5.836,-5.9555,-6.054,-6.1438,-6.1608,-6.0984,-6.0296,-5.9668,-5.9099,-5.9099,-5.9099,-5.9099,-5.9099,-5.8441,-5.0971,-5.1674,-5.2352,-5.3331,-5.3959,-5.431,-5.431,-5.431,-5.4285,0.0,-5.431,0.0,0.0,-5.6536,-5.782,0.0,0.0,0.0,0.0,0.0,0.0,0.0,0.0,0.0,0.0,0.0,0.0,0.0,0.0,0.0,0.0,0.0,0.0,-7.7753,-7.7112,-7.6271,-7.5145,-7.4954,-7.3936,-7.206,-7.218,-7.1791,-7.0668,-7.0009,-6.9818,0.0,0.0,-7.0501,-7.1062,-7.2245,-7.2778,-7.2875,-7.3054,-7.2845,-7.237,-7.1913,-7.0224,-6.7586,-6.4088,-6.1871,-6.0492,-5.9672,-5.8967,-5.8523,-5.8523,-5.8523,-5.8627,-5.9098,-5.9647,-6.0222,-6.0823,-6.1058,-6.111,-6.111,-6.0744,-6.0326,-6.0248,-6.0222,-6.0222,-6.0222,-5.9751,-5.9359,-5.9359,-5.8889,-5.834,-5.7869,-5.7242,-5.6615,-5.6118,-5.5491,-5.5099,-5.5099,-5.5099,-5.5099,-5.5165,-5.5736,-5.6132,-5.6263,-5.7852,-5.9323,-6.0559,-6.076,-6.0621,-6.0266,-5.9608,-5.9189,-5.9099,-5.9099,-5.9099,-5.9099,-5.9099,-5.871,-5.0971,-5.1674,-5.2495,-5.4088,-5.4713,-5.4991,-5.5294,-5.574,-5.6086,-5.6086,-5.687,0.0,0.0,0.0,-6.112,-6.3813,0.0,0.0,0.0,0.0,0.0,0.0,0.0,0.0,0.0,0.0,0.0,0.0,0.0,0.0,0.0,0.0,0.0,0.0,-7.6638,-7.5929,-7.5368,-7.4336,-7.3317,-7.2245,-7.2219,-7.184,-7.1133,-7.0904,-7.0771,-7.0717,0.0,-7.1577,-7.1967,-7.2588,-7.2941,-7.3043,-7.267,-7.2053,-7.1066,-6.9059,-6.68,-6.4415,-6.2009,-6.0527,-5.9625,-5.9129,-5.8732,-5.8523,-5.8523,-5.8523,-5.8627,-5.9202,-5.9777,-6.0352,-6.0953,-6.111,-6.1032,-6.0718,-6.0195,-5.9673,-5.9359,-5.9307,-5.9307,-5.9307,-5.9072,-5.8915,-5.8915,-5.8418,-5.7974,-5.7782,-5.6902,-5.6223,-5.5935,-5.5438,-5.5099,-5.5099,-5.5099,-5.5099,-5.5099,-5.5538,-5.6328,-5.7404,-5.8244,-5.9265,-6.0531,-6.0284,-6.0138,-6.0086,-5.9428,-5.9099,-5.9099,-5.9099,-5.9099,-5.9099,-5.9099,-5.874,-5.0952,-5.1708,-5.2631,-5.4435,-5.5172,-5.5685,-5.6539,-5.7491,-5.8247,-5.8375,-5.9555,0.0,0.0,-6.2404,0.0,0.0,0.0,0.0,0.0,0.0,0.0,0.0,0.0,0.0,0.0,0.0,0.0,0.0,0.0,0.0,0.0,0.0,0.0,0.0,-7.6153,-7.5536,-7.5186,-7.3883,-7.3097,-7.2805,-7.2223,-7.1937,-7.1664,-7.1845,-7.1755,-7.167,-7.2171,-7.249,-7.2665,-7.2826,-7.2865,-7.2641,-7.1858,-7.0634,-6.8987,-6.5897,-6.3552,-6.1725,-6.0478,-5.9518,-5.8622,-5.8271,-5.8209,-5.8314,-5.8314,-5.8418,-5.8627,-5.9202,-5.9673,-6.0169,-6.0744,-6.0823,-6.0588,-6.0117,-5.9594,-5.9045,-5.8601,-5.8523,-5.8523,-5.8523,-5.8523,-5.8523,-5.8523,-5.8026,-5.7678,-5.7477,-5.6588,-5.5857,-5.5726,-5.536,-5.5099,-5.5099,-5.5099,-5.5099,-5.5232,-5.5432,-5.6394,-5.8262,-5.8339,-5.8867,-6.0121,-5.9673,-5.9585,-5.9847,-5.9368,-5.9099,-5.9099,-5.9099,-5.9099,-5.9099,-5.9099,-5.883,-5.071,-5.1737,-5.2835,-5.381,-5.5408,-5.7026,-5.8562,-5.9711,-6.071,-6.1275,-6.1865,-6.2609,-6.3661,-6.6477,0.0,0.0,0.0,0.0,0.0,0.0,0.0,0.0,0.0,0.0,0.0,0.0,0.0,0.0,0.0,0.0,0.0,0.0,0.0,0.0,0.0,-7.5106,-7.3972,-7.4094,-7.3613,-7.2513,-7.2033,-7.1772,-7.1714,-7.1496,-7.1774,-7.2216,-7.2461,-7.2636,-7.2748,-7.3102,-7.244,-7.1033,-7.0683,-6.8738,-6.5889,-6.4094,-6.2369,-6.0701,-5.9365,-5.8323,-5.7436,-5.7066,-5.7294,-5.7782,-5.7782,-5.8104,-5.8627,-5.9202,-5.9457,-5.9568,-6.0143,-5.9882,-5.949,-5.9437,-5.8993,-5.8549,-5.8523,-5.8523,-5.8523,-5.8523,-5.8523,-5.8523,-5.8523,-5.8026,-5.7477,-5.6954,-5.6327,-5.5726,-5.5229,-5.5125,-5.5099,-5.5099,-5.5099,-5.5232,-5.5538,-5.5604,-5.6066,-5.7238,-5.7275,-5.7785,-5.8779,-5.8811,-5.8903,-5.9189,-5.9129,-5.9099,-5.9099,-5.9099,-5.9099,-5.9099,-5.9099,-5.9069,-5.0983,-5.1827,-5.2813,-5.4473,-5.625,-5.7904,-5.9183,-6.1344,-6.326,-6.3909,-6.5052,-6.6065,-6.6533,0.0,0.0,0.0,0.0,0.0,0.0,0.0,0.0,0.0,0.0,0.0,0.0,0.0,0.0,0.0,0.0,0.0,0.0,0.0,0.0,0.0,0.0,-7.4621,-7.4388,-7.4223,-7.4191,-7.4079,-7.3141,-7.2826,-7.3204,-7.2865,-7.3107,-7.376,-7.3275,-7.3172,-7.3385,-7.2268,-7.1446,-7.0734,-6.8737,-6.6513,-6.4141,-6.2431,-6.0578,-5.8871,-5.8179,-5.7557,-5.703,-5.6892,-5.719,-5.773,-5.773,-5.8052,-5.8549,-5.8784,-5.8836,-5.9045,-5.9986,-5.9803,-5.9464,-5.9803,-5.9464,-5.915,-5.949,-5.9568,-5.9464,-5.9098,-5.9045,-5.8941,-5.8575,-5.7739,-5.7059,-5.685,-5.6013,-5.5334,-5.5125,-5.5099,-5.5099,-5.5099,-5.5099,-5.5165,-5.5299,-5.5299,-5.5604,-5.6459,-5.6959,-5.7573,-5.8367,-5.8437,-5.8566,-5.8857,-5.8828,-5.8936,-5.9099,-5.9099,-5.9099,-5.9099,-5.9099,-5.9099,-5.1267,-5.2039,-5.3099,-5.4913,-5.6973,-5.8935,-6.0263,-6.2942,-6.5397,-6.6521,-6.7985,-6.9004,-6.8847,-7.0076,0.0,0.0,0.0,0.0,0.0,0.0,0.0,0.0,0.0,0.0,0.0,0.0,0.0,0.0,0.0,0.0,0.0,0.0,0.0,0.0,0.0,0.0,-7.469,-7.4525,-7.4628,-7.5182,-7.3947,-7.3624,-7.4143,-7.3734,-7.3796,-7.4266,-7.3486,-7.3111,-7.2834,-7.1457,-7.0216,-6.8936,-6.6376,-6.4138,-6.2183,-6.0805,-5.9088,-5.7421,-5.7218,-5.6773,-5.6275,-5.6275,-5.6641,-5.7137,-5.732,-5.7791,-5.8287,-5.847,-5.8523,-5.8706,-5.9464,-5.9385,-5.9202,-5.9594,-5.9516,-5.9464,-5.9856,-6.0091,-6.0091,-5.9699,-5.949,-5.9255,-5.8862,-5.7686,-5.6798,-5.6798,-5.583,-5.5099,-5.5099,-5.5099,-5.5099,-5.5099,-5.5099,-5.5099,-5.5099,-5.5099,-5.5365,-5.5934,-5.632,-5.6955,-5.7863,-5.7972,-5.8141,-5.85,-5.8609,-5.8857,-5.9099,-5.9099,-5.9099,-5.9099,-5.9099,-5.9099,-5.1408,-5.2522,-5.3737,-5.499,-5.7645,-6.0362,-6.2101,-6.4531,-6.6939,-6.9239,-7.0624,-7.1252,-7.0703,-7.1539,0.0,0.0,0.0,0.0,0.0,0.0,0.0,0.0,0.0,0.0,0.0,0.0,0.0,0.0,0.0,0.0,0.0,0.0,0.0,0.0,0.0,0.0,-7.4721,-7.4987,-7.5153,-7.524,-7.4248,-7.3874,-7.4076,-7.3815,-7.3517,-7.3248,-7.3029,-7.2146,-7.0889,-7.0889,-6.8758,-6.5324,-6.367,-6.1731,-5.9873,-5.9242,-5.7892,-5.6449,-5.6475,-5.5905,-5.5099,-5.5099,-5.5465,-5.6013,-5.6615,-5.719,-5.7765,-5.834,-5.8497,-5.8497,-5.8523,-5.8523,-5.8523,-5.8523,-5.8967,-5.9359,-5.9385,-5.983,-6.0222,-6.0222,-5.9751,-5.9359,-5.9359,-5.7948,-5.6824,-5.6798,-5.583,-5.5125,-5.5099,-5.5099,-5.5099,-5.5099,-5.5099,-5.5099,-5.5099,-5.5099,-5.5232,-5.5604,-5.535,-5.5799,-5.7113,-5.7239,-5.7542,-5.8169,-5.85,-5.8828,-5.9099,-5.9099,-5.9099,-5.9099,-5.9099,-5.9099,-5.1872,-5.3319,-5.5032,-5.6211,0.0,0.0,0.0,-6.6002,0.0,0.0,-7.1513,-7.1748,-7.0781,-7.1173,0.0,0.0,0.0,0.0,0.0,0.0,0.0,0.0,0.0,0.0,0.0,0.0,0.0,0.0,0.0,0.0,0.0,0.0,0.0,0.0,0.0,0.0,-7.4482,-7.5127,-7.5173,-7.4586,-7.4585,-7.4407,-7.4207,-7.3456,-7.3103,-7.2999,-7.193,-7.1278,-7.0704,-6.8377,-6.6138,-6.393,-6.2565,-6.0762,-5.8941,-5.8247,-5.7103,-5.5801,-5.5601,-5.5296,-5.5099,-5.5099,-5.5465,-5.5935,-5.6118,-5.6588,-5.719,-5.7739,-5.7921,-5.8,-5.8418,-5.8523,-5.8627,-5.9019,-5.9255,-5.9464,-5.9882,-6.0091,-6.0091,-5.9699,-5.949,-5.9255,-5.8836,-5.8,-5.7268,-5.6876,-5.617,-5.5543,-5.5151,-5.5099,-5.5099,-5.5099,-5.5099,-5.5099,-5.5099,-5.5099,-5.5049,-5.4997,-5.4878,-5.5253,-5.6163,-5.6043,-5.638,-5.7276,-5.7557,-5.8114,-5.8828,-5.8991,-5.9099,-5.9099,-5.9099,-5.9099,-5.2633,-5.4369,0.0,-5.8142,-6.0515,-6.3252,-6.642,0.0,0.0,0.0,-7.2219,-7.2271,-7.1121,-7.1173,0.0,0.0,0.0,0.0,0.0,0.0,0.0,0.0,0.0,0.0,0.0,0.0,0.0,0.0,0.0,0.0,0.0,0.0,0.0,0.0,0.0,0.0,-7.4382,-7.481,-7.4613,-7.3751,-7.3417,-7.3148,-7.2946,-7.2342,-7.1966,-7.1667,-7.032,-6.9538,-6.8959,-6.6332,-6.4072,-6.2228,-6.0906,-5.9285,-5.7532,-5.6995,-5.6187,-5.5365,-5.5165,-5.5099,-5.5099,-5.5099,-5.5334,-5.5621,-5.5857,-5.617,-5.6562,-5.7163,-5.732,-5.7451,-5.8026,-5.8183,-5.8314,-5.8889,-5.9202,-5.9464,-5.9803,-6.0065,-6.0117,-5.9777,-5.9516,-5.9255,-5.8915,-5.8183,-5.7556,-5.719,-5.6432,-5.5726,-5.5177,-5.5099,-5.5099,-5.5099,-5.5099,-5.5099,-5.5099,-5.4889,-5.4642,-5.4537,-5.409,-5.4054,-5.4629,-5.4992,-5.5583,-5.648,-5.6908,-5.7467,-5.8115,-5.8386,-5.8483,-5.8291,-5.8291,-5.8291,-5.3769,-5.5624,0.0,-6.0557,-6.3293,0.0,-6.9535,-7.092,-7.1608,-7.2263,0.0,-7.2777,-7.1678,0.0,0.0,0.0,0.0,0.0,0.0,0.0,0.0,0.0,0.0,0.0,0.0,0.0,0.0,0.0,0.0,0.0,0.0,0.0,0.0,0.0,0.0,0.0,-7.4169,-7.408,-7.3631,0.0,-7.1427,-7.0709,-7.056,-7.0679,-7.035,-6.9632,-6.8345,-6.7232,-6.6082,-6.4443,-6.2457,-6.0363,-5.8971,-5.7477,-5.6,-5.5736,-5.5432,-5.5099,-5.5099,-5.5099,-5.5099,-5.5099,-5.5099,-5.5203,-5.5674,-5.583,-5.5961,-5.6562,-5.6719,-5.685,-5.7425,-5.7651,-5.7712,-5.8235,-5.8836,-5.9281,-5.9281,-5.9699,-6.0065,-6.0065,-5.9647,-5.9281,-5.9281,-5.8418,-5.7782,-5.773,-5.6667,-5.5726,-5.5229,-5.5125,-5.5099,-5.5099,-5.5099,-5.5099,-5.5099,-5.455,-5.4184,-5.4131,-5.3086,-5.2649,-5.2912,-5.4044,-5.4989,-5.5701,-5.6366,-5.6843,-5.7143,-5.7463,-5.7457,-5.7094,-5.7094,-5.7094,-5.4917,-5.7494,0.0,0.0,-6.614,-6.928,-7.0797,-7.1388,-7.18,-7.2526,-7.3103,-7.3263,0.0,0.0,0.0,0.0,0.0,0.0,0.0,0.0,0.0,0.0,0.0,0.0,0.0,0.0,0.0,0.0,0.0,0.0,0.0,0.0,0.0,0.0,0.0,-7.3342,-7.3208,-7.2671,-7.205,0.0,-7.056,-6.9363,-6.7867,-6.8944,-6.8764,-6.7597,-6.6789,-6.5555,-6.4109,-6.2699,-6.1058,-5.932,-5.7979,-5.6762,-5.567,-5.5604,-5.5432,-5.5099,-5.5099,-5.5099,-5.5099,-5.5099,-5.5099,-5.5125,-5.5229,-5.5282,-5.5386,-5.5935,-5.6092,-5.6249,-5.6824,-5.6981,-5.7033,-5.7137,-5.7948,-5.8706,-5.8706,-5.8784,-5.8889,-5.8889,-5.8784,-5.8706,-5.8706,-5.8497,-5.8183,-5.7739,-5.6667,-5.5857,-5.5752,-5.536,-5.5099,-5.5099,-5.5099,-5.5099,-5.5099,-5.455,-5.4027,-5.3583,-5.2903,-5.2428,-5.2332,-5.2554,-5.3247,-5.4378,-5.4788,-5.5538,-5.6511,-5.6775,-5.6981,-5.7094,-5.7094,-5.7094,0.0,0.0,0.0,-6.6079,0.0,-7.1934,-7.2345,-7.2789,-7.3211,-7.3459,0.0,0.0,0.0,0.0,0.0,0.0,0.0,0.0,0.0,0.0,0.0,0.0,0.0,0.0,0.0,0.0,0.0,0.0,0.0,0.0,0.0,0.0,0.0,0.0,0.0,-7.2265,-7.1966,-7.1308,-7.047,-6.9482,-6.8854,-6.7687,-6.6071,-6.6789,-6.6729,-6.6041,-6.5501,-6.4483,-6.2986,-6.1689,-6.0068,-5.8237,-5.7152,-5.6132,-5.5365,-5.5365,-5.5232,-5.5099,-5.5099,-5.5099,-5.5099,-5.5099,-5.5099,-5.5099,-5.5099,-5.5099,-5.5177,-5.5438,-5.5517,-5.5647,-5.6223,-5.6379,-5.6458,-5.6745,-5.7268,-5.7765,-5.8052,-5.8104,-5.8183,-5.847,-5.8523,-5.8523,-5.8523,-5.8523,-5.8314,-5.7808,-5.6902,-5.6223,-5.5935,-5.5438,-5.5099,-5.5099,-5.5099,-5.5099,-5.5099,-5.455,-5.3975,-5.3426,-5.2825,-5.2287,-5.1898,-5.1846,-5.2465,-5.3806,-5.4252,-5.4796,-5.5468,-5.5996,-5.6166,-5.599,-5.6145,-5.6166,0.0,0.0,0.0,-6.9477,-7.2372,0.0,-7.3785,-7.4189,0.0,0.0,0.0,0.0,0.0,0.0,0.0,0.0,0.0,0.0,0.0,0.0,0.0,0.0,0.0,0.0,0.0,0.0,0.0,0.0,0.0,0.0,0.0,0.0,0.0,0.0,0.0,-7.1068,-7.041,-6.9782,-6.8854,-6.7627,-6.6849,-6.5892,-6.4844,-6.4635,-6.4635,-6.4785,-6.4249,-6.3296,-6.1958,-6.0532,-5.8878,-5.7186,-5.6206,-5.5525,-5.5099,-5.5099,-5.5099,-5.5099,-5.5099,-5.5099,-5.5099,-5.5099,-5.5099,-5.5099,-5.5099,-5.5099,-5.5099,-5.5099,-5.5099,-5.5203,-5.5647,-5.5778,-5.5883,-5.6405,-5.651,-5.6693,-5.7373,-5.7651,-5.7791,-5.8287,-5.8444,-5.8523,-5.8523,-5.8523,-5.834,-5.7869,-5.7242,-5.6641,-5.6118,-5.5491,-5.5151,-5.5229,-5.5255,-5.5255,-5.5255,-5.4707,-5.4131,-5.3556,-5.2877,-5.2276,-5.1779,-5.1648,-5.2156,-5.3288,-5.3877,-5.4216,-5.437,-5.5083,-5.5195,-5.4722,-5.4976,-5.5158,0.0,0.0,0.0,0.0,0.0,0.0,0.0,0.0,0.0,0.0,0.0,0.0,0.0,0.0,0.0,0.0,0.0,0.0,0.0,0.0,0.0,0.0,0.0,0.0,0.0,0.0,0.0,0.0,0.0,0.0,0.0,0.0,-7.0919,-7.038,-6.9722,0.0,-6.8375,-6.7717,-6.6999,-6.6251,-6.4994,-6.4306,-6.4096,-6.2989,-6.3079,-6.4008,-6.2379,-6.1058,-5.9906,-5.8099,-5.6741,-5.5848,-5.5138,-5.4958,-5.5099,-5.5099,-5.5099,-5.5099,-5.5099,-5.5099,-5.5099,-5.5099,-5.5099,-5.5099,-5.5099,-5.5099,-5.5099,-5.5099,-5.5099,-5.5125,-5.5203,-5.5203,-5.5229,-5.5308,-5.5334,-5.5621,-5.6693,-5.732,-5.7756,-5.7765,-5.8183,-5.8523,-5.8523,-5.8523,-5.8497,-5.8418,-5.7503,-5.6771,-5.6693,-5.5752,-5.5282,-5.5752,-5.5804,-5.5804,-5.5804,-5.5308,-5.4733,-5.4131,-5.3086,-5.2459,-5.238,-5.1884,-5.1846,-5.2306,-5.2688,-5.3131,-5.3641,-5.4047,-5.4304,-5.4355,-5.4722,-5.5006,-5.89,0.0,0.0,0.0,0.0,0.0,0.0,0.0,0.0,0.0,0.0,0.0,0.0,0.0,0.0,0.0,0.0,0.0,0.0,0.0,0.0,0.0,0.0,0.0,0.0,0.0,0.0,0.0,0.0,0.0,0.0,-7.0201,-6.9722,-6.9453,-6.8405,0.0,-6.7418,-6.64,-6.5562,-6.4874,-6.3917,-6.3288,-6.2929,-6.2361,-6.2276,-6.2581,-6.1054,-5.9801,-5.883,-5.7225,-5.6053,-5.522,-5.4834,-5.4669,-5.4654,-5.4968,-5.5099,-5.5099,-5.5099,-5.5099,-5.5099,-5.5099,-5.5099,-5.5099,-5.5099,-5.5099,-5.5099,-5.5099,-5.5099,-5.5099,-5.5099,-5.5099,-5.5099,-5.5099,-5.5099,-5.5229,-5.5752,-5.6275,-5.6876,-5.7599,-5.7869,-5.8131,-5.847,-5.8523,-5.8392,-5.8078,-5.7346,-5.6693,-5.6353,-5.5595,-5.5203,-5.5438,-5.5726,-5.5909,-5.5909,-5.57,-5.5308,-5.4733,-5.3922,-5.3164,-5.2537,-5.225,-5.2088,-5.2121,-5.2593,-5.2842,-5.2789,-5.378,-5.4136,-5.389,-5.4517,-5.4955,0.0,0.0,0.0,0.0,0.0,0.0,0.0,0.0,0.0,0.0,0.0,0.0,0.0,0.0,0.0,0.0,0.0,0.0,0.0,0.0,0.0,0.0,0.0,0.0,0.0,0.0,0.0,0.0,0.0,0.0,-6.9273,-6.8764,-6.8345,-6.7986,-6.7029,-6.64,-6.6221,-6.5114,-6.4186,-6.3498,-6.3049,-6.248,-6.1822,-6.1437,-6.1032,-6.0575,-5.9447,-5.8523,-5.7579,-5.601,-5.4991,-5.4377,-5.4414,-5.4341,-5.4262,-5.4889,-5.5099,-5.5099,-5.5099,-5.5099,-5.5099,-5.5099,-5.5099,-5.5099,-5.5099,-5.5099,-5.5099,-5.5099,-5.5099,-5.5099,-5.5099,-5.5099,-5.5099,-5.5099,-5.5099,-5.5151,-5.5282,-5.5621,-5.6223,-5.7242,-5.7625,-5.7791,-5.8235,-5.8314,-5.8157,-5.7739,-5.7033,-5.6432,-5.5961,-5.5438,-5.5151,-5.5282,-5.5804,-5.6144,-5.6144,-5.6275,-5.6066,-5.536,-5.4759,-5.3922,-5.2772,-5.2589,-5.235,-5.1996,-5.2615,-5.2695,-5.2065,-5.3585,-5.399,-5.3419,-5.4282,-5.4875,0.0,0.0,0.0,0.0,0.0,0.0,0.0,0.0,0.0,0.0,0.0,0.0,0.0,0.0,0.0,0.0,0.0,0.0,0.0,0.0,0.0,0.0,0.0,0.0,0.0,0.0,0.0,0.0,0.0,0.0,-6.7208,-6.7119,-6.652,-6.5263,-6.5173,-6.4814,-6.4156,-6.3498,-6.2839,-6.2181,-6.2151,-6.1792,-6.1134,-5.9572,-5.8538,-5.7924,-5.7334,-5.6678,-5.5866,-5.3446,-5.2692,-5.316,-5.3384,-5.3739,-5.4262,-5.4889,-5.5099,-5.5099,-5.5099,-5.5099,-5.5099,-5.5099,-5.5099,-5.5099,-5.5099,-5.5099,-5.5099,-5.5099,-5.5099,-5.5099,-5.5099,-5.5099,-5.5099,-5.5099,-5.5099,-5.5255,-5.5752,-5.5883,-5.6092,-5.6719,-5.7294,-5.773,-5.7782,-5.7782,-5.7756,-5.773,-5.6693,-5.5935,-5.5909,-5.5438,-5.5308,-5.5804,-5.6405,-5.6771,-5.6771,-5.7268,-5.7085,-5.5935,-5.536,-5.455,-5.34,-5.2798,-5.2223,-5.1596,-5.228,-5.2332,-5.1828,-5.3044,-5.344,-5.3073,-5.3912,-5.4641,0.0,0.0,0.0,0.0,0.0,0.0,0.0,0.0,0.0,0.0,0.0,0.0,0.0,0.0,0.0,0.0,0.0,0.0,0.0,0.0,0.0,0.0,0.0,0.0,0.0,0.0,0.0,0.0,0.0,0.0,-6.5772,-6.5742,-6.5533,-6.5054,-6.4605,-6.3857,-6.278,-6.2151,-6.1702,-6.1463,-6.1014,-6.0475,-5.9787,-5.8402,-5.7122,-5.5945,-5.4541,-5.395,-5.3757,-5.2669,-5.2097,-5.2015,-5.3005,-5.3504,-5.3792,-5.4759,-5.5099,-5.5099,-5.5099,-5.5099,-5.5099,-5.5099,-5.5099,-5.5099,-5.5099,-5.5099,-5.5099,-5.5099,-5.5099,-5.5099,-5.5099,-5.5099,-5.5099,-5.5099,-5.5099,-5.5151,-5.536,-5.5386,-5.5569,-5.6118,-5.6405,-5.6667,-5.7059,-5.7111,-5.6981,-5.6588,-5.617,-5.5778,-5.5438,-5.5229,-5.5177,-5.536,-5.5883,-5.6379,-5.6771,-5.7007,-5.6928,-5.651,-5.5935,-5.5099,-5.3949,-5.3373,-5.2798,-5.2171,-5.2243,-5.2093,-5.1716,-5.2779,-5.3192,-5.306,-5.3727,-5.4385,-5.6519,0.0,0.0,0.0,0.0,0.0,0.0,0.0,0.0,0.0,0.0,0.0,0.0,0.0,0.0,0.0,0.0,0.0,0.0,0.0,0.0,0.0,0.0,0.0,0.0,0.0,0.0,0.0,0.0,0.0,-6.4725,-6.4695,-6.4485,-6.4066,-6.3378,-6.263,-6.1762,-6.1104,-6.0655,-6.0416,-5.9757,-5.9015,-5.825,-5.7059,-5.58,-5.444,-5.263,-5.1985,-5.2209,-5.1578,-5.1243,-5.1224,-5.2548,-5.3217,-5.353,-5.468,-5.5099,-5.5099,-5.5099,-5.5099,-5.5099,-5.5099,-5.5099,-5.5099,-5.5099,-5.5099,-5.5099,-5.5099,-5.5099,-5.5099,-5.5099,-5.5099,-5.5099,-5.5099,-5.5099,-5.5099,-5.5099,-5.5099,-5.5203,-5.5569,-5.5778,-5.604,-5.6432,-5.651,-5.6379,-5.5961,-5.5752,-5.5517,-5.5151,-5.5099,-5.5099,-5.5099,-5.5595,-5.6066,-5.6484,-5.6693,-5.6719,-5.651,-5.6118,-5.5386,-5.4262,-5.3687,-5.3112,-5.2511,-5.225,-5.2059,-5.2029,-5.2623,-5.2966,-5.3128,-5.3685,-5.4282,0.0,0.0,0.0,0.0,0.0,0.0,0.0,0.0,0.0,0.0,0.0,0.0,0.0,0.0,0.0,0.0,0.0,0.0,0.0,0.0,0.0,0.0,0.0,0.0,0.0,0.0,0.0,0.0,0.0,-6.4665,-6.4006,-6.3947,-6.3378,-6.2121,-6.1403,-6.1044,-6.1044,-6.0356,-5.9668,-5.9039,-5.8381,-5.7564,-5.6644,-5.5383,-5.4347,-5.3426,-5.1654,-5.1003,-5.1105,-4.9955,-5.0015,-5.089,-5.2014,-5.2851,-5.353,-5.4654,-5.5072,-5.5099,-5.5099,-5.5099,-5.5099,-5.5099,-5.5099,-5.5099,-5.5099,-5.5099,-5.5099,-5.5099,-5.5099,-5.5099,-5.5099,-5.5099,-5.5099,-5.5099,-5.5099,-5.5099,-5.5099,-5.5099,-5.5099,-5.5099,-5.5517,-5.5883,-5.5883,-5.5883,-5.5883,-5.5883,-5.5438,-5.5099,-5.5099,-5.5099,-5.5099,-5.5099,-5.5569,-5.5883,-5.5909,-5.6458,-5.6536,-5.5935,-5.5909,-5.5412,-5.4262,-5.3687,-5.3112,-5.2537,-5.225,-5.2245,-5.2588,-5.2579,-5.2739,-5.3101,-5.3632,-5.4385,-5.4569,0.0,0.0,0.0,0.0,0.0,0.0,0.0,0.0,0.0,0.0,0.0,0.0,0.0,0.0,0.0,0.0,0.0,0.0,0.0,0.0,0.0,0.0,0.0,0.0,0.0,0.0,0.0,0.0,-6.3528,-6.3348,-6.2869,-6.2241,-6.1403,-6.0266,-5.9668,-5.9668,-5.8501,-5.7842,-5.7633,-5.7004,-5.6355,-5.5647,-5.4182,-5.2959,-5.1874,-5.0515,-4.9744,-4.9399,-4.9488,-4.9778,-5.0263,-5.1387,-5.2485,-5.3478,-5.4184,-5.4733,-5.5099,-5.5099,-5.5099,-5.5099,-5.5099,-5.5099,-5.5099,-5.5099,-5.5099,-5.5099,-5.5099,-5.5099,-5.5099,-5.5099,-5.5099,-5.5099,-5.5099,-5.5099,-5.5099,-5.5099,-5.5099,-5.5099,-5.5099,-5.5229,-5.5334,-5.5334,-5.5334,-5.5334,-5.5334,-5.5203,-5.5099,-5.5099,-5.5099,-5.5099,-5.5099,-5.5229,-5.5491,-5.5883,-5.6066,-5.6092,-5.5909,-5.5909,-5.5595,-5.4889,-5.3922,-5.3321,-5.3138,-5.2208,-5.2032,-5.2588,-5.222,-5.2416,-5.3107,-5.3675,-5.423,-5.3733,-5.4517,-5.5293,-5.5938,0.0,0.0,0.0,-5.877,0.0,0.0,0.0,0.0,0.0,0.0,0.0,0.0,0.0,0.0,0.0,0.0,0.0,0.0,0.0,0.0,0.0,0.0,0.0,0.0,-6.281,-6.254,-6.2271,-6.1613,-6.0954,-6.0296,-5.9249,-5.856,-5.8261,-5.6944,-5.6286,-5.6286,-5.5257,-5.4404,-5.3707,-5.2861,-5.1768,-5.0574,-4.9901,-4.924,-4.869,-4.8916,-4.9344,-4.9976,-5.0917,-5.2145,-5.3452,-5.4001,-5.4576,-5.5099,-5.5099,-5.5099,-5.5099,-5.5099,-5.5099,-5.5099,-5.5099,-5.5099,-5.5099,-5.5099,-5.5099,-5.5099,-5.5099,-5.5099,-5.5099,-5.5099,-5.5099,-5.5099,-5.5099,-5.5099,-5.5099,-5.5099,-5.5099,-5.5099,-5.5099,-5.5099,-5.5099,-5.5099,-5.5099,-5.5099,-5.5099,-5.5099,-5.5099,-5.5099,-5.5099,-5.5229,-5.5543,-5.5569,-5.5569,-5.5569,-5.5569,-5.5308,-5.4759,-5.387,-5.3269,-5.3034,-5.2219,-5.1989,-5.2398,-5.1847,-5.2051,-5.2938,-5.3608,-5.423,-5.3155,-5.3838,-5.4355,-5.4722,-5.5006,0.0,-5.5089,-5.6017,0.0,0.0,0.0,0.0,0.0,0.0,0.0,0.0,0.0,0.0,0.0,0.0,0.0,0.0,0.0,0.0,0.0,0.0,0.0,-6.2869,-6.2331,-6.1672,-6.0924,-6.0296,-5.9638,-5.889,-5.8171,-5.7513,-5.6885,-5.5598,-5.497,-5.4919,-5.3397,-5.2288,-5.1483,-5.1442,-5.0722,-4.9474,-4.9403,-4.9103,-4.8606,-4.8315,-4.8852,-4.9949,-5.0472,-5.1753,-5.3373,-5.3896,-5.4497,-5.502,-5.5072,-5.5099,-5.5099,-5.5099,-5.5099,-5.5099,-5.5099,-5.5099,-5.5099,-5.5099,-5.5099,-5.5099,-5.5099,-5.5099,-5.5099,-5.5099,-5.5099,-5.5099,-5.5099,-5.5099,-5.5099,-5.5099,-5.5099,-5.5099,-5.5099,-5.5099,-5.5072,-5.502,-5.4994,-5.4968,-5.4916,-5.4916,-5.4916,-5.4916,-5.4916,-5.4916,-5.4916,-5.4916,-5.4916,-5.4916,-5.4916,-5.468,-5.4131,-5.3583,-5.3034,-5.2511,-5.2286,-5.2199,-5.2191,-5.1718,-5.1866,-5.263,-5.3477,-5.4208,-5.2462,-5.3366,-5.4126,-5.4671,-5.5006,0.0,-5.4521,-5.4999,0.0,0.0,0.0,0.0,0.0,0.0,0.0,0.0,0.0,0.0,0.0,0.0,0.0,0.0,0.0,0.0,0.0,0.0,-6.2061,-6.1523,-6.1373,-6.0775,-5.9548,-5.9368,-5.874,-5.7513,-5.6376,-5.5688,-5.5568,-5.4221,-5.3465,-5.3248,-5.2505,-5.1707,-5.0921,-5.0016,-4.9335,-4.8863,-4.8353,-4.8215,-4.8315,-4.8257,-4.8852,-4.9897,-5.0028,-5.1126,-5.2746,-5.3347,-5.3896,-5.4445,-5.4942,-5.5099,-5.5099,-5.5099,-5.5099,-5.5099,-5.5099,-5.5099,-5.5099,-5.5099,-5.5099,-5.5099,-5.5099,-5.5099,-5.5099,-5.5099,-5.5099,-5.5099,-5.5099,-5.5099,-5.5099,-5.5099,-5.5099,-5.5099,-5.5099,-5.5099,-5.4942,-5.4445,-5.4393,-5.421,-5.3792,-5.3739,-5.3739,-5.3739,-5.3739,-5.3739,-5.3739,-5.3739,-5.3739,-5.3739,-5.3739,-5.3687,-5.3556,-5.2981,-5.2616,-5.2485,-5.2473,-5.2418,-5.2191,-5.2334,-5.2513,-5.2683,-5.3308,-5.4159,-5.262,-5.3362,-5.4023,-5.4619,-5.4738,0.0,0.0,-5.3952,-5.4102,0.0,0.0,0.0,0.0,0.0,0.0,0.0,0.0,0.0,0.0,0.0,0.0,0.0,0.0,0.0,0.0,0.0,-6.1194,-6.0176,-5.9772,-5.9145,-5.8171,-5.8112,-5.7513,-5.6196,-5.5508,-5.488,-5.4192,-5.3058,-5.2356,-5.2112,-5.1119,-5.0148,-4.9183,-4.8659,-4.8029,-4.7393,-4.7698,-4.7779,-4.778,-4.8068,-4.8852,-4.9897,-4.9897,-5.0969,-5.2563,-5.3164,-5.3739,-5.4288,-5.4889,-5.5099,-5.5046,-5.4759,-5.4654,-5.4602,-5.4341,-5.4262,-5.4262,-5.4262,-5.4262,-5.4262,-5.4262,-5.4262,-5.4262,-5.4262,-5.4262,-5.4262,-5.4262,-5.4471,-5.4654,-5.4654,-5.4889,-5.5099,-5.5099,-5.5099,-5.4889,-5.4288,-5.421,-5.4001,-5.3478,-5.34,-5.34,-5.34,-5.34,-5.34,-5.34,-5.34,-5.34,-5.34,-5.34,-5.3269,-5.2955,-5.2668,-5.2544,-5.2543,-5.2748,-5.3005,-5.3343,-5.3533,-5.3441,-5.3164,-5.4064,-5.4953,-5.3046,-5.3592,-5.4126,-5.4671,-5.4499,-5.4012,0.0,0.0,0.0,0.0,0.0,0.0,0.0,0.0,0.0,0.0,0.0,0.0,0.0,0.0,0.0,0.0,0.0,0.0,0.0,0.0,-5.9847,-5.862,-5.8047,-5.7421,-5.6585,-5.6526,-5.6017,-5.485,-5.467,-5.4102,-5.2995,-5.2029,-5.1383,-5.1062,-4.9655,-4.8453,-4.7438,-4.7286,-4.6786,-4.6049,-4.7103,-4.7433,-4.733,-4.8068,-4.8956,-4.9897,-4.9897,-5.089,-5.2406,-5.3138,-5.3661,-5.4158,-5.4863,-5.502,-5.4863,-5.4367,-5.4131,-5.3975,-5.353,-5.34,-5.34,-5.34,-5.34,-5.34,-5.34,-5.34,-5.34,-5.34,-5.34,-5.34,-5.34,-5.3818,-5.421,-5.421,-5.468,-5.5099,-5.5099,-5.4994,-5.4733,-5.4131,-5.3949,-5.3661,-5.3112,-5.3034,-5.3034,-5.3034,-5.3034,-5.3034,-5.3034,-5.3034,-5.3034,-5.3034,-5.3034,-5.2825,-5.2354,-5.2328,-5.2408,-5.2615,-5.2861,-5.347,-5.4437,-5.4583,-5.4485,-5.4064,-5.5008,-5.5854,-5.3321,-5.3859,-5.4355,-5.4722,-5.4499,-5.4012,0.0,0.0,-5.2276,-5.2217,0.0,0.0,0.0,0.0,0.0,0.0,0.0,0.0,0.0,0.0,0.0,0.0,0.0,0.0,0.0,0.0,0.0,-5.6555,-5.6466,-5.5867,-5.461,-5.4551,-5.4192,-5.3443,-5.2845,-5.2456,-5.2306,-5.1202,-5.0397,-4.9882,-4.8481,-4.7462,-4.6898,-4.5928,-4.5658,-4.6022,-4.6458,-4.6922,-4.7357,-4.8538,-4.9348,-4.9897,-4.9897,-5.0629,-5.1831,-5.2981,-5.3426,-5.3635,-5.4733,-5.4759,-5.4288,-5.421,-5.387,-5.3478,-5.3426,-5.34,-5.34,-5.34,-5.34,-5.34,-5.34,-5.34,-5.34,-5.34,-5.34,-5.34,-5.34,-5.3818,-5.421,-5.421,-5.468,-5.5099,-5.5099,-5.4654,-5.4131,-5.3556,-5.3034,-5.2485,-5.1884,-5.1805,-5.1805,-5.1805,-5.1805,-5.1805,-5.1805,-5.1805,-5.1805,-5.1805,-5.1805,-5.1779,-5.1701,-5.1701,-5.1987,-5.2588,-5.265,-5.3139,-5.4134,-5.4706,-5.5162,-5.5645,-5.5787,-5.6412,0.0,0.0,0.0,0.0,0.0,0.0,-5.2845,0.0,-5.2097,0.0,0.0,0.0,0.0,0.0,0.0,0.0,0.0,0.0,0.0,0.0,0.0,0.0,0.0,0.0,0.0,0.0,0.0,0.0,0.0,-5.4201,-5.3623,-5.3623,-5.3294,-5.2636,-5.2336,-5.1912,-5.1381,-5.0493,-4.9795,-4.9227,-4.7796,-4.687,-4.6323,-4.5555,-4.5204,-4.5304,-4.6137,-4.6604,-4.6917,-4.8094,-4.9087,-4.9897,-4.9897,-5.0603,-5.1701,-5.2563,-5.3086,-5.3478,-5.3949,-5.4158,-5.4105,-5.3426,-5.2825,-5.2354,-5.2354,-5.2354,-5.2354,-5.2354,-5.2354,-5.2354,-5.2354,-5.2354,-5.2354,-5.2354,-5.2354,-5.2354,-5.2354,-5.3086,-5.3739,-5.3739,-5.4471,-5.4994,-5.4654,-5.4367,-5.4027,-5.3478,-5.2877,-5.2276,-5.1675,-5.1596,-5.1596,-5.1596,-5.1596,-5.1596,-5.1596,-5.1596,-5.1596,-5.1596,-5.1596,-5.1596,-5.1596,-5.1596,-5.1908,-5.2588,-5.2799,-5.3592,-5.4908,-5.5554,-5.6308,-5.7231,-5.7078,-5.7437,-5.4884,0.0,0.0,0.0,0.0,0.0,0.0,0.0,0.0,0.0,0.0,0.0,0.0,0.0,-5.1648,-5.2127,0.0,0.0,0.0,0.0,0.0,0.0,0.0,0.0,0.0,0.0,0.0,0.0,-5.2744,0.0,-5.2139,-5.2127,-5.1887,-5.1409,-5.1511,-5.1202,-5.0461,-4.9824,-4.9178,-4.8531,-4.7181,-4.6323,-4.5742,-4.5287,-4.491,-4.48,-4.5976,-4.6473,-4.6578,-4.7885,-4.893,-4.9688,-4.9845,-5.0498,-5.1465,-5.2223,-5.2772,-5.3164,-5.3347,-5.3556,-5.3583,-5.2589,-5.1962,-5.1596,-5.1596,-5.1596,-5.1596,-5.1596,-5.1596,-5.1596,-5.1596,-5.1596,-5.1596,-5.1596,-5.1596,-5.1596,-5.1596,-5.2406,-5.3138,-5.3138,-5.3949,-5.4497,-5.4053,-5.3975,-5.3792,-5.3243,-5.2642,-5.2093,-5.1648,-5.1596,-5.1596,-5.1596,-5.1596,-5.1596,-5.1596,-5.1596,-5.1596,-5.1596,-5.1596,-5.1596,-5.1596,-5.1659,-5.2032,-5.2588,-5.3044,-5.3954,-5.5379,-5.6049,-5.6964,-5.8114,-5.8059,-5.8335,0.0,0.0,0.0,-5.3919,0.0,0.0,0.0,0.0,-5.2187,0.0,0.0,0.0,-5.3114,-5.2606,-5.2187,-5.2187,-5.1678,0.0,0.0,0.0,0.0,0.0,0.0,0.0,0.0,0.0,0.0,0.0,-5.0666,0.0,-4.9475,-4.9403,-4.9419,-4.9389,-4.9743,-4.9838,-4.9545,-4.9135,-4.8481,-4.7615,-4.6558,-4.5768,-4.5234,-4.4884,-4.4722,-4.48,-4.5976,-4.6473,-4.6604,-4.8355,-4.9087,-4.9165,-4.9688,-5.0263,-5.0943,-5.2093,-5.2511,-5.2616,-5.3191,-5.3034,-5.2459,-5.1831,-5.1622,-5.1596,-5.1596,-5.1596,-5.1596,-5.1596,-5.1596,-5.1596,-5.1596,-5.1596,-5.1596,-5.1596,-5.1596,-5.1596,-5.1596,-5.2093,-5.2537,-5.2537,-5.3034,-5.3452,-5.3426,-5.3426,-5.3217,-5.2616,-5.2014,-5.1622,-5.1596,-5.1596,-5.1596,-5.1596,-5.1596,-5.1596,-5.1596,-5.1596,-5.1596,-5.1596,-5.1596,-5.1596,-5.1596,-5.1934,-5.2245,-5.2588,-5.3227,-5.4074,-5.5026,-5.5961,-5.6851,-5.7836,-5.839,-5.8828,0.0,0.0,-5.3568,-5.3164,0.0,0.0,0.0,0.0,0.0,0.0,0.0,0.0,0.0,-5.2636,-5.2187,-5.2187,-5.1289,-5.0435,0.0,0.0,0.0,0.0,0.0,0.0,0.0,0.0,0.0,-5.0564,-4.994,-4.9523,0.0,-4.9314,-4.9209,-4.9073,-4.8978,-4.8681,-4.8119,-4.7344,-4.6594,-4.5944,-4.485,-4.444,-4.4573,-4.4333,-4.4356,-4.48,-4.5976,-4.6473,-4.6578,-4.7937,-4.8721,-4.9113,-4.9296,-4.9688,-5.0289,-5.1073,-5.1858,-5.2537,-5.272,-5.2406,-5.1858,-5.1675,-5.1596,-5.1596,-5.1596,-5.1596,-5.1596,-5.1596,-5.1596,-5.1596,-5.1596,-5.1596,-5.1596,-5.1596,-5.1596,-5.1596,-5.1596,-5.2067,-5.2485,-5.2485,-5.2981,-5.3269,-5.2877,-5.2798,-5.272,-5.2537,-5.1988,-5.1596,-5.1596,-5.1596,-5.1596,-5.1596,-5.1596,-5.1596,-5.1596,-5.1596,-5.1596,-5.1596,-5.1596,-5.1596,-5.1596,-5.1934,-5.2245,-5.2588,-5.3288,-5.4194,-5.532,-5.6222,-5.7134,-5.8085,-5.8664,-5.8991,-5.1856,-5.2323,0.0,-5.2252,-5.2062,0.0,-5.2226,0.0,0.0,0.0,0.0,0.0,0.0,-5.2995,-5.2396,-5.1917,-5.0913,-5.0016,0.0,-4.8985,0.0,0.0,0.0,0.0,0.0,0.0,-4.9149,-4.9149,-4.8372,-4.7983,0.0,0.0,-4.8134,-4.8089,-4.7887,-4.7422,-4.6823,-4.6013,-4.5338,-4.4815,-4.3902,-4.3755,-4.4124,-4.3965,-4.4173,-4.4774,-4.5767,-4.629,-4.6552,-4.7492,-4.8224,-4.8773,-4.8773,-4.9113,-4.9688,-5.0263,-5.0943,-5.157,-5.157,-5.1309,-5.1021,-5.123,-5.1309,-5.1335,-5.1544,-5.1596,-5.1596,-5.1596,-5.1596,-5.1596,-5.1596,-5.1596,-5.1596,-5.1596,-5.1596,-5.1596,-5.1596,-5.191,-5.2171,-5.2171,-5.2485,-5.2642,-5.225,-5.2171,-5.2171,-5.2171,-5.1858,-5.1596,-5.1596,-5.1596,-5.1596,-5.1596,-5.1596,-5.1596,-5.1596,-5.1596,-5.1596,-5.1596,-5.1596,-5.1596,-5.1596,-5.2059,-5.243,-5.2799,-5.3652,-5.4612,-5.5671,-5.668,-5.7528,-5.8195,-5.8589,-5.877]}]]